[[{"header":{"parameterUnit":"m.s-1","parameterCategory":1,"la1":30.6,"la2":29.2853,"lo1":-89.7004,"lo2":-87.6739,"dy":0.0162,"dx":0.0183,"nx":112,"ny":82,"refTime":"2023-09-09T06:00:00:Z","depth":0,"parameterNumber":2,"parameterNumberName":"U-component_of_WINDS"},"data":[0.0,0.0,0.0,0.0,0.0,0.0,0.0,0.0,0.0,0.0,0.0,0.0,0.0,0.0,0.0,0.0,0.0,0.0,0.0,0.0,0.0,0.0,0.0,0.0,0.0,0.0,0.0,0.0,0.0,0.0,0.0,0.0,0.0,0.0,0.0,0.0,0.0,0.0,0.0,0.0,0.0,0.0,0.0,0.0,0.0,0.0,0.0,0.0,0.0,0.0,0.0,0.0,0.0,0.0,0.0,0.0,0.0,0.0,0.0,0.0,0.0,0.0,0.0,0.0,0.0,0.0,0.0,0.0,0.0,0.0,0.0,0.0,0.0,0.0,0.0,0.0,0.0,0.0,0.0,0.0,0.0,0.0,0.0,0.0,0.0,0.0,0.0,0.0,0.0,0.0,4.0928,4.1423,4.269,4.3497,4.3497,4.3497,4.2121,3.8909,0.0,0.0,0.0,0.0,0.0,0.0,0.0,0.0,0.0,0.0,0.0,0.0,0.0,0.0,0.0,0.0,0.0,0.0,0.0,0.0,0.0,0.0,0.0,0.0,0.0,0.0,0.0,0.0,0.0,0.0,0.0,0.0,0.0,0.0,0.0,0.0,0.0,0.0,0.0,0.0,0.0,0.0,0.0,0.0,0.0,0.0,0.0,0.0,0.0,0.0,0.0,0.0,0.0,0.0,0.0,0.0,0.0,0.0,0.0,0.0,0.0,0.0,0.0,0.0,0.0,0.0,0.0,0.0,0.0,0.0,0.0,0.0,0.0,0.0,0.0,0.0,0.0,0.0,0.0,0.0,0.0,0.0,0.0,0.0,0.0,0.0,0.0,0.0,0.0,0.0,0.0,0.0,0.0,0.0,0.0,0.0,0.0,0.0,0.0,0.0,0.0,0.0,0.0,0.0,4.012,4.2837,4.3332,4.3497,4.3497,4.3497,4.2121,3.8909,0.0,0.0,0.0,0.0,0.0,0.0,0.0,0.0,0.0,0.0,0.0,0.0,0.0,0.0,0.0,0.0,0.0,0.0,0.0,0.0,0.0,0.0,0.0,0.0,0.0,0.0,0.0,0.0,0.0,0.0,0.0,0.0,0.0,0.0,0.0,0.0,0.0,0.0,0.0,0.0,0.0,0.0,0.0,0.0,0.0,0.0,0.0,0.0,0.0,0.0,0.0,0.0,0.0,0.0,0.0,0.0,0.0,0.0,0.0,0.0,0.0,0.0,0.0,0.0,0.0,0.0,0.0,0.0,0.0,0.0,0.0,0.0,0.0,0.0,0.0,0.0,0.0,0.0,0.0,0.0,0.0,0.0,0.0,0.0,0.0,0.0,0.0,0.0,0.0,0.0,0.0,0.0,0.0,0.0,0.0,0.0,0.0,0.0,0.0,0.0,0.0,0.0,0.0,3.9019,4.091,4.324,4.3497,4.3497,4.3497,4.3497,4.2121,3.8909,3.8707,0.0,0.0,0.0,0.0,0.0,0.0,0.0,0.0,0.0,0.0,0.0,0.0,0.0,0.0,0.0,0.0,0.0,0.0,0.0,0.0,0.0,0.0,0.0,0.0,0.0,0.0,0.0,0.0,0.0,0.0,0.0,0.0,0.0,0.0,0.0,0.0,0.0,0.0,0.0,0.0,0.0,0.0,0.0,0.0,0.0,0.0,0.0,0.0,0.0,0.0,0.0,0.0,0.0,0.0,0.0,0.0,0.0,0.0,0.0,0.0,0.0,0.0,0.0,0.0,0.0,0.0,0.0,0.0,0.0,0.0,0.0,0.0,0.0,0.0,0.0,0.0,0.0,0.0,0.0,0.0,0.0,0.0,0.0,0.0,0.0,0.0,0.0,0.0,0.0,0.0,0.0,0.0,0.0,0.0,0.0,0.0,0.0,0.0,0.0,0.0,0.0,0.0,4.0451,4.2139,4.3369,4.3497,4.3497,4.3497,4.3149,4.1717,3.8891,3.834,0.0,0.0,0.0,0.0,0.0,0.0,0.0,0.0,0.0,0.0,0.0,0.0,0.0,0.0,0.0,0.0,0.0,0.0,0.0,0.0,0.0,0.0,0.0,0.0,0.0,0.0,0.0,0.0,0.0,0.0,0.0,0.0,0.0,0.0,0.0,0.0,0.0,0.0,0.0,0.0,0.0,0.0,0.0,0.0,0.0,0.0,0.0,0.0,0.0,0.0,0.0,0.0,0.0,0.0,0.0,0.0,0.0,0.0,0.0,0.0,0.0,0.0,0.0,0.0,0.0,0.0,0.0,0.0,0.0,0.0,0.0,0.0,0.0,0.0,0.0,0.0,0.0,0.0,0.0,0.0,0.0,0.0,0.0,0.0,0.0,0.0,0.0,0.0,0.0,0.0,0.0,0.0,0.0,0.0,0.0,0.0,0.0,0.0,0.0,0.0,0.0,0.0,4.1405,4.3369,4.3479,4.3497,4.3497,4.3497,4.2139,4.0543,3.8817,3.7294,0.0,0.0,0.0,0.0,0.0,0.0,0.0,0.0,0.0,0.0,0.0,0.0,0.0,0.0,0.0,0.0,0.0,0.0,0.0,0.0,0.0,0.0,0.0,0.0,0.0,0.0,0.0,0.0,0.0,0.0,0.0,0.0,0.0,0.0,0.0,0.0,0.0,0.0,0.0,0.0,0.0,0.0,0.0,0.0,0.0,0.0,0.0,0.0,0.0,0.0,0.0,0.0,0.0,0.0,0.0,0.0,0.0,0.0,0.0,0.0,0.0,0.0,0.0,0.0,0.0,0.0,0.0,0.0,0.0,0.0,0.0,0.0,0.0,0.0,0.0,0.0,0.0,0.0,0.0,0.0,0.0,0.0,0.0,0.0,0.0,0.0,0.0,0.0,0.0,0.0,0.0,0.0,0.0,0.0,0.0,0.0,0.0,0.0,0.0,0.0,0.0,0.0,4.0873,4.3061,0.0,4.4307,4.456,4.456,4.3541,4.2014,3.9888,0.0,0.0,0.0,0.0,0.0,0.0,0.0,0.0,0.0,0.0,0.0,0.0,0.0,0.0,0.0,0.0,0.0,0.0,0.0,0.0,0.0,0.0,0.0,0.0,0.0,0.0,0.0,0.0,0.0,0.0,0.0,0.0,0.0,0.0,0.0,0.0,0.0,0.0,0.0,0.0,0.0,0.0,0.0,0.0,0.0,0.0,0.0,0.0,0.0,0.0,0.0,0.0,0.0,0.0,0.0,0.0,0.0,0.0,0.0,0.0,0.0,0.0,0.0,0.0,0.0,0.0,0.0,0.0,0.0,0.0,0.0,0.0,0.0,0.0,0.0,0.0,0.0,0.0,0.0,0.0,0.0,0.0,0.0,0.0,0.0,0.0,0.0,0.0,0.0,0.0,0.0,0.0,0.0,0.0,0.0,0.0,0.0,0.0,0.0,0.0,0.0,0.0,3.8612,4.1252,4.3302,0.0,4.4687,4.4993,4.4993,4.398,4.2508,4.0528,0.0,0.0,0.0,0.0,0.0,0.0,0.0,0.0,0.0,0.0,0.0,0.0,0.0,0.0,0.0,0.0,0.0,0.0,0.0,0.0,0.0,0.0,0.0,0.0,0.0,0.0,0.0,0.0,0.0,0.0,0.0,0.0,0.0,0.0,0.0,0.0,0.0,0.0,0.0,0.0,0.0,0.0,0.0,0.0,0.0,0.0,0.0,0.0,0.0,0.0,0.0,0.0,0.0,0.0,0.0,0.0,0.0,0.0,0.0,0.0,0.0,0.0,0.0,0.0,0.0,0.0,0.0,0.0,0.0,0.0,0.0,0.0,0.0,0.0,0.0,0.0,0.0,0.0,0.0,0.0,0.0,0.0,0.0,0.0,0.0,0.0,0.0,0.0,0.0,0.0,0.0,0.0,0.0,0.0,0.0,0.0,0.0,0.0,0.0,0.0,0.0,0.0,4.0294,4.279,4.4502,4.4502,4.4502,4.4502,4.4502,4.2999,4.1578,0.0,0.0,0.0,0.0,0.0,0.0,0.0,0.0,0.0,0.0,0.0,0.0,0.0,0.0,0.0,0.0,0.0,0.0,0.0,0.0,0.0,0.0,0.0,0.0,0.0,0.0,0.0,0.0,0.0,0.0,0.0,0.0,0.0,0.0,0.0,0.0,0.0,0.0,0.0,0.0,0.0,0.0,0.0,0.0,0.0,0.0,0.0,0.0,0.0,0.0,0.0,0.0,0.0,0.0,0.0,0.0,0.0,0.0,0.0,0.0,0.0,0.0,0.0,0.0,0.0,0.0,0.0,0.0,0.0,0.0,0.0,0.0,0.0,0.0,0.0,0.0,0.0,0.0,0.0,0.0,0.0,0.0,0.0,0.0,0.0,0.0,0.0,0.0,0.0,0.0,0.0,0.0,0.0,0.0,0.0,0.0,0.0,0.0,0.0,0.0,0.0,0.0,0.0,3.992,4.309,4.5196,4.4876,4.5341,4.5693,4.5693,4.4677,4.3315,4.1649,0.0,0.0,0.0,0.0,0.0,0.0,0.0,0.0,0.0,0.0,0.0,0.0,0.0,0.0,0.0,0.0,0.0,0.0,0.0,0.0,0.0,0.0,0.0,0.0,0.0,0.0,0.0,0.0,0.0,0.0,0.0,0.0,0.0,0.0,0.0,0.0,0.0,0.0,0.0,0.0,0.0,0.0,0.0,0.0,0.0,0.0,0.0,0.0,0.0,0.0,0.0,0.0,0.0,0.0,0.0,0.0,0.0,0.0,0.0,0.0,0.0,0.0,0.0,0.0,0.0,0.0,0.0,0.0,0.0,0.0,0.0,0.0,0.0,0.0,0.0,0.0,0.0,0.0,0.0,0.0,0.0,0.0,0.0,0.0,0.0,0.0,0.0,0.0,0.0,0.0,0.0,0.0,0.0,0.0,0.0,0.0,0.0,0.0,0.0,0.0,0.0,0.0,4.0615,4.3509,4.5466,4.5172,4.5608,4.5905,4.5905,4.5401,4.4397,4.2803,0.0,0.0,0.0,0.0,0.0,0.0,0.0,0.0,0.0,0.0,0.0,0.0,0.0,0.0,0.0,0.0,0.0,0.0,0.0,0.0,0.0,0.0,0.0,0.0,0.0,0.0,0.0,0.0,0.0,0.0,0.0,0.0,0.0,0.0,0.0,0.0,0.0,0.0,0.0,0.0,0.0,0.0,0.0,0.0,0.0,0.0,0.0,0.0,0.0,0.0,0.0,0.0,0.0,0.0,0.0,0.0,0.0,0.0,0.0,0.0,0.0,0.0,0.0,0.0,0.0,0.0,0.0,0.0,0.0,0.0,0.0,0.0,0.0,0.0,0.0,0.0,0.0,0.0,0.0,0.0,0.0,0.0,0.0,0.0,0.0,0.0,0.0,0.0,0.0,0.0,0.0,0.0,0.0,0.0,0.0,0.0,0.0,0.0,0.0,0.0,0.0,0.0,4.189,4.3999,4.5423,4.5423,4.5423,4.5423,4.5423,4.5423,4.4888,4.378,0.0,0.0,0.0,0.0,0.0,0.0,0.0,0.0,0.0,0.0,0.0,0.0,0.0,0.0,0.0,0.0,0.0,0.0,0.0,0.0,0.0,0.0,0.0,0.0,0.0,0.0,0.0,0.0,0.0,0.0,0.0,0.0,0.0,0.0,0.0,0.0,0.0,0.0,0.0,0.0,0.0,0.0,0.0,0.0,0.0,0.0,0.0,0.0,0.0,0.0,0.0,0.0,0.0,0.0,0.0,0.0,0.0,0.0,0.0,0.0,3.3852,0.0,0.0,0.0,0.0,0.0,0.0,0.0,0.0,0.0,0.0,0.0,0.0,0.0,0.0,0.0,0.0,0.0,0.0,0.0,0.0,0.0,0.0,0.0,0.0,0.0,0.0,0.0,0.0,0.0,0.0,0.0,0.0,0.0,0.0,0.0,0.0,0.0,0.0,0.0,0.0,0.0,4.1961,4.3999,4.5423,4.5423,4.5423,4.5423,4.5423,4.5423,4.4888,4.378,4.3145,0.0,0.0,0.0,0.0,0.0,0.0,0.0,0.0,0.0,0.0,0.0,0.0,0.0,0.0,0.0,0.0,0.0,0.0,0.0,0.0,0.0,0.0,0.0,0.0,0.0,0.0,0.0,0.0,0.0,0.0,0.0,0.0,0.0,0.0,0.0,0.0,0.0,0.0,0.0,0.0,0.0,0.0,0.0,0.0,0.0,0.0,0.0,0.0,0.0,0.0,0.0,0.0,0.0,0.0,0.0,0.0,0.0,0.0,0.0,0.0,3.4059,0.0,0.0,0.0,0.0,0.0,0.0,0.0,0.0,0.0,0.0,0.0,0.0,0.0,0.0,0.0,0.0,0.0,0.0,0.0,0.0,0.0,0.0,0.0,0.0,0.0,0.0,0.0,0.0,0.0,0.0,0.0,0.0,0.0,0.0,0.0,0.0,0.0,0.0,0.0,0.0,4.2767,4.4324,4.5423,4.5423,4.5423,4.5423,4.5423,4.5423,4.5165,4.4538,4.3694,0.0,0.0,0.0,0.0,0.0,0.0,0.0,0.0,0.0,0.0,0.0,0.0,0.0,0.0,0.0,0.0,0.0,0.0,0.0,0.0,0.0,0.0,0.0,0.0,0.0,0.0,0.0,0.0,0.0,0.0,0.0,0.0,0.0,0.0,0.0,0.0,0.0,0.0,0.0,0.0,0.0,0.0,0.0,0.0,0.0,0.0,0.0,0.0,0.0,0.0,0.0,0.0,0.0,3.8102,3.8456,3.8474,3.9049,3.9388,3.9267,3.7129,3.7249,3.8801,3.6301,0.0,0.0,0.0,0.0,0.0,0.0,0.0,0.0,0.0,0.0,0.0,0.0,0.0,0.0,0.0,0.0,0.0,0.0,0.0,0.0,0.0,0.0,0.0,0.0,4.1793,4.1503,3.8956,0.0,0.0,0.0,0.0,0.0,0.0,0.0,0.0,0.0,0.0,0.0,4.3594,4.4696,4.5423,4.5423,4.5423,4.5423,4.5423,4.5423,4.5423,4.5423,4.4251,4.3727,0.0,0.0,0.0,0.0,0.0,0.0,0.0,0.0,0.0,0.0,0.0,0.0,0.0,0.0,0.0,0.0,0.0,0.0,0.0,0.0,0.0,0.0,0.0,0.0,0.0,0.0,0.0,0.0,0.0,0.0,0.0,0.0,3.1871,3.3509,0.0,0.0,0.0,0.0,0.0,0.0,0.0,0.0,0.0,0.0,0.0,0.0,0.0,3.7762,3.9924,4.0186,4.0875,4.2001,4.2121,4.2173,4.2173,4.2276,4.2427,4.2475,4.0836,0.0,4.056,4.0146,0.0,0.0,0.0,0.0,0.0,0.0,0.0,0.0,0.0,0.0,0.0,0.0,0.0,0.0,0.0,0.0,0.0,0.0,0.0,0.0,0.0,0.0,4.2684,4.2843,4.2964,4.293,0.0,4.0858,3.9416,3.9281,3.9868,0.0,0.0,0.0,0.0,0.0,0.0,0.0,4.3687,4.4696,4.5423,4.5423,4.5423,4.5423,4.5423,4.5423,4.5423,4.5423,4.5234,4.513,4.5165,4.4185,0.0,0.0,0.0,0.0,0.0,0.0,0.0,0.0,0.0,0.0,0.0,0.0,0.0,0.0,0.0,0.0,0.0,0.0,0.0,0.0,0.0,0.0,0.0,0.0,0.0,0.0,0.0,0.0,0.0,3.1935,3.3659,3.6079,3.524,3.4466,0.0,0.0,0.0,0.0,0.0,0.0,0.0,0.0,0.0,3.8901,3.8999,3.9935,4.1833,4.1883,4.2226,4.2809,4.3254,4.346,4.3494,4.3905,4.4146,4.4181,4.3512,4.322,4.3083,4.1547,4.0888,4.075,0.0,0.0,0.0,0.0,3.7222,3.7384,3.7714,3.8955,4.0298,3.959,0.0,0.0,0.0,0.0,0.0,0.0,0.0,3.9301,0.0,0.0,4.2992,4.3679,4.4113,4.444,4.444,4.3603,4.2544,0.0,4.1895,4.1974,4.0458,0.0,0.0,0.0,0.0,4.4782,4.5805,4.6375,4.6717,4.6717,4.6717,4.6717,4.6717,4.6717,4.6717,4.6717,4.632,4.6096,4.6096,4.5148,4.4359,0.0,0.0,0.0,0.0,0.0,0.0,0.0,0.0,0.0,0.0,0.0,0.0,0.0,0.0,0.0,0.0,0.0,0.0,0.0,0.0,0.0,0.0,0.0,0.0,0.0,0.0,0.0,0.0,3.3761,3.5352,3.8014,3.7192,3.6524,0.0,0.0,0.0,0.0,0.0,0.0,3.802,3.8474,3.9501,4.112,4.1222,4.1869,4.3234,4.3439,4.3524,4.3541,4.4326,4.4685,4.4702,4.5248,4.5559,4.5542,4.5542,4.5542,4.5354,4.2928,4.1945,4.1894,4.1547,4.0703,3.9669,3.9526,3.9457,3.9491,3.9698,4.0509,4.1474,4.1474,4.1595,4.1712,4.158,0.0,0.0,0.0,0.0,4.0384,4.1551,4.2561,4.3475,4.4354,4.5165,4.5734,4.5734,4.5872,4.5477,0.0,4.3934,4.3969,4.248,0.0,0.0,0.0,0.0,4.6117,4.7548,4.7717,4.7717,4.7717,4.7717,4.7717,4.7717,4.7717,4.7717,4.7717,4.72,4.6889,4.6889,4.6148,4.5321,4.4474,0.0,0.0,0.0,0.0,0.0,0.0,0.0,0.0,0.0,0.0,0.0,0.0,0.0,0.0,0.0,0.0,0.0,0.0,0.0,0.0,0.0,0.0,0.0,0.0,0.0,0.0,0.0,0.0,0.0,3.7979,3.9296,0.0,0.0,0.0,0.0,3.803,3.8082,3.8717,3.9983,4.0136,4.1121,4.3183,4.3447,4.3892,4.4712,4.5538,4.584,4.5745,4.6493,4.6833,4.685,4.6867,4.6941,4.7096,4.7096,4.7096,4.6977,4.5405,4.481,4.4673,4.3306,4.2739,4.2585,4.2029,4.1819,4.1923,4.2681,4.3042,4.3111,4.3111,4.3577,4.3837,4.242,4.2455,0.0,0.0,4.185,4.3007,4.3076,4.4198,4.5268,4.5354,4.5975,4.6544,4.6544,4.7096,4.7131,0.0,4.5889,4.5994,4.4423,0.0,4.6961,4.5561,4.6613,4.7579,4.77,4.7717,4.7717,4.7717,4.7717,4.7717,4.7717,4.7717,4.7717,4.7717,4.7683,4.7648,4.7648,4.6941,4.651,4.6441,4.4337,0.0,0.0,0.0,0.0,0.0,0.0,0.0,0.0,0.0,0.0,0.0,0.0,0.0,0.0,0.0,0.0,0.0,0.0,0.0,0.0,0.0,0.0,0.0,0.0,0.0,0.0,0.0,0.0,3.8662,3.9265,0.0,3.9993,3.9912,3.981,3.9634,4.0815,4.1765,4.2343,4.3274,4.4135,4.4874,4.5405,4.5852,4.6106,4.6377,4.6513,4.6455,4.6726,4.6844,4.6844,4.6844,4.6903,4.6944,4.6944,4.6944,4.691,4.6384,4.626,4.6362,4.587,4.5737,4.5829,4.5625,4.5558,4.5717,4.5992,4.6096,4.6096,4.6096,4.6268,4.6389,4.5837,4.5872,4.5975,4.5423,4.5665,4.6096,4.6096,4.6493,4.6906,4.6906,4.7113,4.732,4.732,4.7527,4.7562,4.701,4.7131,4.7148,4.6579,4.7165,4.7683,4.7614,4.8079,4.8614,4.9114,4.9183,4.9183,4.9183,4.9183,4.9183,4.9183,4.9183,4.9183,4.9183,4.87,4.8424,4.8424,4.7717,4.7096,4.6613,4.5803,4.4165,0.0,0.0,0.0,0.0,0.0,0.0,0.0,0.0,0.0,0.0,0.0,0.0,0.0,0.0,0.0,0.0,0.0,0.0,0.0,0.0,0.0,0.0,0.0,0.0,0.0,0.0,3.7827,3.9498,3.9965,4.051,4.1409,4.1342,4.1511,4.2124,4.3389,4.4338,4.4648,4.5574,4.6075,4.6075,4.6549,4.6921,4.7175,4.7411,4.7665,4.7902,4.8173,4.8274,4.8274,4.8274,4.8274,4.8274,4.8274,4.8274,4.8274,4.8274,4.8395,4.8456,4.7493,4.7233,4.742,4.7494,4.7606,4.7717,4.7717,4.7717,4.7717,4.7717,4.7717,4.7717,4.7717,4.7717,4.7717,4.7717,4.7717,4.7717,4.7717,4.7717,4.7717,4.7717,4.7907,4.8079,4.8079,4.8493,4.8872,4.8872,4.8441,4.7924,4.7424,4.7562,4.7786,4.8045,4.8079,4.8355,4.9131,4.9683,5.0011,5.0011,5.0459,5.0649,5.039,5.0149,5.0011,5.0011,4.9252,4.8941,4.92,4.801,4.7113,4.6613,4.5837,4.432,4.2026,0.0,0.0,0.0,0.0,0.0,0.0,0.0,0.0,0.0,0.0,0.0,0.0,0.0,0.0,0.0,0.0,0.0,0.0,0.0,0.0,0.0,0.0,0.0,3.8018,3.9289,4.0172,4.0455,4.1596,4.2678,4.3566,4.3542,4.4113,4.5618,4.5737,4.6058,4.6786,4.6853,4.687,4.6887,4.6921,4.7276,4.802,4.8714,4.9424,5.0135,5.0862,5.1217,5.1217,5.1217,5.1217,5.1217,5.1217,5.1217,5.1217,5.1217,5.1217,5.093,4.8218,4.7197,4.7369,4.7575,4.7687,4.7855,4.782,4.782,4.782,4.7786,4.7786,4.7786,4.7786,4.7786,4.7786,4.782,4.782,4.782,4.7838,4.7855,4.7855,4.7855,4.8407,4.8924,4.8924,5.0097,5.1149,5.1149,4.9942,4.8476,4.7027,4.7389,4.7614,4.6889,4.6786,0.0,4.7769,4.9148,5.0062,5.0011,5.1338,5.1908,5.1149,5.0459,5.008,5.008,4.9338,4.9235,5.0011,4.7889,4.67,4.6682,4.4423,4.3646,4.4302,0.0,0.0,0.0,0.0,0.0,0.0,0.0,0.0,0.0,0.0,0.0,0.0,0.0,0.0,0.0,0.0,0.0,0.0,0.0,0.0,0.0,0.0,3.9631,3.9579,3.9901,4.0747,4.2409,4.2898,4.3623,4.4998,4.5077,4.5466,4.643,4.6498,4.6819,4.7564,4.8105,4.8646,4.9171,4.9712,5.0101,5.0304,5.0507,5.071,5.0913,5.1116,5.1217,5.1217,5.1217,5.1217,5.1217,5.1217,5.1217,5.1217,5.1217,5.1217,5.1133,5.0384,5.0187,5.0311,5.039,5.0574,5.0729,5.0314,5.0183,5.0097,4.9545,4.9373,4.9373,4.9373,4.9373,4.9493,5.0028,5.0183,5.0304,5.0838,5.0976,5.0976,5.0976,5.1132,5.1287,5.1287,5.1614,5.1925,5.1925,5.158,5.1149,5.0752,5.0856,5.0907,5.07,5.0683,0.0,5.0959,5.1338,5.12,5.0114,5.1338,5.1701,5.0424,5.1114,5.1614,5.1614,5.0907,5.058,5.0804,4.9683,4.8803,4.8234,4.5975,4.4906,0.0,0.0,0.0,0.0,0.0,0.0,0.0,0.0,0.0,0.0,0.0,0.0,0.0,0.0,0.0,0.0,0.0,0.0,0.0,0.0,0.0,0.0,4.0456,4.1493,4.2317,4.2168,4.2557,4.4181,4.4367,4.4857,4.6041,4.616,4.6583,4.7631,4.7379,4.7646,4.8701,4.9217,4.9636,5.0056,5.077,5.1369,5.1674,5.1674,5.1843,5.2164,5.2164,5.2164,5.2164,5.2164,5.2164,5.2164,5.2164,5.2164,5.2164,5.2164,5.2164,0.0,0.0,0.0,0.0,0.0,5.1725,5.1843,5.1476,5.1321,5.1313,5.0961,5.0823,5.0883,5.0865,5.0925,5.1028,5.1459,5.158,5.1683,5.2114,5.2218,5.2218,5.2218,5.2218,5.2218,5.2218,5.2477,5.2718,5.2718,5.2898,0.0,5.3043,5.2071,5.1183,5.0856,5.0745,5.0848,5.1252,5.1718,5.1691,5.0909,5.2104,5.2437,5.1253,5.1665,0.0,0.0,0.0,5.0745,5.0183,4.9735,0.0,0.0,0.0,4.5596,4.5924,4.5044,0.0,0.0,4.2984,4.2411,0.0,0.0,0.0,0.0,0.0,0.0,0.0,0.0,0.0,0.0,0.0,0.0,0.0,0.0,0.0,0.0,4.1055,4.251,4.5344,4.5058,4.4889,4.5621,4.563,4.5892,4.67,4.6784,4.7389,4.887,4.8297,4.8546,4.9898,0.0,0.0,0.0,0.0,5.171,5.2286,5.2453,5.2926,5.3636,5.3721,5.3754,5.3754,5.3754,5.3754,5.3754,5.3754,5.3754,5.3754,5.3754,5.3704,5.3484,5.2046,5.1536,5.1745,5.1855,5.1919,5.1902,5.1879,0.0,0.0,5.1946,5.1991,5.2052,5.2157,5.2218,5.2235,5.2261,5.2356,5.2373,5.2398,5.2416,5.2477,5.2477,5.2477,5.2477,5.2416,5.2967,5.3466,5.3466,5.3857,5.4175,5.4175,5.2087,5.0211,4.9505,4.9361,4.9543,5.0366,5.1363,5.1976,5.2008,5.322,0.0,5.2767,5.2301,5.2107,5.2231,5.1493,5.0488,4.9269,4.92,4.8252,4.6234,4.6113,4.6406,4.7113,4.7027,4.7338,4.7907,4.5027,4.4406,0.0,0.0,0.0,0.0,0.0,0.0,0.0,0.0,0.0,0.0,0.0,0.0,0.0,0.0,0.0,4.1674,4.2632,4.3742,4.5445,4.5088,4.4849,4.5623,4.514,4.5326,4.6598,4.6729,4.7332,4.8698,4.8654,4.8956,4.9872,5.0566,5.0916,5.0855,5.2313,5.2825,5.2304,5.3549,5.4228,5.438,0.0,0.0,5.5294,5.5294,5.5294,5.5294,5.5294,5.5294,5.5294,5.5294,5.4921,5.4296,5.3399,5.3061,5.3128,5.3292,5.3341,5.3256,5.2755,5.2597,5.2511,5.2118,5.1991,5.2052,5.2157,5.2218,0.0,5.2757,5.3025,5.3242,5.3702,5.392,5.4063,5.4063,5.4063,5.4,5.3857,5.3913,5.4016,5.3905,5.4072,5.4175,5.4045,5.3695,5.3312,5.3158,5.3283,5.3397,5.341,5.3558,5.3186,5.1925,5.3203,5.3609,5.2255,5.3255,5.3937,5.3793,5.3072,5.231,5.1597,5.1563,5.1356,5.0907,5.0321,5.008,5.0235,4.9631,4.9424,4.951,4.7683,4.6993,0.0,0.0,0.0,0.0,0.0,0.0,0.0,0.0,0.0,0.0,0.0,3.8727,0.0,0.0,4.0748,4.2134,4.3025,4.4214,4.5996,4.5556,4.5351,4.6143,4.5877,4.6225,4.7577,4.7723,4.823,4.9297,4.8952,4.9106,4.9885,5.0295,5.0843,5.1664,5.2837,5.3394,5.3367,5.4111,5.4295,5.3824,5.4662,5.508,5.508,5.5488,5.5716,5.5716,5.5716,5.5716,5.5716,5.5716,5.5497,5.5108,5.4752,5.416,5.3501,5.3551,5.3601,5.355,5.3226,5.3156,5.3105,5.2925,5.2853,5.2853,5.3043,5.3169,5.3238,5.3553,5.3817,5.3966,5.4136,5.4303,5.4303,5.4257,5.4239,5.4239,5.411,5.411,5.411,5.398,5.398,5.3898,5.3849,5.3915,5.3963,5.411,5.411,5.411,5.411,5.3915,5.356,5.2793,5.3406,5.356,5.281,5.3682,5.4175,5.3963,5.3879,5.3455,5.2681,5.2743,5.2632,5.2218,5.1856,5.1666,5.1666,5.1287,5.1114,5.1097,5.0321,4.9579,0.0,0.0,0.0,0.0,0.0,0.0,0.0,0.0,3.9152,3.9176,3.9039,3.9205,3.9834,4.042,4.1204,4.2525,4.3337,4.448,4.641,4.6158,4.6082,4.6773,4.6733,4.7149,4.8429,4.8557,4.8845,4.9593,4.9077,4.9016,4.9819,4.9994,5.0628,5.1866,5.2807,5.3552,5.3902,5.4201,5.4098,5.3558,5.4399,5.4949,5.5098,5.5821,5.6139,5.6139,5.6139,5.6139,5.6139,5.5987,5.5919,5.5919,5.5784,5.4989,5.394,5.394,5.3839,5.3721,5.3721,5.3619,5.3501,5.3651,5.37,5.3717,5.3915,5.4045,5.4158,5.4093,5.4239,5.4385,5.4175,5.4093,5.4093,5.4045,5.398,5.4032,5.4168,5.4137,5.4171,5.4341,5.4226,5.4142,5.4092,5.4092,5.4124,5.3966,5.3849,5.3783,5.3915,5.3685,5.3551,5.3651,5.3618,5.3551,5.3551,5.38,5.3915,5.3766,5.4175,5.4092,5.341,5.3535,5.3322,5.2684,5.2528,5.2442,5.2442,5.2304,5.2218,5.2218,5.2218,5.158,3.4775,3.4574,3.4818,3.5383,3.6041,3.7077,0.0,0.0,4.0114,4.2524,4.2541,4.2319,4.2932,4.2677,4.2807,4.4196,4.4481,4.5039,4.6503,4.6577,4.6746,4.7413,4.6949,4.6887,4.7645,4.7707,4.8001,4.8666,4.8646,4.897,4.9681,5.0411,5.0806,5.0871,5.2381,5.2795,5.2184,5.352,5.4525,5.5236,5.5974,5.6763,5.7482,5.7645,5.7645,5.7645,5.7645,5.7645,5.7594,5.6951,5.6681,5.6613,5.597,5.5615,5.5463,5.5463,5.504,5.4465,5.4465,5.4042,5.3501,5.3651,5.37,5.3717,5.3915,5.398,5.398,5.3783,5.3915,5.398,5.3849,5.3915,5.4045,5.398,5.398,5.4168,5.4617,5.4686,5.489,5.5397,5.5602,5.5688,5.5532,5.5602,5.5281,5.3921,5.3849,5.3915,5.3766,5.3717,5.3668,5.3568,5.3601,5.3717,5.3932,5.3783,5.3832,5.4093,5.411,5.4141,5.4328,5.4374,5.4339,5.4253,5.3598,5.327,5.327,5.2563,5.2218,5.2218,5.2218,5.2132,3.6769,3.6245,3.6076,3.7887,3.8294,3.8654,4.0333,4.1056,4.1601,4.2758,4.2778,4.2769,4.3438,4.3685,4.4106,0.0,4.5526,4.6144,4.7107,4.7227,4.7434,4.8112,4.7942,4.7881,4.8158,4.8189,4.8481,4.9189,4.9235,4.9543,5.0236,5.0576,5.1209,5.2034,5.2689,5.3045,5.3123,5.3744,5.4287,5.4615,5.5489,5.6286,5.7164,5.7645,5.7881,5.7881,5.7881,5.7881,5.7865,5.756,5.7442,5.7408,5.7103,5.6985,5.6884,5.6038,5.5513,5.5243,5.5243,5.5057,5.4786,5.4838,5.4838,5.4907,5.4975,5.5043,5.5128,5.5043,5.5178,5.5212,5.5111,5.5111,5.5111,5.5043,5.4975,5.506,5.5297,5.5278,5.5397,5.5649,5.5786,5.5786,5.5716,5.5786,5.5583,5.4923,5.4907,5.4975,5.4907,5.4838,5.4838,5.4786,5.4838,5.472,5.4364,5.4363,5.4159,5.3834,5.3997,5.4175,5.4192,5.4303,5.4367,5.4512,5.4075,5.3903,5.4046,5.3718,5.3546,5.3546,5.3546,5.3546,3.7584,3.723,3.7092,3.9616,4.0173,4.0407,4.1619,4.2272,4.2653,4.287,4.2879,4.314,4.3972,4.4526,4.508,4.5757,4.6434,4.705,4.7542,4.7773,4.8065,4.8558,4.8789,4.8912,4.8912,4.8912,4.9204,4.9912,4.9959,5.0251,5.0928,5.0974,5.1599,5.291,5.2926,5.3161,5.3664,5.3852,5.4033,5.4277,5.5368,5.6384,5.721,5.8102,5.8507,5.8507,5.8507,5.8389,5.8203,5.8203,5.8068,5.7881,5.7881,5.7881,5.7763,5.6714,5.619,5.6021,5.6021,5.5886,5.5716,5.5716,5.5716,5.5716,5.5716,5.5786,5.5943,5.5943,5.5978,5.603,5.5926,5.5943,5.5856,5.5716,5.5716,5.5784,5.597,5.6021,5.6072,5.6275,5.6325,5.6325,5.6325,5.6325,5.6325,5.6325,5.6325,5.6173,5.5767,5.5716,5.5716,5.5716,5.5716,5.5497,5.4955,5.5008,5.4686,5.389,5.4156,5.4251,5.4045,5.411,5.4239,5.4431,5.4303,5.4239,5.4385,5.4367,5.4385,5.4385,5.4367,5.4448,3.6184,3.6522,3.6984,3.9031,4.0539,4.1694,4.2417,4.2571,4.2756,4.3417,4.3541,4.3941,4.528,4.5541,4.5772,4.6449,4.7127,4.7588,4.7604,4.8173,4.8589,4.862,4.9235,4.9651,0.0,4.9651,4.9943,5.062,5.0667,5.0959,5.1636,5.1682,5.1975,5.2652,5.2683,5.2683,5.2713,5.336,5.4091,5.5004,5.659,5.7755,5.8684,5.9614,6.003,6.003,6.003,5.9641,5.8981,5.8981,5.8558,5.7881,5.7881,5.7881,5.7881,5.7831,5.7374,5.6765,5.6765,5.6308,5.5716,5.5716,5.5716,5.5716,5.5716,5.5716,5.5716,5.5716,5.5716,5.5716,5.5716,5.5716,5.5716,5.5716,5.5716,5.5919,5.6613,5.6765,5.6985,5.7679,5.7814,5.7814,5.7814,5.7814,5.7814,5.7814,5.7814,5.7306,5.5902,5.5716,5.5716,5.5716,5.5716,5.57,5.5683,5.5683,5.5414,5.4822,5.4754,5.4582,5.4192,5.4045,5.4045,5.4239,5.4222,5.4175,5.398,5.4175,5.4175,5.398,5.4175,5.4222,3.8677,3.917,3.9554,4.117,4.1925,4.2448,4.3094,4.3248,4.3556,4.4679,4.4202,4.3848,4.4756,4.4556,4.4618,4.5741,4.6496,4.725,4.8142,4.8481,4.8789,4.9266,4.9543,0.0,0.0,0.0,0.0,5.1313,5.1359,5.1667,5.2344,5.2375,5.2483,5.2698,5.3144,5.3375,5.3375,5.4052,5.4805,5.5699,5.7456,5.8411,5.875,5.9682,6.0097,6.0097,6.0097,5.9962,5.9742,5.9742,5.959,5.9353,5.9353,5.9066,5.8626,5.8626,5.8152,5.7526,5.7526,5.7357,5.7154,5.7154,5.7154,5.7154,5.7154,5.7154,5.7154,5.7154,5.7154,5.7154,5.7154,5.7154,5.7154,5.7154,5.7154,5.7222,5.7476,5.7526,5.7594,5.7831,5.7881,5.7881,5.7881,5.7881,5.7881,5.7881,5.7881,5.7712,5.7222,5.7154,5.7154,5.7154,5.7154,5.6968,5.6478,5.6444,5.6122,5.5431,5.5535,5.5553,5.5383,5.5416,5.5227,5.4815,5.4781,5.4541,5.398,5.4093,5.4175,5.411,5.4303,5.4367,3.9908,4.0524,4.0924,4.2556,4.2956,4.3125,4.3771,4.411,4.4402,4.4787,4.4372,4.3987,4.4187,4.3864,4.4095,4.5695,4.6311,4.7065,4.8419,4.862,4.8881,4.9605,4.9897,5.0482,0.0,0.0,0.0,5.2021,5.2067,5.2252,5.2698,5.2944,5.3083,5.3083,5.3729,5.4083,5.4083,5.4745,5.5627,5.6821,5.7936,5.8703,5.9037,5.9981,6.041,6.041,6.0755,6.0774,6.0537,6.0537,6.0368,6.0097,6.0097,5.981,5.9404,5.9404,5.893,5.8254,5.7983,5.7881,5.7881,5.7881,5.7881,5.7881,5.7881,5.7881,5.7881,5.7881,5.7881,5.7881,5.7881,5.7881,5.7881,5.7881,5.7881,5.7881,5.7881,5.7881,5.7881,5.7881,5.7881,5.7881,5.7881,5.7881,5.7881,5.7881,5.7881,5.7881,5.7881,5.7881,5.7881,5.7881,5.7881,5.7695,5.7222,5.7188,5.6884,5.6156,5.6176,5.6197,5.6012,5.5978,5.5809,5.5417,5.545,5.5144,5.46,5.4783,5.4849,5.4717,5.5063,5.5128,4.0001,4.0739,4.1201,4.314,4.3618,4.3802,4.4479,4.5064,4.5141,4.3925,4.4079,4.4233,0.0,0.0,4.4172,4.6172,4.6557,4.7065,4.8419,4.8635,4.8943,0.0,0.0,0.0,0.0,0.0,0.0,5.2713,0.0,5.2729,5.276,5.3375,5.3745,5.3775,5.4422,5.4776,5.4776,5.5422,5.6528,5.8119,5.8211,5.8637,5.9603,6.0551,6.0986,6.1069,6.1951,6.1992,6.1366,6.1366,6.0909,6.0216,6.0216,6.0182,6.0165,6.0165,5.9691,5.8981,5.8254,5.7949,5.7881,5.7881,5.7881,5.7881,5.7881,5.7881,5.7881,5.7881,5.7881,5.7881,5.7881,5.7881,5.7881,5.7881,5.7881,5.7881,5.7881,5.7881,5.7881,5.7881,5.7881,5.7881,5.7881,5.7881,5.7881,5.7881,5.7881,5.7881,5.7881,5.7881,5.7881,5.7881,5.7881,5.7881,5.7881,5.7881,5.7594,5.69,5.6867,5.6633,5.6148,5.5905,5.5888,5.6063,5.6063,5.5977,5.5716,5.603,5.603,5.5716,5.6235,5.632,4.2956,4.3541,4.3664,4.4187,4.4326,4.4495,4.5172,4.4679,4.4279,4.4926,4.3633,4.2463,4.2786,4.2848,0.0,4.4849,4.5942,0.0,4.8419,4.9066,0.0,5.0359,0.0,5.1713,5.239,5.2606,0.0,0.0,5.2713,5.2929,5.3437,5.3637,5.3945,5.4453,5.5114,5.5453,5.5453,5.6146,5.6769,5.7131,5.7856,5.8287,5.8637,6.0296,6.0986,6.1069,6.1951,6.2279,6.211,6.211,6.1992,6.1806,6.1806,6.1484,6.0994,6.0994,6.0503,5.9793,5.9607,5.8812,5.7881,5.7881,5.7881,5.7881,5.7881,5.7881,5.7881,5.7881,5.7881,5.7881,5.7881,5.7881,5.7881,5.7881,5.7881,5.7881,5.7881,5.7881,5.7881,5.7881,5.7881,5.7881,5.7881,5.7881,5.7881,5.7881,5.7881,5.7881,5.7881,5.7881,5.7881,5.7881,5.7881,5.7881,5.7881,5.7881,5.7814,5.7628,5.7611,5.7526,5.7412,5.7484,5.723,5.6616,5.6741,5.6469,5.5716,5.5926,5.5995,5.5943,5.6184,5.6218,4.4033,4.4572,4.4572,4.4572,4.4572,4.4603,4.4679,4.4341,4.3972,4.3864,4.2879,4.2155,4.254,4.2602,4.3233,0.0,0.0,0.0,4.8419,4.9235,4.9943,0.0,5.1282,0.0,5.2652,5.2713,5.2837,0.0,5.316,5.3314,5.3698,5.4268,5.476,5.5145,5.5807,5.6161,5.6161,5.6561,5.6761,5.6761,5.7306,5.7574,5.7668,5.9072,6.0038,6.0466,6.135,6.203,6.2381,6.2381,6.2381,6.2381,6.2381,6.2144,6.1772,6.1772,6.1281,6.0639,6.0639,5.9844,5.8812,5.849,5.8389,5.8321,5.7983,5.7881,5.7881,5.7881,5.7881,5.7881,5.7881,5.7881,5.7881,5.7881,5.7881,5.7881,5.7881,5.7881,5.7881,5.7881,5.7881,5.7881,5.7881,5.7881,5.7881,5.7881,5.7881,5.7881,5.7881,5.7881,5.7881,5.7881,5.7881,5.7881,5.7881,5.7881,5.7881,5.7881,5.7881,5.7881,5.7881,5.8044,5.784,5.7289,5.7416,5.723,5.6681,5.6894,5.6894,5.6823,5.7087,5.714,4.4079,4.4572,4.4572,4.4572,4.4572,4.4433,4.3833,4.4018,4.3818,4.2094,4.2048,4.2386,4.2571,4.2602,4.3479,4.6157,0.0,4.7065,4.8419,4.9312,5.0035,5.062,5.1374,5.2067,5.2652,5.2713,5.2991,5.3668,5.3806,5.3883,5.3976,5.5068,5.573,5.5822,5.6438,5.6761,5.6761,5.6761,5.6761,5.6761,5.6761,5.6761,5.6858,5.7933,5.8818,5.9691,6.0719,6.1692,6.2381,6.2381,6.2381,6.2381,6.2381,6.2381,6.2381,6.2381,6.1992,6.145,6.145,6.0994,6.0266,5.9438,5.9167,5.9032,5.8389,5.8118,5.8034,5.8034,5.7966,5.7881,5.7881,5.7881,5.7881,5.7881,5.7881,5.7881,5.7881,5.7881,5.7881,5.7881,5.7881,5.7881,5.7881,5.7881,5.7881,5.7881,5.7881,5.7881,5.7881,5.7881,5.7881,5.7881,5.7881,5.7881,5.7881,5.7881,5.7881,5.7881,5.7881,5.7881,5.7881,5.7881,5.7881,5.7881,5.7881,5.7881,5.7881,5.8116,5.8044,5.7898,5.826,5.826,4.4326,4.4572,4.4572,4.4572,4.4572,4.4556,4.4433,4.3648,0.0,4.2509,4.1601,4.1247,4.2402,4.2602,4.3479,4.6157,4.6603,4.7065,4.8419,4.9712,5.0559,0.0,5.1775,5.259,5.2698,5.2713,0.0,0.0,5.4237,5.4791,5.5315,5.5561,5.5961,5.6561,5.67,5.6761,5.6761,5.6761,5.6761,5.6761,5.6761,5.6761,5.6858,5.8546,5.9427,5.9691,6.1432,0.0,6.2381,6.2381,6.2381,6.2381,6.2381,6.2381,6.2381,6.2381,6.2313,6.2195,6.2195,6.211,6.1755,6.0368,5.9911,5.9894,5.9759,5.9285,5.8829,5.8829,5.8372,5.7881,5.7881,5.7881,5.7881,5.7881,5.7881,5.7881,5.7881,5.7881,5.7881,5.7881,5.7881,5.7881,5.7881,5.7881,5.7881,5.7881,5.7881,5.7881,5.7881,5.7881,5.7881,5.7881,5.7881,5.7881,5.7881,5.7881,5.7881,5.7881,5.7881,5.7881,5.7881,5.7881,5.7881,5.7881,5.7881,5.7881,5.7881,5.7971,5.7954,5.7881,5.7954,5.7971,4.3464,4.4048,4.4572,4.4572,4.4572,4.431,4.3264,0.0,0.0,4.0693,3.9939,4.0016,4.1755,4.2078,4.2833,4.5172,4.6142,4.6819,4.7481,4.9374,5.0697,5.0697,5.1882,5.2713,5.2713,5.2713,5.3144,5.416,5.4545,5.5007,5.5653,5.6038,5.6407,5.6746,5.6761,5.6761,5.6761,5.6761,5.6761,5.6761,5.6761,5.6761,5.6858,5.7731,5.8712,5.9691,6.0551,6.1513,6.2381,6.2381,6.2381,6.2381,6.2381,6.2381,6.2381,6.2381,6.2381,6.2381,6.2381,6.2381,6.2262,6.1535,6.1028,6.0655,6.0233,5.986,5.9573,5.9573,5.9319,5.9032,5.9032,5.9032,5.8947,5.8558,5.8169,5.7881,5.7881,5.7881,5.7881,5.7881,5.7881,5.7881,5.7881,5.7881,5.7881,5.7881,5.7881,5.7881,5.7881,5.7881,5.7881,5.7881,5.7881,5.7881,5.7881,5.7881,5.7881,5.7881,5.7881,5.7881,5.7881,5.7881,5.7881,5.7881,5.7881,5.7881,5.7881,5.7881,5.7881,5.7881,5.7881,5.7881,4.2879,4.3787,4.4572,4.4572,4.4572,4.4048,4.2048,4.1601,4.1016,3.8939,3.8508,3.9093,4.1016,4.1247,4.1863,0.0,4.5141,4.5942,4.6511,4.8573,5.0189,5.0651,5.1759,0.0,5.2698,5.2713,0.0,5.4637,5.5007,5.5391,5.5899,5.6453,5.6761,5.6761,5.6761,5.6761,5.6761,5.6761,5.6761,5.6761,5.6761,5.6761,5.6761,5.7035,5.7917,5.9339,5.9691,6.0736,6.2127,6.2302,6.2381,6.2381,6.2381,6.2381,6.2381,6.2381,6.2381,6.2381,6.2381,6.2381,6.2381,6.2381,6.2009,6.1417,6.0774,6.0486,6.0368,6.0368,6.0233,6.0097,6.0097,6.0097,5.9945,5.9387,5.8795,5.8355,5.8355,5.8237,5.8135,5.8135,5.8,5.7881,5.7881,5.7881,5.7881,5.7881,5.7881,5.7881,5.7881,5.7881,5.7881,5.7881,5.7881,5.7881,5.7881,5.7881,5.7881,5.7881,5.7881,5.7881,5.7881,5.7881,5.7881,5.7881,5.7881,5.7881,5.7881,5.7881,5.7881,5.7881,5.7881,5.7881,4.3725,4.4495,4.4572,4.4572,4.4572,4.4048,4.2048,4.1601,4.1016,3.8939,3.8508,3.8939,4.037,4.0124,0.0,0.0,0.0,4.3818,4.6249,4.7342,4.8589,5.0482,0.0,0.0,5.2652,5.2713,5.3268,5.4637,5.5869,5.6592,5.6669,5.673,5.6761,5.6761,5.6761,5.6761,5.6761,5.6761,5.6761,5.6761,5.6761,5.6761,5.6858,5.7668,5.8211,5.8379,6.0124,6.0986,0.0,6.2047,6.2381,6.2381,6.2381,6.2381,6.2381,6.2381,6.2381,6.2381,6.2381,6.2381,6.2381,6.2381,6.233,6.2279,6.2195,6.1721,6.1197,6.1197,6.0655,6.0097,6.0097,6.0097,6.008,6.0013,5.9945,5.9894,5.9894,5.937,5.8913,5.8913,5.8355,5.7881,5.7881,5.7881,5.7881,5.7881,5.7881,5.7881,5.7881,5.7881,5.7881,5.7881,5.7881,5.7881,5.7881,5.7881,5.7881,5.7881,5.7881,5.7881,5.7881,5.7881,5.7881,5.7881,5.7881,5.7881,5.7881,5.7881,5.7881,5.7881,5.7881,5.7881,4.1355,4.3017,4.4572,4.4572,4.4572,4.3941,4.1509,4.0955,4.0262,3.78,3.7292,3.7584,3.8539,3.8492,3.8923,0.0,0.0,0.0,4.5064,4.7019,4.8835,5.0497,5.1652,5.2421,0.0,0.0,5.3268,5.4637,5.5992,5.6761,5.6761,5.6761,5.6761,5.6761,5.6761,5.6761,5.6761,5.6761,5.6761,5.6761,5.6761,5.6761,5.6858,5.7226,5.7668,5.8287,5.9603,6.0466,0.0,6.203,6.2381,6.2381,6.2381,6.2381,6.2381,6.2381,6.2381,6.2381,6.2381,6.2381,6.2381,6.2381,6.2381,6.2381,6.2381,6.2178,6.1958,6.1958,6.1721,6.1467,6.1467,6.1163,6.0825,6.0825,6.0452,5.9979,5.9539,5.9218,5.8879,5.8423,5.8101,5.7881,5.7881,5.7881,5.7881,5.7881,5.7881,5.7881,5.7881,5.7881,5.7881,5.7881,5.7881,5.7881,5.7881,5.7881,5.7881,5.7881,5.7881,5.7881,5.7881,5.7881,5.7881,5.7881,5.7881,5.7881,5.7881,5.7881,5.7881,5.7881,5.7881,5.7881,3.9939,4.1878,4.3848,4.4433,4.4279,4.3387,4.1063,4.0216,3.9277,3.6969,3.6492,3.663,3.7107,3.7369,3.7877,0.0,0.0,4.1694,4.371,4.5972,4.7927,4.9312,0.0,5.1667,5.2082,5.2667,5.3498,5.4637,5.5792,5.653,5.6746,5.6761,5.6761,5.6761,5.6761,5.6761,5.6761,5.6761,5.6761,5.6761,5.6761,5.6761,5.6761,5.6761,5.7115,5.784,5.9072,5.9952,0.0,6.187,6.2381,6.2381,6.2381,6.2381,6.2381,6.2381,6.2381,6.2381,6.2381,6.2381,6.2381,6.2381,6.2381,6.2381,6.2381,6.2381,6.2381,6.2381,6.2381,6.2381,6.2381,6.2009,6.1569,6.1349,6.0875,6.025,5.9505,5.9167,5.8863,5.8321,5.8034,5.7881,5.7881,5.7881,5.7881,5.7881,5.7881,5.7881,5.7881,5.7881,5.7881,5.7881,5.7881,5.7881,5.7881,5.7881,5.7881,5.7881,5.7881,5.7881,5.7881,5.7881,5.7881,5.7881,5.7881,5.7881,5.7881,5.7881,5.7881,5.7881,5.7881,5.7881,4.0478,4.1601,4.2109,4.4079,4.3587,4.2263,4.0847,3.9493,3.8138,3.6769,3.6492,3.6492,3.6507,3.7046,3.7723,3.8415,3.9093,0.0,4.234,4.3771,4.5126,4.648,4.7835,4.9204,5.059,5.2529,5.3991,5.4684,5.533,0.0,5.673,5.6761,5.6761,5.6761,5.6761,5.6761,5.6761,5.6761,5.6761,5.6761,5.6761,5.6761,5.6761,5.6761,5.6761,5.6954,5.8802,5.9603,0.0,6.1611,6.2381,6.2381,6.2381,6.2381,6.2381,6.2381,6.2381,6.2381,6.2381,6.2381,6.2381,6.2381,6.2381,6.2381,6.2381,6.2381,6.2381,6.2381,6.2381,6.2381,6.2381,6.2381,6.2195,6.1467,6.1298,6.1078,6.0266,5.9522,5.9015,5.8998,5.8406,5.7881,5.7881,5.7881,5.7881,5.7881,5.7881,5.7881,5.7881,5.7881,5.7881,5.7881,5.7881,5.7881,5.7881,5.7881,5.7881,5.7881,5.7881,5.7881,5.7881,5.7881,5.7881,5.7881,5.7881,5.7881,5.7881,5.7881,5.7881,5.7881,5.7881,5.7881,3.7061,3.8431,3.9739,4.0847,4.0816,4.0262,3.9354,3.8816,3.8123,3.6769,3.6492,3.6492,3.6492,3.6661,3.7184,3.8323,3.8692,3.9708,4.2248,4.4141,4.5942,4.7758,5.0005,5.159,0.0,0.0,5.4006,5.4684,5.533,5.6007,5.673,5.6761,5.6761,5.6761,5.6761,5.6761,5.6761,5.6761,5.6761,5.6761,5.6761,5.6761,5.6761,5.6761,5.6761,5.6939,5.8802,5.9603,5.9778,6.1611,6.2381,6.2381,6.2381,6.2381,6.2381,6.2381,6.2381,6.2381,6.2381,6.2381,6.2381,6.2381,6.2381,6.2296,6.1789,6.1992,6.2381,6.2381,6.2026,6.1653,6.1653,6.1231,6.0774,6.0537,6.0486,6.0283,5.9522,5.9167,5.8863,5.8338,5.8051,5.7881,5.7881,5.7881,5.7881,5.7881,5.7881,5.7881,5.7881,5.7881,5.7881,5.7881,5.7881,5.7881,5.7881,5.7881,5.7881,5.7881,5.7881,5.7881,5.7881,5.7881,5.7881,5.7881,5.7881,5.7881,5.7881,5.7881,5.7881,5.7881,5.7881,5.7881,3.5276,3.6399,3.7646,3.8846,3.8754,3.8262,3.7846,3.7554,3.7123,3.6276,3.6307,3.6492,3.6492,3.6492,3.6938,3.8292,3.8508,3.9277,4.1509,4.334,4.5311,4.7588,5.0051,0.0,0.0,5.279,5.3622,5.4299,5.4961,5.5622,5.633,5.6623,5.6761,5.6761,5.6761,5.6761,5.6761,5.6761,5.6761,5.6761,5.6761,5.6761,5.6761,5.6761,5.6761,5.6939,5.8802,5.9603,0.0,6.1611,6.2381,6.2381,6.2381,6.2381,6.2381,6.2381,6.2381,6.2347,6.2076,6.1975,6.1924,6.162,6.1518,6.1434,6.0994,6.1163,6.1518,6.1518,6.1197,6.0858,6.0858,6.0486,6.003,5.9759,5.9691,5.9488,5.8744,5.8592,5.8457,5.7983,5.7881,5.7881,5.7881,5.7881,5.7881,5.7881,5.7881,5.7881,5.7881,5.7881,5.7881,5.7881,5.7881,5.7881,5.7881,5.7881,5.7881,5.7881,5.7881,5.7881,5.7881,5.7881,5.7881,5.7881,5.7881,5.7881,5.7881,5.7881,5.7881,5.7881,5.7881,5.7881,0.0,3.526,3.5722,3.7661,3.72,3.6276,3.6338,3.5861,0.0,3.5476,3.5984,3.643,3.6476,3.6492,3.6938,3.8292,3.8508,3.8985,4.0339,4.1848,4.3787,0.0,4.8573,5.0097,5.0774,5.1975,5.2991,5.3668,5.4299,5.4961,5.5653,5.633,5.6715,5.6761,5.6761,5.6761,5.6761,5.6761,5.6761,5.6761,5.6761,5.6761,5.6761,5.6761,5.6858,0.0,5.8802,5.9603,5.9865,6.1676,6.2381,6.2381,6.2381,6.2364,6.2313,6.2313,6.2279,6.2127,6.145,6.1214,6.1095,6.0334,6.0063,6.003,6.003,6.0063,6.0097,6.0097,6.0063,6.003,6.003,5.9979,5.9776,5.9099,5.893,5.8744,5.8034,5.7881,5.7881,5.7881,5.7881,5.7881,5.7881,5.7881,5.7881,5.7881,5.7881,5.7881,5.7881,5.7881,5.7881,5.7881,5.7881,5.7881,5.7881,5.7881,5.7881,5.7881,5.7881,5.7881,5.7881,5.7881,5.7881,5.7881,5.7881,5.7881,5.7881,5.7881,5.7881,5.7881,5.7881,5.7881,3.2982,0.0,3.3352,3.4352,3.4368,3.4275,0.0,0.0,0.0,0.0,0.0,3.5876,3.6399,3.6492,3.6938,3.8292,3.8508,3.8985,4.0339,4.3048,4.5695,4.7881,4.9959,5.1498,5.2175,5.2529,5.2991,5.3668,5.3868,5.4468,5.5622,5.5853,5.6192,5.6746,5.6761,5.6761,5.6761,5.6761,5.6761,5.6761,5.6761,5.6761,5.6761,5.6761,5.7211,5.7933,5.9072,6.0038,6.0736,6.1951,6.2381,6.2381,6.2381,6.2059,6.1552,6.1552,6.1163,6.0622,6.0436,6.0385,6.0351,6.0165,5.9725,5.9268,5.9268,5.9658,6.0097,6.0097,5.9691,5.9268,5.9268,5.8846,5.8355,5.8203,5.8152,5.8101,5.7932,5.7881,5.7881,5.7881,5.7881,5.7881,5.7881,5.7881,5.7881,5.7881,5.7881,5.7881,5.7881,5.7881,5.7881,5.7881,5.7881,5.7881,5.7881,5.7881,5.7881,5.7881,5.7881,5.7881,5.7881,5.7881,5.7881,5.7881,5.7881,5.7881,5.7881,5.7881,5.7881,5.7881,5.7881,5.7881,3.2398,3.2398,3.249,3.2844,3.2936,3.3044,3.3429,0.0,0.0,0.0,0.0,3.5691,3.6368,3.6492,3.6938,3.8292,3.9031,4.0124,4.2109,4.4419,4.6616,4.8404,5.0058,5.1517,0.0,5.2713,5.2867,5.3221,5.3545,5.4037,5.4745,5.5084,5.5422,5.5807,5.6115,5.6423,5.6761,5.6761,5.6761,5.6761,5.6761,5.6761,5.6761,5.6761,5.7035,5.7574,5.8546,5.9515,6.0433,6.0984,6.127,6.1316,6.1312,6.0846,6.0164,6.0164,5.9896,5.9399,5.8624,5.8196,5.793,5.793,5.7586,5.7271,5.7271,5.788,5.8597,5.9008,5.8795,5.8507,5.8507,5.8203,5.7881,5.7881,5.7881,5.7881,5.7881,5.7881,5.7881,5.7881,5.7881,5.7881,5.7881,5.7881,5.7881,5.7881,5.7881,5.7881,5.7881,5.7881,5.7881,5.7881,5.7881,5.7881,5.7881,5.7881,5.7881,5.7881,5.7881,5.7881,5.7881,5.7881,5.7881,5.7881,5.7881,5.7881,5.7881,5.7881,5.7881,5.7881,5.7881,5.7881,3.2398,3.2398,3.2398,3.2398,3.2398,3.2398,3.2398,0.0,0.0,0.0,0.0,0.0,3.663,3.6799,0.0,3.8877,4.0262,4.1955,4.4264,4.56,4.6869,4.8383,4.965,5.1015,5.2575,5.2713,5.2713,5.2713,5.3252,5.3606,5.3714,5.4268,5.4622,5.473,5.5268,5.5838,5.6453,5.6654,5.6761,5.6761,5.6761,5.67,5.6592,5.6592,5.6627,5.6725,5.7526,5.8393,5.9302,5.948,5.9581,5.958,5.9683,5.9192,5.8441,5.8441,5.8375,5.8096,5.6727,5.5798,5.5296,5.5296,5.5296,5.5296,5.5296,5.5876,5.6768,5.7497,5.7808,5.7881,5.7881,5.7881,5.7881,5.7881,5.7881,5.7881,5.7881,5.7881,5.7881,5.7881,5.7881,5.7881,5.7881,5.7881,5.7881,5.7881,5.7881,5.7881,5.7881,5.7881,5.7881,5.7881,5.7881,5.7881,5.7881,5.7881,5.7881,5.7881,5.7881,5.7881,5.7881,5.7881,5.7881,5.7881,5.7881,5.7881,5.7881,5.7881,5.7881,5.7881,5.7881,5.7881,3.2398,3.2398,3.2398,3.2398,3.2398,3.2398,3.2398,0.0,0.0,0.0,0.0,0.0,0.0,3.82,3.9031,0.0,0.0,4.4035,0.0,0.0,4.7015,4.8217,0.0,5.1221,5.259,5.2713,5.2713,5.2713,5.2806,5.3114,5.3698,5.3822,5.4129,5.4714,5.4822,5.493,5.5037,5.6176,5.6761,5.6761,5.6761,5.6438,5.5853,5.5853,5.5984,5.623,0.0,5.6997,5.7826,5.7897,5.7832,5.79,5.7885,5.7461,5.6759,5.6759,5.6368,5.5767,5.5572,5.5377,5.5296,5.5296,5.5296,5.5296,5.5296,5.5876,5.6614,5.6768,5.7331,5.7881,5.7881,5.7881,5.7881,5.7881,5.7881,5.7881,5.7881,5.7881,5.7881,5.7881,5.7881,5.7881,5.7881,5.7881,5.7881,5.7881,5.7881,5.7881,5.7881,5.7881,5.7881,5.7881,5.7881,5.7881,5.7881,5.7881,5.7881,5.7881,5.7881,5.7881,5.7881,5.7881,5.7881,5.7881,5.7881,5.7881,5.7881,5.7881,5.7881,5.7881,5.7881,5.7881,3.2398,3.2398,3.2567,3.3321,3.2952,3.2398,3.2398,0.0,0.0,0.0,0.0,0.0,0.0,0.0,3.9647,4.311,0.0,4.5926,4.6521,4.715,4.7901,0.0,0.0,5.0892,5.2067,5.2498,5.2713,5.2713,5.2713,5.2852,5.316,5.3175,5.3314,5.3637,5.3991,5.4191,5.4191,5.5161,5.5669,5.5669,5.5669,5.5499,5.5176,5.5176,5.5271,5.5314,5.5314,5.5915,5.6717,5.6333,5.6173,5.6226,5.6263,5.5825,5.5101,5.5101,5.4587,5.3938,5.3938,5.3938,5.4008,5.4485,5.4248,5.4094,5.4968,5.5539,5.6034,5.6459,5.7256,5.7881,5.7881,5.7881,5.7881,5.7881,5.7881,5.7881,5.7881,5.7881,5.7881,5.7881,5.7881,5.7881,5.7881,5.7881,5.7881,5.7881,5.7881,5.7881,5.7881,5.7881,5.7881,5.7881,5.7881,5.7881,5.7881,5.7881,5.7881,5.7881,5.7881,5.7881,5.7881,5.7881,5.7881,5.7881,5.7881,5.7881,5.7881,5.7881,5.7881,5.7881,5.7881,5.7881,3.2398,3.2398,3.2659,3.3721,3.3429,3.3013,3.3475,0.0,0.0,0.0,0.0,0.0,0.0,3.9847,0.0,4.4095,4.5849,4.725,4.8368,4.8453,4.8714,4.9505,5.0079,5.0754,5.1636,5.2313,5.2713,5.2713,5.2713,5.2713,5.2713,5.2713,5.2713,5.2713,5.3221,5.3483,5.3483,5.4006,5.4422,5.473,5.473,5.4653,5.4499,5.4499,5.4406,5.4253,5.4253,5.4681,5.5307,5.4668,5.4449,5.4577,5.4608,5.4232,5.3664,5.3664,5.3274,5.2713,5.2713,5.2713,5.2788,5.3505,5.3274,5.2951,5.4248,5.4803,5.5215,5.6034,5.692,5.7645,5.7881,5.7881,5.7881,5.7881,5.7881,5.7881,5.7881,5.7881,5.7881,5.7881,5.7881,5.7881,5.7881,5.7881,5.7881,5.7881,5.7881,5.7881,5.7881,5.7881,5.7881,5.7881,5.7881,5.7881,5.7881,5.7881,5.7881,5.7881,5.7881,5.7881,5.7881,5.7881,5.7881,5.7881,5.7881,5.7881,5.7881,5.7881,5.7881,5.7881,5.7881,5.7881,3.2398,3.2398,3.2413,3.2521,3.3444,0.0,3.6707,3.7661,0.0,3.9016,0.0,0.0,0.0,4.3833,4.4972,4.4633,4.6249,4.7707,4.8278,0.0,4.8782,4.9304,5.0079,5.0959,5.1636,5.2313,5.2713,5.2713,5.2713,5.2713,5.2713,5.2713,5.2713,5.2713,5.276,5.279,5.279,5.2837,5.3483,5.473,5.473,5.4406,5.3791,5.3791,5.3452,5.2852,5.2852,5.2852,5.2927,5.288,5.2865,5.2849,5.2893,5.2877,5.2788,5.2788,5.2788,5.2713,5.2713,5.2713,5.2713,5.2788,5.2788,5.2698,5.2877,5.3434,5.4317,5.5133,5.6034,5.6861,5.7718,5.7881,5.7881,5.7881,5.7881,5.7881,5.7881,5.7881,5.7881,5.7881,5.7881,5.7881,5.7881,5.7881,5.7881,5.7881,5.7881,5.7881,5.7881,5.7881,5.7881,5.7881,5.7881,5.7881,5.7881,5.7881,5.7881,5.7881,5.7881,5.7881,5.7881,5.7881,5.7881,5.7881,5.7881,5.7881,5.7881,5.7881,5.7881,5.7881,5.7881,5.7881,3.2398,3.3029,3.3891,3.4722,3.566,0.0,0.0,3.7415,3.8708,3.9385,4.0062,0.0,0.0,0.0,4.5634,4.5803,4.6834,4.7835,4.8429,4.8537,4.8712,4.8806,4.9551,5.0328,5.1005,5.1682,5.2252,5.2683,5.2713,5.2713,5.2713,5.2713,5.2713,5.2713,5.2713,5.2713,5.2713,5.2713,5.296,5.3483,5.3483,5.3345,5.3098,5.3098,5.296,5.2713,5.2713,5.2713,5.2713,5.2713,5.2713,5.2713,5.2713,5.2713,5.2713,5.2713,5.2713,5.2713,5.2713,5.2713,5.2788,5.3346,5.3098,5.2877,5.4008,5.4569,5.4968,5.5876,5.6768,5.748,5.7808,5.7881,5.7881,5.7881,5.7881,5.7881,5.7881,5.7881,5.7881,5.7881,5.7881,5.7881,5.7881,5.7881,5.7881,5.7881,5.7881,5.7881,5.7881,5.7881,5.7881,5.7881,5.7881,5.7881,5.7881,5.7881,5.7881,5.7881,5.7881,5.7881,5.7881,5.7881,5.7881,5.7881,5.7881,5.7881,5.7881,5.7881,5.7881,5.7881,5.7881,5.7881,3.2398,3.3413,3.4691,0.0,0.0,0.0,3.723,3.7984,3.9139,4.0262,4.1186,0.0,4.2509,0.0,0.0,0.0,4.6573,4.7527,4.8204,4.8481,4.862,4.862,4.9251,4.9866,5.0328,5.1174,5.1898,5.2359,5.259,5.2713,5.2713,5.2713,5.2713,5.2713,5.2713,5.2713,5.2713,5.2713,5.2713,5.2713,5.2713,5.2713,5.2713,5.2713,5.2713,5.2713,5.2713,5.2713,5.2713,5.2713,5.2713,5.2713,5.2713,5.2713,5.2713,5.2713,5.2713,5.2713,5.2713,5.2713,5.2788,5.3434,5.3186,5.2951,5.4094,5.4653,5.5051,5.5955,5.6844,5.7571,5.7808,5.7881,5.7881,5.7881,5.7881,5.7881,5.7881,5.7881,5.7881,5.7881,5.7881,5.7881,5.7881,5.7881,5.7881,5.7881,5.7881,5.7881,5.7881,5.7881,5.7881,5.7881,5.7881,5.7881,5.7881,5.7881,5.7881,5.7881,5.7881,5.7881,5.7881,5.7881,5.7881,5.7881,5.7881,5.7881,5.7881,5.7881,5.7881,5.7881,5.7881,5.7881,3.2413,3.3444,3.4506,0.0,0.0,0.0,4.037,4.0016,4.0124,4.2171,4.3648,4.4172,4.2848,4.3694,0.0,4.3694,4.528,4.6819,4.7511,4.8173,4.8604,4.8604,4.9235,4.9682,4.9682,5.0897,5.1682,5.1698,5.2313,5.2698,5.2698,5.2713,5.2713,5.2713,5.2713,5.2713,5.2713,5.2713,5.2713,5.2713,5.2713,5.2713,5.2713,5.2713,5.2713,5.2713,5.2713,5.2713,5.2713,5.2713,5.2713,5.2713,5.2713,5.2713,5.2713,5.2713,5.2713,5.2713,5.2713,5.2713,5.2713,5.2713,5.2713,5.2713,5.2713,5.3362,5.4232,5.5051,5.5955,5.6784,5.7645,5.7881,5.7881,5.7881,5.7881,5.7881,5.7881,5.7881,5.7881,5.7881,5.7881,5.7881,5.7881,5.7881,5.7881,5.7881,5.7881,5.7881,5.7881,5.7881,5.7881,5.7881,5.7881,5.7881,5.7881,5.7881,5.7881,5.7881,5.7881,5.7881,5.7881,5.7881,5.7881,5.7881,5.7881,5.7881,5.7881,5.7881,5.7881,5.7881,5.7881,5.7881,3.386,3.5553,0.0,3.7307,0.0,0.0,0.0,4.077,0.0,0.0,4.2971,4.4172,4.2848,4.3694,0.0,4.4941,4.5495,4.6126,4.6803,4.7481,4.7912,4.7912,4.8512,4.9127,4.9635,5.0051,5.0482,5.0959,5.1621,5.2006,5.2006,5.2452,5.2713,5.2713,5.2713,5.2713,5.2713,5.2713,5.2713,5.2713,5.2713,5.2713,5.2713,5.2713,5.2713,5.2713,5.2713,5.2713,5.2713,5.2713,5.2713,5.2713,5.2713,5.2713,5.2713,5.2713,5.2713,5.2713,5.2713,5.2713,5.2713,5.2713,5.3113,5.3577,5.3577,5.4653,5.5876,5.6129,5.6844,5.7571,5.7808,5.7881,5.7881,5.7881,5.7881,5.7881,5.7881,5.7881,5.7881,5.7881,5.7881,5.7881,5.7881,5.7881,5.7881,5.7881,5.7881,5.7881,5.7881,5.7881,5.7881,5.7881,5.7881,5.7881,5.7881,5.7881,5.7881,5.7881,5.7881,5.7881,5.7881,5.7881,5.7881,5.7881,5.7881,5.7881,5.7881,5.7881,5.7881,5.7881,5.7881,5.7881,3.4475,3.6445,0.0,3.8508,3.9431,4.0447,4.0863,0.0,0.0,0.0,4.3079,4.4326,4.3541,4.4048,0.0,4.5126,4.5418,4.5726,4.6142,4.6773,4.7204,4.7204,4.7573,4.7989,4.8419,4.8696,4.902,4.9435,5.0097,5.0482,5.0482,5.0867,5.1082,5.1082,5.1082,5.1082,5.1082,5.1082,5.1236,5.1513,5.1513,5.1652,5.1929,5.2467,5.2713,5.2713,5.2713,5.2713,5.2698,5.2421,5.2313,5.2283,5.2021,5.1913,5.1913,5.1913,5.1913,5.1913,5.1913,5.1913,5.1913,5.1913,5.2219,5.2777,5.3102,5.4148,5.5275,5.5676,5.6385,5.7019,5.7019,5.7239,5.7526,5.7814,5.7881,5.7881,5.7881,5.7881,5.7881,5.7881,5.7881,5.7881,5.7881,5.7881,5.7881,5.7881,5.7881,5.7881,5.7881,5.7881,5.7881,5.7881,5.7881,5.7881,5.7881,5.7881,5.7881,5.7881,5.7881,5.7881,5.7881,5.7881,5.7881,5.7881,5.7881,5.7881,5.7881,5.7881,5.7881,5.7881,5.7881,5.7881,3.4629,3.6538,3.8539,3.8662,4.0201,0.0,4.1694,4.2263,4.2709,4.2463,0.0,4.4541,4.4418,4.4495,4.4572,4.4572,4.5095,4.5495,4.5495,4.608,4.6511,4.6511,4.6557,4.6603,4.6603,4.7157,4.7511,4.7511,4.8142,4.8527,4.8527,4.8573,4.862,4.862,4.862,4.862,4.862,4.862,4.8943,4.9589,4.9589,4.9912,5.0543,5.1913,5.2529,5.2529,5.2529,5.2529,5.2483,5.1867,5.1621,5.1559,5.0928,5.0697,5.0697,5.0697,5.0697,5.0697,5.0697,5.0697,5.0697,5.0697,5.0768,5.0925,5.1789,5.2653,5.3518,5.4295,5.508,5.5716,5.5716,5.6207,5.6867,5.7526,5.7797,5.7881,5.7881,5.7881,5.7881,5.7881,5.7881,5.7881,5.7881,5.7881,5.7881,5.7881,5.7881,5.7881,5.7881,5.7881,5.7881,5.7881,5.7881,5.7881,5.7881,5.7881,5.7881,5.7881,5.7881,5.7881,5.7881,5.7881,5.7881,5.7881,5.7881,5.7881,5.7881,5.7881,5.7881,5.7881,5.7881,5.7881,3.5768,3.7261,0.0,0.0,4.1247,4.2386,4.2386,4.331,4.3556,4.1417,4.2894,4.4264,4.3217,4.3879,4.4572,4.4572,4.4695,4.4803,4.4803,4.5372,4.5803,4.5803,4.6265,4.6603,4.6603,4.6726,4.6819,4.6819,4.745,4.7819,4.7819,4.8327,4.862,4.862,4.862,4.862,4.862,4.862,4.8696,4.885,4.885,4.8912,4.9112,5.0497,5.1128,5.1128,5.1128,5.1128,5.1113,5.0974,5.0913,5.0897,5.0759,5.0697,5.0697,5.0697,5.0697,5.0697,5.0697,5.0697,5.0697,5.0697,5.1165,5.1887,5.2653,5.3502,5.437,5.5152,5.5559,5.5716,5.5716,5.5835,5.5987,5.6156,5.7053,5.7881,5.7881,5.7881,5.7881,5.7881,5.7881,5.7881,5.7881,5.7881,5.7881,5.7881,5.7881,5.7881,5.7881,5.7881,5.7881,5.7881,5.7881,5.7881,5.7881,5.7881,5.7881,5.7881,5.7881,5.7881,5.7881,5.7881,5.7881,5.7881,5.7881,5.7881,5.7881,5.7881,5.7881,5.7881,5.7881,5.7881,3.6122,0.0,0.0,4.0185,0.0,4.2602,4.2602,4.3633,4.4172,4.2756,4.3587,4.4372,4.3679,4.411,4.4572,4.4572,4.4572,4.4572,4.4572,4.488,4.511,4.511,4.5418,4.5634,4.5634,4.5634,4.5634,4.5634,4.5957,4.6157,4.6157,4.6496,4.668,4.668,4.668,4.668,4.668,4.668,4.685,4.7157,4.7157,4.7342,4.7696,4.9066,4.9697,4.9697,4.9697,4.9697,4.9666,4.9358,4.9404,4.9666,4.9343,4.942,4.9697,4.9697,4.9697,4.9697,4.9697,4.9697,4.9697,4.9697,5.0253,5.112,5.1956,5.2794,5.3634,5.4426,5.4668,5.4668,5.4668,5.4921,5.5175,5.5175,5.6038,5.685,5.685,5.685,5.685,5.685,5.712,5.7357,5.7357,5.7662,5.7881,5.7881,5.7881,5.7881,5.7881,5.7881,5.7881,5.7881,5.7881,5.7881,5.7881,5.7881,5.7881,5.7881,5.7881,5.7881,5.7881,5.7881,5.7881,5.7881,5.7881,5.7881,5.7881,5.7881,5.7881,5.7881,5.7881,5.7881,3.5768,0.0,3.8831,4.0185,4.1586,0.0,4.2602,4.3633,4.4572,4.4572,4.4572,4.4572,4.4572,4.4572,4.4572,4.4572,4.4572,4.4572,4.4572,4.4572,4.4572,4.4572,4.4572,4.4572,4.4572,4.4572,4.4572,4.4572,4.4572,4.4572,4.4572,4.4572,4.4572,4.4572,4.4572,4.4572,4.4572,4.4572,4.4864,4.5418,4.5418,4.5711,4.628,4.7404,4.805,4.8266,4.8266,4.8266,4.8219,4.7665,4.7758,4.8204,4.765,4.7773,4.8266,4.8266,4.8266,4.8266,4.8266,4.8266,4.8266,4.8266,4.8739,4.9536,5.039,5.1263,5.2125,5.3025,5.3348,5.3501,5.3501,5.3957,5.4397,5.4397,5.4888,5.5412,5.5666,5.5716,5.5716,5.5716,5.6207,5.6613,5.6613,5.7222,5.7695,5.7695,5.7814,5.7881,5.7881,5.7881,5.7881,5.7881,5.7881,5.7881,5.7881,5.7881,5.7881,5.7881,5.7881,5.7881,5.7881,5.7881,5.7881,5.7881,5.7881,5.7881,5.7881,5.7881,5.7881,5.7881,5.7881,5.7881,3.4368,0.0,3.8831,0.0,4.1586,4.2602,0.0,0.0,4.4572,0.0,4.4572,4.4572,4.4572,4.4572,4.4572,4.4572,4.4572,4.4572,4.4572,4.4572,4.4572,4.4572,4.4572,4.4572,4.4572,4.4572,4.4572,4.4572,4.4572,4.4572,4.4572,4.4572,4.4572,4.4572,4.4572,4.4572,4.4572,4.4572,4.4618,4.471,4.471,4.4756,4.4849,4.5033,4.5757,4.6865,4.6865,4.6865,4.6865,4.6773,4.6788,4.6865,4.6757,4.6788,4.6865,4.6865,4.6865,4.6865,4.6865,4.6865,4.6865,4.6865,4.6945,4.7276,4.8669,4.9652,5.0611,5.2037,5.2972,5.3501,5.3501,5.3568,5.3653,5.3653,5.3721,5.4143,5.5446,5.5716,5.5716,5.5716,5.5801,5.5869,5.5869,5.6461,5.6951,5.6951,5.7492,5.7881,5.7881,5.7881,5.7881,5.7881,5.7881,5.7881,5.7881,5.7881,5.7881,5.7881,5.7881,5.7881,5.7881,5.7881,5.7881,5.7881,5.7881,5.7881,5.7881,5.7881,5.7881,5.7881,5.7881,5.7881,3.4091,3.6445,3.8646,0.0,4.0739,4.214,4.2525,4.334,4.4125,4.4495,4.4572,4.4572,4.4572,4.4572,4.4572,4.4572,4.4572,4.4572,4.4572,4.4572,4.4572,4.4572,4.4572,4.4572,4.4572,4.4572,4.4572,4.4572,4.4572,4.4572,4.4572,4.4572,4.4572,4.4572,4.4572,4.4572,4.4572,4.4572,4.4572,4.4572,4.4572,4.4572,4.4572,4.4572,4.491,4.5464,4.5464,4.5464,4.5464,4.5464,4.5695,4.6034,4.6034,4.6265,4.6603,4.6603,4.6603,4.6603,4.6603,4.6603,4.6603,4.6603,4.7169,4.8025,4.8685,4.973,5.0807,5.1463,5.1933,5.2317,5.2723,5.2841,5.2942,5.3399,5.3501,5.3687,5.4346,5.4482,5.46,5.5006,5.5091,5.5209,5.5649,5.5987,5.619,5.619,5.6816,5.7273,5.7273,5.7628,5.7881,5.7881,5.7881,5.7881,5.7881,5.7881,5.7881,5.7881,5.7881,5.7881,5.7881,5.7881,5.7881,5.7881,5.7881,5.7881,5.7881,5.7881,5.7881,5.7881,5.7881,5.7881,0.0,0.0,3.7646,3.8338,3.9801,4.1294,0.0,0.0,4.351,4.4187,4.4326,4.4372,4.4541,4.4572,4.4572,4.4572,4.4572,4.4572,4.4572,4.4572,4.4572,4.4572,4.4572,4.4572,4.4572,4.4572,4.4572,4.4572,4.4572,4.4572,4.4572,4.4572,4.4572,4.4572,4.4572,4.4572,4.4572,4.4572,4.4572,4.4572,4.4572,4.4572,4.4572,4.4572,4.4572,4.4572,4.4572,4.4572,4.4572,4.4572,4.488,4.5341,4.5341,4.5634,4.608,4.608,4.608,4.608,4.608,4.608,4.608,4.608,4.6868,4.7837,4.8013,4.9136,5.0409,5.0593,5.0924,5.1352,5.1894,5.2029,5.2181,5.2773,5.3061,5.3247,5.3467,5.3501,5.367,5.4211,5.4313,5.4499,5.5057,5.531,5.5429,5.5429,5.6055,5.6528,5.6528,5.7002,5.7408,5.7594,5.7611,5.7695,5.7865,5.7881,5.7881,5.7881,5.7881,5.7881,5.7881,5.7881,5.7881,5.7881,5.7881,5.7881,5.7881,5.7881,5.7881,5.7881,5.7881,5.7881,0.0,3.4568,0.0,3.7861,3.9077,3.9985,0.0,0.0,4.2833,4.3479,4.3618,4.3818,4.4464,4.4572,4.4572,4.4572,4.4572,4.4572,4.4572,4.4572,4.4572,4.4572,4.4572,4.4572,4.4572,4.4572,4.4572,4.4572,4.4572,4.4572,4.4572,4.4572,4.4572,4.4572,4.4572,4.4572,4.4572,4.4572,4.4572,4.4572,4.4572,4.4572,4.4572,4.4572,4.4572,4.4572,4.4572,4.4572,4.4572,4.4572,4.4603,4.4633,4.4633,4.4649,4.4679,4.4679,4.4679,4.4679,4.4679,4.4679,4.4679,4.4679,4.4756,4.4939,4.5588,4.6845,4.8183,4.8865,5.0055,5.1217,5.1268,5.1268,5.1285,5.1319,5.186,5.257,5.3348,5.3501,5.3518,5.3551,5.3568,5.3568,5.3619,5.4194,5.4651,5.4651,5.5294,5.5784,5.5784,5.5801,5.6089,5.6782,5.6867,5.7137,5.7831,5.7881,5.7881,5.7881,5.7881,5.7881,5.7881,5.7881,5.7881,5.7881,5.7881,5.7881,5.7881,5.7881,5.7881,5.7881,5.7881,5.7881,0.0,0.0,0.0,3.5676,3.6753,3.7815,3.8754,3.9831,4.0816,4.1478,4.2325,4.3033,4.3264,4.4002,4.4572,4.4572,4.4572,4.4572,4.4572,4.4572,4.4572,4.4572,4.4572,4.4572,4.4572,4.4572,4.4572,4.4572,4.4572,4.4572,4.4572,4.4572,4.4572,4.4572,4.4572,4.4572,4.4572,4.4572,4.4572,4.4572,4.4572,4.4572,4.4572,4.4572,4.4572,4.4572,4.4572,4.4572,4.4572,4.4572,4.4572,4.4572,4.4572,4.4572,4.4572,4.4572,4.4572,4.4572,4.4572,4.4572,4.4572,4.4572,4.4933,4.5468,4.6126,4.7114,4.805,4.8729,4.9382,4.9915,5.0371,5.049,5.0608,5.1099,5.142,5.1809,5.257,5.3145,5.3501,5.3501,5.3501,5.3501,5.3501,5.3721,5.389,5.389,5.4515,5.4989,5.4989,5.5412,5.5818,5.6089,5.6105,5.6207,5.6478,5.6494,5.6494,5.6494,5.6494,5.6494,5.6494,5.6494,5.6494,5.6494,5.6494,5.6951,5.7881,5.7881,5.7881,5.7881,5.7881,5.7881,3.2398,0.0,0.0,0.0,3.5153,3.6045,3.6953,3.82,3.937,4.0047,4.1294,4.234,4.2571,4.3325,4.3987,4.4202,4.4233,4.431,4.4541,4.4572,4.4572,4.4572,4.4572,4.4572,4.4572,4.4572,4.4572,4.4572,4.4572,4.4572,4.4572,4.4572,4.4572,4.4572,4.4572,4.4572,4.4572,4.4572,4.4572,4.4572,4.4572,4.4572,4.4572,4.4572,4.4572,4.4572,4.4572,4.4572,4.4572,4.4572,4.4572,4.4572,4.4572,4.4572,4.4572,4.4572,4.4572,4.4572,4.4572,4.4572,4.4648,4.4858,4.5274,4.5841,4.6604,4.7355,4.8015,4.8513,4.8798,4.912,4.9593,4.9729,4.9915,5.0659,5.0845,5.1031,5.1775,5.2553,5.3179,5.345,5.3501,5.3501,5.3501,5.3501,5.3501,5.3501,5.3923,5.4228,5.4228,5.4668,5.5074,5.531,5.5344,5.5446,5.57,5.5716,5.5716,5.5716,5.5716,5.5716,5.5716,5.5716,5.5716,5.5716,5.5716,5.619,5.7154,5.7154,5.7154,5.7154,5.7154,5.7289,0.0,0.0,0.0,0.0,0.0,3.4768,3.6122,3.7446,3.86,3.9339,4.057,4.1724,4.2417,4.254,4.2756,4.3402,4.3525,4.3771,4.4433,4.4526,4.4526,4.4526,4.4541,4.4556,4.4556,4.4572,4.4572,4.4572,4.4572,4.4572,4.4572,4.4572,4.4572,4.4572,4.4572,4.4572,4.4572,4.4572,4.4572,4.4572,4.4572,4.4572,4.4572,4.4572,4.4572,4.4572,4.4572,4.4572,4.4572,4.4572,4.4572,4.4572,4.4572,4.4572,4.4572,4.4572,4.4572,4.4648,4.4648,4.4648,4.4783,4.5494,4.5697,4.5841,4.6604,4.7355,4.7885,4.795,4.845,4.9001,4.9001,4.9001,4.9187,4.9898,5.005,5.027,5.1014,5.1742,5.2486,5.3315,5.3467,5.3467,5.3501,5.3501,5.3501,5.3501,5.3501,5.3501,5.3501,5.3501,5.3771,5.4482,5.4566,5.4854,5.5581,5.5649,5.5649,5.5649,5.5649,5.5649,5.5649,5.5649,5.5649,5.5649,5.5649,5.5649,5.5649,5.57,5.5716,5.5716,5.5716,5.6089,3.2398,0.0,0.0,0.0,0.0,0.0,3.4722,3.5322,3.6199,3.8354,3.9093,3.9724,4.0893,4.1109,4.134,4.2032,4.2556,4.294,4.3125,4.3156,4.3156,4.3156,4.3556,4.3848,4.3848,4.4295,4.4572,4.4572,4.4572,4.4572,4.4572,4.4572,4.4572,4.4572,4.4572,4.4572,4.4572,4.4572,4.4572,4.4572,4.4723,4.4723,4.4572,4.4723,4.4723,4.4572,4.4572,4.4648,4.4799,4.4648,4.4572,4.4572,4.4572,4.4572,4.4572,4.4572,4.4933,4.5421,4.5421,4.5769,4.6182,4.6394,4.6464,4.6604,4.7339,4.7754,4.8032,4.8513,4.8861,4.9001,4.9001,4.9001,4.9052,4.9255,4.9306,4.9509,5.0253,5.0557,5.1082,5.2384,5.2638,5.2824,5.3399,5.3501,5.3501,5.3501,5.3501,5.3501,5.3501,5.3501,5.3585,5.3788,5.3805,5.389,5.4093,5.4126,5.4126,5.4126,5.4126,5.4126,5.4126,5.4126,5.4126,5.4126,5.4126,5.4126,5.4126,5.5192,5.5716,5.5716,5.5716,5.5818,0.0,0.0,0.0,0.0,0.0,0.0,3.3429,3.406,3.5076,3.723,3.7677,3.8077,3.9431,3.9231,3.917,4.0155,4.0632,4.1294,4.2448,4.2602,4.2602,4.2602,4.294,4.3171,4.3171,4.3525,4.3864,4.4141,4.4156,4.4279,4.4572,4.4572,4.4572,4.4572,4.4572,4.4572,4.4572,4.4572,4.4572,4.4572,4.4723,4.4723,4.4572,4.4799,4.4799,4.4723,4.4814,4.4889,4.5039,4.4889,4.4814,4.4723,4.4648,4.4572,4.4572,4.4572,4.4858,4.5216,4.5216,4.5494,4.5969,4.6604,4.6811,4.7017,4.8032,4.837,4.845,4.8861,4.9001,4.9001,4.9001,4.9001,4.9001,4.9001,4.9001,4.912,4.9543,4.9644,5.0084,5.1555,5.2097,5.2452,5.2926,5.3281,5.3501,5.3501,5.3501,5.3501,5.3501,5.3501,5.3501,5.3501,5.3501,5.3501,5.3501,5.3501,5.3501,5.3501,5.3501,5.3501,5.3501,5.3501,5.3501,5.3501,5.3501,5.3501,5.3501,5.4363,5.4786,5.4786,5.4786,5.4955,0.0,0.0,0.0,0.0,0.0,0.0,3.2422,3.3347,3.4627,3.6122,3.6322,3.6676,3.8031,3.7307,3.6892,3.8092,3.8415,3.9416,4.2017,4.2371,4.2371,4.2371,4.2448,4.2494,4.2494,4.2556,4.2921,4.3491,4.3522,4.3784,4.4401,4.4493,4.4464,4.4464,4.4541,4.4572,4.4572,4.4648,4.4648,4.4648,4.4648,4.4663,4.4648,4.4874,4.4949,4.4949,4.5129,4.522,4.522,4.522,4.5055,4.4964,4.4739,4.4663,4.4648,4.4648,4.4648,4.4723,4.4723,4.4799,4.5067,4.6464,4.6949,4.7153,4.8593,4.9001,4.9001,4.9001,4.9001,4.9001,4.9001,4.9001,4.9001,4.9001,4.9001,4.9001,4.9001,4.9001,4.939,5.071,5.1555,5.208,5.2164,5.2841,5.3365,5.3365,5.345,5.3501,5.3501,5.3501,5.3501,5.3501,5.3501,5.3501,5.3501,5.3501,5.3501,5.3501,5.3501,5.3501,5.3501,5.3501,5.3501,5.3501,5.3501,5.3501,5.3501,5.3501,5.3501,5.3501,5.3501,5.3856,0.0,0.0,0.0,0.0,0.0,0.0,3.2493,3.2416,3.2872,3.5481,3.5424,3.5336,3.6801,3.6723,3.6631,3.7018,3.7864,3.9077,4.0709,4.094,4.094,4.094,4.1447,4.1857,4.1968,4.2447,4.2891,4.3158,4.3174,4.3149,4.3144,4.3669,4.3905,4.3771,4.4295,4.4572,4.4572,4.4723,4.4874,4.4874,4.5204,4.5204,4.5055,4.5278,4.5278,4.5129,4.522,4.5294,4.5442,4.5294,4.522,4.5129,4.507,4.4964,4.4874,4.4874,4.5142,4.5494,4.5494,4.5841,4.6534,4.7422,4.7688,4.7819,4.8719,4.9001,4.9001,4.9001,4.9001,4.9001,4.9001,4.9001,4.9001,4.9001,4.9001,4.9001,4.9001,4.9001,4.9086,4.9373,5.0016,5.071,5.1319,5.2046,5.2536,5.2536,5.3095,5.3501,5.3501,5.3501,5.3501,5.3501,5.3501,5.3501,5.3501,5.3501,5.3501,5.3501,5.3501,5.3501,5.3501,5.3501,5.3501,5.3501,5.3501,5.3501,5.3501,5.3501,5.3501,5.3501,5.3501,5.3585,0.0,0.0,0.0,3.0838,0.0,0.0,0.0,3.1482,3.1824,3.3933,3.3432,3.3082,3.4488,3.4136,3.3919,3.4627,3.553,3.6631,3.8008,3.9529,4.0524,4.0524,4.0847,4.1063,4.1171,4.155,4.2015,4.2568,4.2911,4.3043,4.2972,4.3298,4.3412,4.334,4.3681,4.4022,4.4363,4.4437,4.4697,4.5039,4.5278,4.5294,4.522,4.5442,4.5442,4.5368,4.5442,4.5589,4.5662,4.5515,4.5515,4.5515,4.5294,4.5129,4.5039,4.5039,4.5437,4.5969,4.5841,4.6308,4.6968,4.7671,4.7885,4.8032,4.8798,4.9001,4.9001,4.9001,4.9001,4.9001,4.9001,4.9001,4.9001,4.9001,4.9001,4.9001,4.9001,4.9001,4.9001,4.9001,4.9306,4.9779,5.0524,5.1268,5.1758,5.1758,5.2418,5.2909,5.2909,5.3264,5.3501,5.3501,5.3501,5.3501,5.3501,5.3501,5.3501,5.3501,5.3501,5.3501,5.3501,5.3501,5.3501,5.3501,5.3501,5.3501,5.3501,5.3501,5.3501,5.3501,5.3501,5.3501,0.0,0.0,0.0,0.0,0.0,3.0498,0.0,0.0,0.0,3.2076,3.1509,3.113,3.2257,3.1571,3.1099,3.2101,3.2998,3.3964,3.4976,3.7575,3.9514,3.9776,3.9807,3.9915,4.0245,4.0712,4.1221,4.1987,4.2535,4.2778,4.2778,4.2919,4.2927,4.2911,4.3036,4.3379,4.3925,4.394,4.4299,4.5091,4.5091,4.5153,4.5294,4.5515,4.5589,4.5589,4.5735,4.5807,4.5807,4.5807,4.5807,4.5735,4.5442,4.5294,4.5294,4.5294,4.5599,4.5969,4.5857,4.6182,4.6763,4.7406,4.7754,4.808,4.8656,4.894,4.9063,4.9001,4.9001,4.9001,4.9001,4.9001,4.9001,4.9001,4.9001,4.9001,4.9001,4.9001,4.9001,4.9001,4.9001,4.9187,4.9779,5.0507,5.0997,5.0997,5.1623,5.2097,5.2097,5.279,5.3281,5.3281,5.3416,5.3501,5.3501,5.3501,5.3501,5.3501,5.3501,5.3501,5.3501,5.3501,5.3501,5.3501,5.3501,5.3501,5.3501,5.3501,5.3501,5.3501,5.3501,5.3501,0.0,0.0,0.0,0.0,2.9265,0.0,0.0,0.0,3.016,3.0448,0.0,3.0885,3.1127,0.0,0.0,3.0378,3.1779,3.2803,3.2488,3.4207,3.5929,3.7141,3.7297,3.7841,3.9296,4.0682,4.1554,4.1633,4.1712,4.1692,4.1476,4.2103,4.2379,4.2209,4.2786,4.3145,4.3223,4.3365,4.3796,4.447,4.4685,4.5104,4.5735,4.5735,4.575,4.5735,4.5807,4.5807,4.5807,4.5807,4.5807,4.5823,4.5735,4.5589,4.5442,4.5442,4.5426,4.5352,4.5278,4.5352,4.5541,4.6214,4.7355,4.8353,4.8306,4.8719,4.9168,4.9063,4.9001,4.9001,4.9001,4.9001,4.9001,4.9001,4.9001,4.9001,4.9001,4.9001,4.9001,4.9001,4.9001,4.9035,4.912,4.9729,5.0219,5.0219,5.0862,5.1336,5.1336,5.1995,5.2435,5.2435,5.3078,5.3501,5.3501,5.3501,5.3501,5.3501,5.3501,5.3501,5.3501,5.3501,5.3501,5.3501,5.3501,5.3501,5.3501,5.3501,5.3501,5.3501,5.3501,5.3501,0.0,0.0,0.0,0.0,0.0,0.0,2.9264,0.0,2.9486,0.0,0.0,0.0,0.0,0.0,0.0,0.0,3.0492,3.1231,3.0998,3.2002,3.3427,3.5428,3.6066,3.7077,3.9141,3.9157,3.9409,4.0309,4.0372,4.0308,4.0243,4.1299,4.1913,4.183,4.2113,4.2459,4.2884,4.2968,4.3299,4.3961,4.4062,4.4496,4.5175,4.5175,4.5412,4.5807,4.5807,4.5807,4.5807,4.5807,4.5807,4.5807,4.5807,4.5735,4.5662,4.5662,4.5848,4.6143,4.6464,4.688,4.7355,4.795,4.8543,4.9012,4.8968,4.9152,4.935,4.9168,4.9124,4.9107,4.9001,4.9001,4.9001,4.9001,4.9001,4.9001,4.9001,4.9001,4.9001,4.9001,4.9001,4.9001,4.9001,4.9255,4.9458,4.9458,5.0084,5.0557,5.0557,5.1217,5.1843,5.2249,5.2604,5.2993,5.3467,5.3501,5.3501,5.3501,5.3501,5.3501,5.3501,5.3501,5.3501,5.3501,5.3551,5.3601,5.3601,5.3734,5.38,5.3817,5.3568,5.3501,3.1697,0.0,0.0,0.0,0.0,0.0,0.0,0.0,0.0,0.0,0.0,0.0,0.0,0.0,0.0,0.0,0.0,2.9753,2.939,2.9927,3.1218,3.3513,3.4623,3.59,3.7773,3.7364,3.755,3.8855,3.895,3.9108,3.9487,4.0467,4.1193,4.1573,4.1588,4.1841,4.2378,4.2394,4.2726,4.3406,4.3437,4.3801,4.4448,4.4433,4.4717,4.5254,4.5428,4.5507,4.5523,4.5728,4.5807,4.5807,4.5992,4.6048,4.6048,4.6048,4.6372,4.688,4.7473,4.8015,4.856,4.8951,4.9212,4.9333,4.9212,4.935,4.9488,4.929,4.9229,4.9229,4.9185,4.9124,4.9063,4.9063,4.9001,4.9001,4.9001,4.9001,4.9063,4.9001,4.9001,4.9063,4.9001,4.9001,4.9001,4.9001,4.9458,4.9796,4.9796,5.0439,5.1116,5.164,5.2063,5.2536,5.3129,5.3382,5.3501,5.3501,5.3501,5.3501,5.3551,5.3551,5.3551,5.3635,5.3734,5.3766,5.3766,5.3915,5.398,5.398,5.3751,5.3635,0.0,0.0,0.0,3.2898,0.0,0.0,0.0,0.0,2.9075,0.0,0.0,0.0,0.0,0.0,0.0,0.0,0.0,0.0,0.0,2.7778,2.8979,3.1047,3.2566,3.3688,3.4399,3.5663,3.6753,3.7496,3.7543,3.8112,3.9424,3.9534,4.0182,4.1541,4.1588,4.1604,4.1636,4.1636,4.1983,4.271,4.271,4.309,4.3753,4.3722,4.3737,4.3816,4.4464,4.4749,4.4796,4.5523,4.5807,4.5864,4.6496,4.6742,4.6742,4.6742,4.6742,4.688,4.7622,4.7885,4.795,4.795,4.8383,4.8883,4.8526,4.8995,4.9649,4.929,4.935,4.9488,4.9488,4.935,4.9168,4.9168,4.9107,4.9001,4.9001,4.9107,4.9168,4.9001,4.9107,4.9168,4.9001,4.9001,4.9001,4.9001,4.9018,4.9035,4.9035,4.9678,5.0135,5.0152,5.1454,5.2317,5.2334,5.3061,5.3501,5.3501,5.3501,5.3551,5.3717,5.37,5.3783,5.398,5.398,5.398,5.398,5.3997,5.398,5.398,5.398,5.398,3.4494,3.4336,3.4099,3.4573,0.0,0.0,0.0,0.0,0.0,0.0,0.0,0.0,0.0,0.0,0.0,0.0,0.0,0.0,0.0,2.8237,2.8347,2.9058,2.9975,3.1349,3.3435,3.3245,3.364,3.5252,3.5363,3.6184,3.8065,3.9013,4.0151,4.1541,4.1588,4.1588,4.1588,4.1588,4.1715,4.1952,4.1952,4.2347,4.3042,4.3451,4.3891,4.4423,4.5015,4.531,4.5359,4.6075,4.6369,4.6484,4.7225,4.7556,4.7556,4.7556,4.7556,4.7622,4.8319,4.8855,4.9273,4.9273,4.9471,4.959,4.9471,4.9666,4.986,4.959,4.959,4.959,4.953,4.9488,4.935,4.9229,4.9168,4.9107,4.9001,4.9063,4.9063,4.9001,4.9107,4.9168,4.9107,4.9229,4.9246,4.9001,4.9001,4.9001,4.9001,4.9221,4.956,5.0033,5.0541,5.1298,5.238,5.3292,5.38,5.38,5.38,5.3866,5.3915,5.3915,5.3915,5.398,5.411,5.411,5.4093,5.4239,5.4303,5.4303,5.4303,5.4175,3.5884,3.5774,3.5505,3.6011,3.4699,3.3198,3.2787,0.0,3.0607,0.0,0.0,0.0,0.0,0.0,0.0,0.0,0.0,0.0,0.0,2.8275,2.8056,2.8311,2.8459,2.9402,3.1602,3.1278,3.155,3.3056,3.3339,3.4536,3.6975,3.8146,3.9731,4.1901,4.1964,4.1964,4.1964,4.172,4.1588,4.1588,4.1588,4.1841,4.2299,4.27,4.3267,4.3978,4.4655,4.5006,4.5322,4.6016,4.6314,4.638,4.7461,4.7872,4.7922,4.8172,4.84,4.8748,4.9118,4.959,5.0011,5.0011,5.0011,5.0011,4.9935,4.9935,4.9935,4.9784,4.9767,4.9801,4.9683,4.9607,4.953,4.9411,4.935,4.9229,4.9124,4.9124,4.9185,4.9063,4.9168,4.929,4.929,4.9411,4.9428,4.9185,4.9185,4.9185,4.9185,4.9185,4.9372,4.9831,5.0136,5.09,5.2524,5.3232,5.369,5.3963,5.398,5.4045,5.4045,5.4045,5.411,5.4192,5.4239,5.4303,5.4303,5.4448,5.4512,5.4512,5.4512,5.4367]},{"header":{"parameterUnit":"m.s-1","parameterCategory":1,"la1":30.6,"la2":29.2853,"lo1":-89.7004,"lo2":-87.6739,"dy":0.0162,"dx":0.0183,"nx":112,"ny":82,"refTime":"2023-09-09T06:00:00:Z","depth":0,"parameterNumber":3,"parameterNumberName":"V-component_of_WINDS"},"data":[0.0,0.0,0.0,0.0,0.0,0.0,0.0,0.0,0.0,0.0,0.0,0.0,0.0,0.0,0.0,0.0,0.0,0.0,0.0,0.0,0.0,0.0,0.0,0.0,0.0,0.0,0.0,0.0,0.0,0.0,0.0,0.0,0.0,0.0,0.0,0.0,0.0,0.0,0.0,0.0,0.0,0.0,0.0,0.0,0.0,0.0,0.0,0.0,0.0,0.0,0.0,0.0,0.0,0.0,0.0,0.0,0.0,0.0,0.0,0.0,0.0,0.0,0.0,0.0,0.0,0.0,0.0,0.0,0.0,0.0,0.0,0.0,0.0,0.0,0.0,0.0,0.0,0.0,0.0,0.0,0.0,0.0,0.0,0.0,0.0,0.0,0.0,0.0,0.0,0.0,1.4897,1.5077,1.5538,1.5832,1.5832,1.5832,1.5331,1.4162,0.0,0.0,0.0,0.0,0.0,0.0,0.0,0.0,0.0,0.0,0.0,0.0,0.0,0.0,0.0,0.0,0.0,0.0,0.0,0.0,0.0,0.0,0.0,0.0,0.0,0.0,0.0,0.0,0.0,0.0,0.0,0.0,0.0,0.0,0.0,0.0,0.0,0.0,0.0,0.0,0.0,0.0,0.0,0.0,0.0,0.0,0.0,0.0,0.0,0.0,0.0,0.0,0.0,0.0,0.0,0.0,0.0,0.0,0.0,0.0,0.0,0.0,0.0,0.0,0.0,0.0,0.0,0.0,0.0,0.0,0.0,0.0,0.0,0.0,0.0,0.0,0.0,0.0,0.0,0.0,0.0,0.0,0.0,0.0,0.0,0.0,0.0,0.0,0.0,0.0,0.0,0.0,0.0,0.0,0.0,0.0,0.0,0.0,0.0,0.0,0.0,0.0,0.0,0.0,1.4603,1.5591,1.5772,1.5832,1.5832,1.5832,1.5331,1.4162,0.0,0.0,0.0,0.0,0.0,0.0,0.0,0.0,0.0,0.0,0.0,0.0,0.0,0.0,0.0,0.0,0.0,0.0,0.0,0.0,0.0,0.0,0.0,0.0,0.0,0.0,0.0,0.0,0.0,0.0,0.0,0.0,0.0,0.0,0.0,0.0,0.0,0.0,0.0,0.0,0.0,0.0,0.0,0.0,0.0,0.0,0.0,0.0,0.0,0.0,0.0,0.0,0.0,0.0,0.0,0.0,0.0,0.0,0.0,0.0,0.0,0.0,0.0,0.0,0.0,0.0,0.0,0.0,0.0,0.0,0.0,0.0,0.0,0.0,0.0,0.0,0.0,0.0,0.0,0.0,0.0,0.0,0.0,0.0,0.0,0.0,0.0,0.0,0.0,0.0,0.0,0.0,0.0,0.0,0.0,0.0,0.0,0.0,0.0,0.0,0.0,0.0,0.0,1.4202,1.489,1.5738,1.5832,1.5832,1.5832,1.5832,1.5331,1.4162,1.4088,0.0,0.0,0.0,0.0,0.0,0.0,0.0,0.0,0.0,0.0,0.0,0.0,0.0,0.0,0.0,0.0,0.0,0.0,0.0,0.0,0.0,0.0,0.0,0.0,0.0,0.0,0.0,0.0,0.0,0.0,0.0,0.0,0.0,0.0,0.0,0.0,0.0,0.0,0.0,0.0,0.0,0.0,0.0,0.0,0.0,0.0,0.0,0.0,0.0,0.0,0.0,0.0,0.0,0.0,0.0,0.0,0.0,0.0,0.0,0.0,0.0,0.0,0.0,0.0,0.0,0.0,0.0,0.0,0.0,0.0,0.0,0.0,0.0,0.0,0.0,0.0,0.0,0.0,0.0,0.0,0.0,0.0,0.0,0.0,0.0,0.0,0.0,0.0,0.0,0.0,0.0,0.0,0.0,0.0,0.0,0.0,0.0,0.0,0.0,0.0,0.0,0.0,1.4723,1.5337,1.5785,1.5832,1.5832,1.5832,1.5705,1.5184,1.4155,1.3955,0.0,0.0,0.0,0.0,0.0,0.0,0.0,0.0,0.0,0.0,0.0,0.0,0.0,0.0,0.0,0.0,0.0,0.0,0.0,0.0,0.0,0.0,0.0,0.0,0.0,0.0,0.0,0.0,0.0,0.0,0.0,0.0,0.0,0.0,0.0,0.0,0.0,0.0,0.0,0.0,0.0,0.0,0.0,0.0,0.0,0.0,0.0,0.0,0.0,0.0,0.0,0.0,0.0,0.0,0.0,0.0,0.0,0.0,0.0,0.0,0.0,0.0,0.0,0.0,0.0,0.0,0.0,0.0,0.0,0.0,0.0,0.0,0.0,0.0,0.0,0.0,0.0,0.0,0.0,0.0,0.0,0.0,0.0,0.0,0.0,0.0,0.0,0.0,0.0,0.0,0.0,0.0,0.0,0.0,0.0,0.0,0.0,0.0,0.0,0.0,0.0,0.0,1.507,1.5785,1.5825,1.5832,1.5832,1.5832,1.5337,1.4756,1.4128,1.3574,0.0,0.0,0.0,0.0,0.0,0.0,0.0,0.0,0.0,0.0,0.0,0.0,0.0,0.0,0.0,0.0,0.0,0.0,0.0,0.0,0.0,0.0,0.0,0.0,0.0,0.0,0.0,0.0,0.0,0.0,0.0,0.0,0.0,0.0,0.0,0.0,0.0,0.0,0.0,0.0,0.0,0.0,0.0,0.0,0.0,0.0,0.0,0.0,0.0,0.0,0.0,0.0,0.0,0.0,0.0,0.0,0.0,0.0,0.0,0.0,0.0,0.0,0.0,0.0,0.0,0.0,0.0,0.0,0.0,0.0,0.0,0.0,0.0,0.0,0.0,0.0,0.0,0.0,0.0,0.0,0.0,0.0,0.0,0.0,0.0,0.0,0.0,0.0,0.0,0.0,0.0,0.0,0.0,0.0,0.0,0.0,0.0,0.0,0.0,0.0,0.0,0.0,1.5383,1.5886,0.0,1.723,1.744,1.744,1.7042,1.6444,1.5712,0.0,0.0,0.0,0.0,0.0,0.0,0.0,0.0,0.0,0.0,0.0,0.0,0.0,0.0,0.0,0.0,0.0,0.0,0.0,0.0,0.0,0.0,0.0,0.0,0.0,0.0,0.0,0.0,0.0,0.0,0.0,0.0,0.0,0.0,0.0,0.0,0.0,0.0,0.0,0.0,0.0,0.0,0.0,0.0,0.0,0.0,0.0,0.0,0.0,0.0,0.0,0.0,0.0,0.0,0.0,0.0,0.0,0.0,0.0,0.0,0.0,0.0,0.0,0.0,0.0,0.0,0.0,0.0,0.0,0.0,0.0,0.0,0.0,0.0,0.0,0.0,0.0,0.0,0.0,0.0,0.0,0.0,0.0,0.0,0.0,0.0,0.0,0.0,0.0,0.0,0.0,0.0,0.0,0.0,0.0,0.0,0.0,0.0,0.0,0.0,0.0,0.0,1.5797,1.6458,1.7276,0.0,1.8739,1.8867,1.8867,1.8555,1.7825,1.6684,0.0,0.0,0.0,0.0,0.0,0.0,0.0,0.0,0.0,0.0,0.0,0.0,0.0,0.0,0.0,0.0,0.0,0.0,0.0,0.0,0.0,0.0,0.0,0.0,0.0,0.0,0.0,0.0,0.0,0.0,0.0,0.0,0.0,0.0,0.0,0.0,0.0,0.0,0.0,0.0,0.0,0.0,0.0,0.0,0.0,0.0,0.0,0.0,0.0,0.0,0.0,0.0,0.0,0.0,0.0,0.0,0.0,0.0,0.0,0.0,0.0,0.0,0.0,0.0,0.0,0.0,0.0,0.0,0.0,0.0,0.0,0.0,0.0,0.0,0.0,0.0,0.0,0.0,0.0,0.0,0.0,0.0,0.0,0.0,0.0,0.0,0.0,0.0,0.0,0.0,0.0,0.0,0.0,0.0,0.0,0.0,0.0,0.0,0.0,0.0,0.0,0.0,1.6587,1.8606,2.0047,2.0047,2.0047,2.0047,2.0047,1.9483,1.8403,0.0,0.0,0.0,0.0,0.0,0.0,0.0,0.0,0.0,0.0,0.0,0.0,0.0,0.0,0.0,0.0,0.0,0.0,0.0,0.0,0.0,0.0,0.0,0.0,0.0,0.0,0.0,0.0,0.0,0.0,0.0,0.0,0.0,0.0,0.0,0.0,0.0,0.0,0.0,0.0,0.0,0.0,0.0,0.0,0.0,0.0,0.0,0.0,0.0,0.0,0.0,0.0,0.0,0.0,0.0,0.0,0.0,0.0,0.0,0.0,0.0,0.0,0.0,0.0,0.0,0.0,0.0,0.0,0.0,0.0,0.0,0.0,0.0,0.0,0.0,0.0,0.0,0.0,0.0,0.0,0.0,0.0,0.0,0.0,0.0,0.0,0.0,0.0,0.0,0.0,0.0,0.0,0.0,0.0,0.0,0.0,0.0,0.0,0.0,0.0,0.0,0.0,0.0,1.7565,1.9185,2.0597,2.1285,2.1626,2.1795,2.1795,2.143,2.0429,1.8435,0.0,0.0,0.0,0.0,0.0,0.0,0.0,0.0,0.0,0.0,0.0,0.0,0.0,0.0,0.0,0.0,0.0,0.0,0.0,0.0,0.0,0.0,0.0,0.0,0.0,0.0,0.0,0.0,0.0,0.0,0.0,0.0,0.0,0.0,0.0,0.0,0.0,0.0,0.0,0.0,0.0,0.0,0.0,0.0,0.0,0.0,0.0,0.0,0.0,0.0,0.0,0.0,0.0,0.0,0.0,0.0,0.0,0.0,0.0,0.0,0.0,0.0,0.0,0.0,0.0,0.0,0.0,0.0,0.0,0.0,0.0,0.0,0.0,0.0,0.0,0.0,0.0,0.0,0.0,0.0,0.0,0.0,0.0,0.0,0.0,0.0,0.0,0.0,0.0,0.0,0.0,0.0,0.0,0.0,0.0,0.0,0.0,0.0,0.0,0.0,0.0,0.0,1.8402,2.052,2.2175,2.2769,2.2988,2.3138,2.3138,2.3008,2.2136,2.0187,0.0,0.0,0.0,0.0,0.0,0.0,0.0,0.0,0.0,0.0,0.0,0.0,0.0,0.0,0.0,0.0,0.0,0.0,0.0,0.0,0.0,0.0,0.0,0.0,0.0,0.0,0.0,0.0,0.0,0.0,0.0,0.0,0.0,0.0,0.0,0.0,0.0,0.0,0.0,0.0,0.0,0.0,0.0,0.0,0.0,0.0,0.0,0.0,0.0,0.0,0.0,0.0,0.0,0.0,0.0,0.0,0.0,0.0,0.0,0.0,0.0,0.0,0.0,0.0,0.0,0.0,0.0,0.0,0.0,0.0,0.0,0.0,0.0,0.0,0.0,0.0,0.0,0.0,0.0,0.0,0.0,0.0,0.0,0.0,0.0,0.0,0.0,0.0,0.0,0.0,0.0,0.0,0.0,0.0,0.0,0.0,0.0,0.0,0.0,0.0,0.0,0.0,1.909,2.2057,2.4152,2.4152,2.4152,2.4152,2.4152,2.4152,2.3492,2.1709,0.0,0.0,0.0,0.0,0.0,0.0,0.0,0.0,0.0,0.0,0.0,0.0,0.0,0.0,0.0,0.0,0.0,0.0,0.0,0.0,0.0,0.0,0.0,0.0,0.0,0.0,0.0,0.0,0.0,0.0,0.0,0.0,0.0,0.0,0.0,0.0,0.0,0.0,0.0,0.0,0.0,0.0,0.0,0.0,0.0,0.0,0.0,0.0,0.0,0.0,0.0,0.0,0.0,0.0,0.0,0.0,0.0,0.0,0.0,0.0,1.7999,0.0,0.0,0.0,0.0,0.0,0.0,0.0,0.0,0.0,0.0,0.0,0.0,0.0,0.0,0.0,0.0,0.0,0.0,0.0,0.0,0.0,0.0,0.0,0.0,0.0,0.0,0.0,0.0,0.0,0.0,0.0,0.0,0.0,0.0,0.0,0.0,0.0,0.0,0.0,0.0,0.0,1.9123,2.2057,2.4152,2.4152,2.4152,2.4152,2.4152,2.4152,2.3492,2.1709,2.2102,0.0,0.0,0.0,0.0,0.0,0.0,0.0,0.0,0.0,0.0,0.0,0.0,0.0,0.0,0.0,0.0,0.0,0.0,0.0,0.0,0.0,0.0,0.0,0.0,0.0,0.0,0.0,0.0,0.0,0.0,0.0,0.0,0.0,0.0,0.0,0.0,0.0,0.0,0.0,0.0,0.0,0.0,0.0,0.0,0.0,0.0,0.0,0.0,0.0,0.0,0.0,0.0,0.0,0.0,0.0,0.0,0.0,0.0,0.0,0.0,1.8109,0.0,0.0,0.0,0.0,0.0,0.0,0.0,0.0,0.0,0.0,0.0,0.0,0.0,0.0,0.0,0.0,0.0,0.0,0.0,0.0,0.0,0.0,0.0,0.0,0.0,0.0,0.0,0.0,0.0,0.0,0.0,0.0,0.0,0.0,0.0,0.0,0.0,0.0,0.0,0.0,2.017,2.2584,2.4152,2.4152,2.4152,2.4152,2.4152,2.4152,2.3763,2.2938,2.2867,0.0,0.0,0.0,0.0,0.0,0.0,0.0,0.0,0.0,0.0,0.0,0.0,0.0,0.0,0.0,0.0,0.0,0.0,0.0,0.0,0.0,0.0,0.0,0.0,0.0,0.0,0.0,0.0,0.0,0.0,0.0,0.0,0.0,0.0,0.0,0.0,0.0,0.0,0.0,0.0,0.0,0.0,0.0,0.0,0.0,0.0,0.0,0.0,0.0,0.0,0.0,0.0,0.0,2.0366,2.0448,2.0457,2.0872,2.0943,2.0879,1.9742,1.9806,2.0631,1.9301,0.0,0.0,0.0,0.0,0.0,0.0,0.0,0.0,0.0,0.0,0.0,0.0,0.0,0.0,0.0,0.0,0.0,0.0,0.0,0.0,0.0,0.0,0.0,0.0,1.9488,1.9463,1.8269,0.0,0.0,0.0,0.0,0.0,0.0,0.0,0.0,0.0,0.0,0.0,2.138,2.3143,2.4152,2.4152,2.4152,2.4152,2.4152,2.4152,2.4152,2.4152,2.3529,2.2763,0.0,0.0,0.0,0.0,0.0,0.0,0.0,0.0,0.0,0.0,0.0,0.0,0.0,0.0,0.0,0.0,0.0,0.0,0.0,0.0,0.0,0.0,0.0,0.0,0.0,0.0,0.0,0.0,0.0,0.0,0.0,0.0,1.7758,1.867,0.0,0.0,0.0,0.0,0.0,0.0,0.0,0.0,0.0,0.0,0.0,0.0,0.0,2.0503,2.1677,2.148,2.1848,2.2805,2.287,2.2898,2.2898,2.2954,2.2797,2.2584,2.1713,0.0,2.1566,2.1346,0.0,0.0,0.0,0.0,0.0,0.0,0.0,0.0,0.0,0.0,0.0,0.0,0.0,0.0,0.0,0.0,0.0,0.0,0.0,0.0,0.0,0.0,2.2101,2.2303,2.2366,2.2348,0.0,2.0038,1.8067,1.7798,1.8064,0.0,0.0,0.0,0.0,0.0,0.0,0.0,2.1544,2.3143,2.4152,2.4152,2.4152,2.4152,2.4152,2.4152,2.4152,2.4152,2.4051,2.3996,2.3889,2.2513,0.0,0.0,0.0,0.0,0.0,0.0,0.0,0.0,0.0,0.0,0.0,0.0,0.0,0.0,0.0,0.0,0.0,0.0,0.0,0.0,0.0,0.0,0.0,0.0,0.0,0.0,0.0,0.0,0.0,1.752,1.8561,1.9794,1.9333,1.8714,0.0,0.0,0.0,0.0,0.0,0.0,0.0,0.0,0.0,2.1674,2.1618,2.2023,2.295,2.2859,2.3046,2.3486,2.373,2.3843,2.3861,2.4087,2.4094,2.3988,2.3625,2.3466,2.3392,2.2207,2.1741,2.1667,0.0,0.0,0.0,0.0,1.948,1.9254,1.9424,1.9742,1.9982,1.9739,0.0,0.0,0.0,0.0,0.0,0.0,0.0,1.9488,0.0,0.0,2.2142,2.2981,2.3455,2.3629,2.3629,2.2577,2.1212,0.0,2.0095,2.002,1.9297,0.0,0.0,0.0,0.0,2.2327,2.3591,2.4399,2.484,2.484,2.484,2.484,2.484,2.484,2.484,2.484,2.4629,2.451,2.451,2.3628,2.2602,0.0,0.0,0.0,0.0,0.0,0.0,0.0,0.0,0.0,0.0,0.0,0.0,0.0,0.0,0.0,0.0,0.0,0.0,0.0,0.0,0.0,0.0,0.0,0.0,0.0,0.0,0.0,0.0,1.8618,1.9495,2.0855,2.0404,2.0038,0.0,0.0,0.0,0.0,0.0,0.0,2.0967,2.1436,2.2122,2.3147,2.3085,2.3448,2.4089,2.4203,2.425,2.426,2.4697,2.4897,2.4906,2.521,2.5254,2.5244,2.5244,2.5244,2.514,2.3308,2.2538,2.251,2.2207,2.1756,2.1204,2.1016,2.0979,2.0998,2.1108,2.1539,2.2052,2.2052,2.2116,2.2062,2.1301,0.0,0.0,0.0,0.0,2.0466,2.1057,2.1569,2.2271,2.3459,2.4015,2.4317,2.4317,2.439,2.3926,0.0,2.2144,2.2162,2.1296,0.0,0.0,0.0,0.0,2.3625,2.5149,2.5372,2.5372,2.5372,2.5372,2.5372,2.5372,2.5372,2.5372,2.5372,2.5096,2.4931,2.4931,2.4537,2.3718,2.2417,0.0,0.0,0.0,0.0,0.0,0.0,0.0,0.0,0.0,0.0,0.0,0.0,0.0,0.0,0.0,0.0,0.0,0.0,0.0,0.0,0.0,0.0,0.0,0.0,0.0,0.0,0.0,0.0,0.0,2.1161,2.2007,0.0,0.0,0.0,0.0,2.1189,2.1218,2.1683,2.2737,2.2824,2.3502,2.4932,2.4706,2.4833,2.5168,2.5372,2.5672,2.5881,2.6304,2.6497,2.6506,2.6516,2.6423,2.6106,2.6106,2.6106,2.604,2.5168,2.4711,2.4635,2.3636,2.3206,2.3122,2.2465,2.2236,2.2291,2.2694,2.2765,2.2802,2.2802,2.3048,2.3308,2.2437,2.2455,0.0,0.0,2.2135,2.2747,2.2784,2.3377,2.407,2.4115,2.4445,2.4748,2.4748,2.5041,2.506,0.0,2.44,2.4327,2.3496,0.0,2.4838,2.4225,2.4785,2.5298,2.5362,2.5372,2.5372,2.5372,2.5372,2.5372,2.5372,2.5372,2.5372,2.5372,2.5353,2.5335,2.5335,2.4959,2.473,2.4693,2.345,0.0,0.0,0.0,0.0,0.0,0.0,0.0,0.0,0.0,0.0,0.0,0.0,0.0,0.0,0.0,0.0,0.0,0.0,0.0,0.0,0.0,0.0,0.0,0.0,0.0,0.0,0.0,0.0,2.1541,2.2102,0.0,2.2282,2.2466,2.2409,2.2083,2.3092,2.3871,2.4079,2.4733,2.5353,2.5908,2.6083,2.6206,2.6352,2.6507,2.6584,2.6686,2.6841,2.691,2.691,2.691,2.6807,2.6695,2.6695,2.6695,2.6676,2.6377,2.604,2.5699,2.5296,2.5092,2.4883,2.4644,2.4479,2.4308,2.4455,2.451,2.451,2.451,2.4601,2.4666,2.4372,2.439,2.4445,2.4152,2.428,2.451,2.451,2.4721,2.4941,2.4941,2.5051,2.5161,2.5161,2.5271,2.5289,2.4996,2.506,2.5069,2.4766,2.5078,2.5353,2.5317,2.5564,2.5848,2.6114,2.6151,2.6151,2.6151,2.6151,2.6151,2.6151,2.6151,2.6151,2.6151,2.5894,2.5748,2.5748,2.5372,2.5041,2.4785,2.4354,2.3483,0.0,0.0,0.0,0.0,0.0,0.0,0.0,0.0,0.0,0.0,0.0,0.0,0.0,0.0,0.0,0.0,0.0,0.0,0.0,0.0,0.0,0.0,0.0,0.0,0.0,0.0,2.1511,2.2007,2.2611,2.3036,2.319,2.3509,2.3725,2.3832,2.4925,2.547,2.5518,2.618,2.6602,2.6602,2.6875,2.709,2.7236,2.7373,2.7519,2.7656,2.7812,2.7871,2.7871,2.7871,2.7871,2.7871,2.7871,2.7871,2.7871,2.7871,2.766,2.7276,2.6597,2.6182,2.5881,2.5787,2.558,2.5372,2.5372,2.5372,2.5372,2.5372,2.5372,2.5372,2.5372,2.5372,2.5372,2.5372,2.5372,2.5372,2.5372,2.5372,2.5372,2.5372,2.5472,2.5564,2.5564,2.5784,2.5986,2.5986,2.5757,2.5482,2.5216,2.5289,2.5408,2.5546,2.5564,2.5711,2.6123,2.6417,2.6591,2.6591,2.683,2.693,2.6793,2.6664,2.6591,2.6591,2.6188,2.6023,2.616,2.5527,2.5051,2.4785,2.4372,2.3565,2.2346,0.0,0.0,0.0,0.0,0.0,0.0,0.0,0.0,0.0,0.0,0.0,0.0,0.0,0.0,0.0,0.0,0.0,0.0,0.0,0.0,0.0,0.0,0.0,2.1291,2.2456,2.3076,2.2656,2.3654,2.4516,2.4774,2.5012,2.5469,2.6338,2.6406,2.6592,2.7012,2.7051,2.706,2.707,2.709,2.7295,2.7725,2.8125,2.8535,2.8945,2.9365,2.957,2.957,2.957,2.957,2.957,2.957,2.957,2.957,2.957,2.957,2.9404,2.7419,2.6567,2.6257,2.5965,2.5758,2.5445,2.5427,2.5427,2.5427,2.5408,2.5408,2.5408,2.5408,2.5408,2.5408,2.5427,2.5427,2.5427,2.5436,2.5445,2.5445,2.5445,2.5738,2.6013,2.6013,2.6637,2.7196,2.7196,2.6554,2.5775,2.5005,2.5197,2.5317,2.4931,2.4876,0.0,2.5399,2.6133,2.6619,2.6591,2.7297,2.76,2.7196,2.683,2.6628,2.6628,2.6233,2.6178,2.6591,2.5463,2.4831,2.4821,2.362,2.3085,2.3556,0.0,0.0,0.0,0.0,0.0,0.0,0.0,0.0,0.0,0.0,0.0,0.0,0.0,0.0,0.0,0.0,0.0,0.0,0.0,0.0,0.0,0.0,2.2881,2.2736,2.2921,2.3407,2.4239,2.4643,2.5185,2.5849,2.6025,2.625,2.6807,2.6846,2.7031,2.7461,2.7773,2.8086,2.8389,2.8701,2.8926,2.9043,2.916,2.9277,2.9394,2.9512,2.957,2.957,2.957,2.957,2.957,2.957,2.957,2.957,2.957,2.957,2.9521,2.8943,2.8539,2.832,2.822,2.7889,2.7401,2.6893,2.6683,2.6637,2.6344,2.6252,2.6252,2.6252,2.6252,2.6316,2.66,2.6683,2.6747,2.7031,2.7105,2.7105,2.7105,2.7187,2.727,2.727,2.7444,2.7609,2.7609,2.7426,2.7196,2.6985,2.704,2.7068,2.6958,2.6949,0.0,2.7095,2.7297,2.7224,2.6646,2.7297,2.749,2.6811,2.7178,2.7444,2.7444,2.7068,2.6894,2.7013,2.6417,2.5949,2.5647,2.4445,2.3877,0.0,0.0,0.0,0.0,0.0,0.0,0.0,0.0,0.0,0.0,0.0,0.0,0.0,0.0,0.0,0.0,0.0,0.0,0.0,0.0,0.0,0.0,2.383,2.4686,2.4555,2.4346,2.457,2.5508,2.5615,2.5898,2.6582,2.665,2.6894,2.75,2.8048,2.8629,2.9263,2.9427,2.9677,2.9928,2.9757,2.9658,2.9834,2.9834,2.9932,3.0117,3.0117,3.0117,3.0117,3.0117,3.0117,3.0117,3.0117,3.0117,3.0117,3.0117,3.0117,0.0,0.0,0.0,0.0,0.0,2.8672,2.8295,2.7949,2.7865,2.7716,2.7382,2.7308,2.7197,2.7188,2.7077,2.7132,2.7361,2.7426,2.7481,2.771,2.7765,2.7765,2.7765,2.7765,2.7765,2.7765,2.7902,2.8031,2.8031,2.8275,0.0,2.8501,2.7833,2.7215,2.704,2.7124,2.7179,2.7251,2.7789,2.792,2.7354,2.8143,2.8471,2.7828,2.8052,0.0,0.0,0.0,2.7124,2.6683,2.6444,0.0,0.0,0.0,2.4244,2.4418,2.395,0.0,0.0,2.1901,2.1261,0.0,0.0,0.0,0.0,0.0,0.0,0.0,0.0,0.0,0.0,0.0,0.0,0.0,0.0,0.0,0.0,2.5035,2.6434,2.6577,2.6409,2.631,2.6606,2.6744,2.7032,2.7508,2.7558,2.7915,2.8787,2.9887,3.0778,3.1636,0.0,0.0,0.0,0.0,3.0005,3.0492,3.0437,3.0557,3.0967,3.1016,3.1035,3.1035,3.1035,3.1035,3.1035,3.1035,3.1035,3.1035,3.1035,3.1006,3.0879,3.0049,2.9604,2.9276,2.904,2.8927,2.8918,2.8757,0.0,0.0,2.8351,2.8229,2.8115,2.7879,2.7765,2.7774,2.7934,2.7838,2.7847,2.8008,2.8017,2.7902,2.7902,2.7902,2.7902,2.8017,2.8311,2.8578,2.8578,2.909,2.9568,2.9568,2.8134,2.6838,2.6461,2.6522,2.676,2.6921,2.8033,2.8663,2.8238,2.9197,0.0,2.9249,2.8842,2.8587,2.8359,2.7958,2.7271,2.6197,2.616,2.5656,2.4583,2.4519,2.4675,2.5051,2.5005,2.517,2.5472,2.3941,2.3611,0.0,0.0,0.0,0.0,0.0,0.0,0.0,0.0,0.0,0.0,0.0,0.0,0.0,0.0,0.0,2.6041,2.7554,2.8678,2.826,2.8863,2.9125,2.8233,2.9035,2.9859,3.0697,3.0783,3.118,3.2232,3.2509,3.2866,3.3323,3.2369,3.2437,3.382,3.1744,3.1116,3.2209,3.1543,3.1309,3.1396,0.0,0.0,3.1924,3.1924,3.1924,3.1924,3.1924,3.1924,3.1924,3.1924,3.1709,3.1348,3.083,3.0635,3.0519,3.0151,3.0025,2.9977,2.9393,2.9155,2.9107,2.8445,2.8229,2.8115,2.7879,2.7765,0.0,2.8496,2.8492,2.8459,2.9006,2.8972,2.8746,2.8746,2.8746,2.8864,2.909,2.9273,2.9328,2.9573,2.9512,2.9568,2.9804,2.9306,2.8946,2.8862,2.863,2.8542,2.8849,2.9231,2.9179,2.8634,2.9188,2.9259,2.852,2.8765,2.8982,2.9207,2.8816,2.8254,2.7435,2.7416,2.7306,2.7068,2.6756,2.6628,2.671,2.6389,2.6279,2.6325,2.5353,2.4986,0.0,0.0,0.0,0.0,0.0,0.0,0.0,0.0,0.0,0.0,0.0,2.5391,0.0,0.0,2.8399,2.7888,2.9432,3.053,3.0156,3.1164,3.1461,3.0252,3.0654,3.1326,3.2394,3.2493,3.2685,3.3408,3.4117,3.4544,3.493,3.4406,3.4294,3.4684,3.3016,3.256,3.3348,3.2997,3.3109,3.3796,3.3333,3.3095,3.3095,3.2522,3.2168,3.2168,3.2168,3.2168,3.2168,3.2168,3.2041,3.1816,3.1611,3.1269,3.0889,3.0762,3.0635,3.0606,3.0267,3.0074,3.0045,2.9488,2.9297,2.9297,2.895,2.8719,2.8756,2.9077,2.8917,2.8845,2.9394,2.9331,2.9331,2.9459,2.945,2.945,2.9686,2.9686,2.9686,2.9922,2.9922,3.003,3.0157,3.0039,2.9912,2.9686,2.9686,2.9686,2.9686,3.0039,2.9995,2.9565,2.9909,2.9995,2.9575,2.9451,2.9568,2.9912,2.9254,2.8723,2.8307,2.8192,2.7985,2.7765,2.7572,2.7471,2.7471,2.727,2.7178,2.7169,2.6756,2.6362,0.0,0.0,0.0,0.0,0.0,0.0,0.0,0.0,2.5669,2.6549,2.6956,2.7197,2.7763,2.9232,3.0212,2.9777,3.1198,3.2317,3.2196,3.3229,3.3634,3.2903,3.2723,3.3014,3.391,3.4,3.4202,3.4564,3.5493,3.627,3.6696,3.649,3.628,3.5981,3.4622,3.4116,3.4837,3.4696,3.4964,3.5786,3.4823,3.417,3.393,3.2881,3.2412,3.2412,3.2412,3.2412,3.2412,3.2324,3.2285,3.2285,3.2207,3.1748,3.1143,3.1143,3.1084,3.1016,3.1016,3.0957,3.0889,3.0509,3.0382,3.0392,3.0039,2.9804,2.9558,2.9677,2.945,2.9222,2.9568,2.9677,2.9677,2.9804,2.9922,2.995,3.0026,3.0163,3.0182,3.0277,3.0524,3.0632,3.076,3.076,3.0466,3.0068,3.0157,3.0274,3.0039,3.0528,3.0762,3.0509,3.0645,3.0762,3.0762,3.0284,3.0039,3.0265,2.9568,2.9065,2.8849,2.8615,2.8352,2.8012,2.793,2.7884,2.7884,2.7811,2.7765,2.7765,2.7765,2.7426,2.6804,2.6649,2.6716,2.6062,2.6913,2.794,0.0,0.0,2.835,2.8954,2.9788,3.0606,3.1192,3.2159,3.2699,3.211,3.3367,3.4249,3.3786,3.5098,3.6195,3.6546,3.6188,3.614,3.6725,3.6772,3.6999,3.7512,3.7666,3.7917,3.8467,3.7472,3.7595,3.9034,3.6848,3.6285,3.7395,3.6783,3.5919,3.4852,3.5146,3.4614,3.3523,3.3281,3.3281,3.3281,3.3281,3.3281,3.3252,3.2881,3.2725,3.2685,3.2314,3.2109,3.2021,3.2021,3.1777,3.1445,3.1445,3.1201,3.0889,3.0509,3.0382,3.0392,3.0039,2.9922,2.9922,3.0274,3.0039,2.9922,3.0157,3.0039,2.9804,2.9922,2.9922,3.0026,3.0744,3.094,3.1055,3.1823,3.1779,3.1667,3.19,3.1779,3.1277,3.0507,3.0157,3.0039,3.0265,3.0392,3.0518,3.0772,3.0635,3.0392,3.0049,3.0274,3.0147,2.9677,2.9686,2.9549,2.9039,2.8911,2.8893,2.8847,2.8498,2.8324,2.8324,2.7948,2.7765,2.7765,2.7765,2.7719,2.8727,2.8318,2.8059,2.8941,2.8856,2.8996,3.0531,3.038,3.0364,3.1495,3.209,3.2523,3.3031,3.3672,3.415,0.0,3.5091,3.5729,3.5821,3.6403,3.706,3.7589,3.7457,3.7409,3.7625,3.7649,3.7878,3.8431,3.8467,3.8707,3.9248,3.8808,3.8589,3.8856,3.793,3.7836,3.8596,3.8335,3.7836,3.7361,3.6727,3.5858,3.4518,3.3786,3.3418,3.3418,3.3418,3.3418,3.3408,3.3232,3.3164,3.3144,3.2969,3.29,3.2842,3.2353,3.2051,3.1894,3.1894,3.1787,3.1631,3.1501,3.1501,3.1382,3.1262,3.1142,3.1031,3.1142,3.0901,3.0762,3.1022,3.1022,3.1022,3.1142,3.1262,3.131,3.1605,3.1754,3.1823,3.2129,3.2046,3.2046,3.2168,3.2046,3.193,3.155,3.1382,3.1262,3.1382,3.1501,3.1501,3.1631,3.1501,3.1275,3.0914,3.0757,3.0642,3.0303,2.9931,2.9568,2.9577,2.9331,2.9213,2.8984,2.9055,2.8963,2.8737,2.8563,2.8471,2.8471,2.8471,2.8471,2.9364,2.9088,2.8979,3.0951,3.0548,3.0173,3.2225,3.2144,3.1996,3.3194,3.3501,3.3705,3.4354,3.4787,3.522,3.5749,3.6278,3.6759,3.7144,3.7324,3.7553,3.7938,3.8118,3.8214,3.8214,3.8214,3.8443,3.8996,3.9032,3.926,3.9789,3.9826,3.9593,3.9151,3.9163,3.9337,3.9709,3.9848,3.98,3.9434,3.8232,3.6967,3.5749,3.4396,3.3779,3.3779,3.3779,3.3711,3.3603,3.3603,3.3525,3.3418,3.3418,3.3418,3.335,3.2744,3.2441,3.2344,3.2344,3.2266,3.2168,3.2168,3.2168,3.2168,3.2168,3.2046,3.1812,3.1812,3.1671,3.1539,3.1803,3.1812,3.1924,3.2168,3.2168,3.2207,3.2314,3.2344,3.2373,3.249,3.2519,3.2519,3.2519,3.2519,3.2519,3.2519,3.2519,3.2432,3.2197,3.2168,3.2168,3.2168,3.2168,3.2041,3.1728,3.144,3.1256,3.0957,3.0329,2.9917,2.9804,2.9686,2.945,2.9094,2.9331,2.945,2.9222,2.9213,2.9222,2.9222,2.9213,2.9103,2.827,2.8534,2.8895,3.0494,3.1673,3.2575,3.314,3.326,3.3404,3.3921,3.4018,3.433,3.5376,3.5581,3.5761,3.629,3.6819,3.718,3.7192,3.7637,3.7962,3.7986,3.8467,3.8791,0.0,3.8791,3.902,3.9549,3.9585,3.9813,4.0343,4.0379,4.0607,4.1136,4.116,4.116,4.1184,4.1689,4.1318,3.9962,3.9075,3.8046,3.667,3.5291,3.4658,3.4658,3.4658,3.4434,3.4053,3.4053,3.3809,3.3418,3.3418,3.3418,3.3418,3.3389,3.3125,3.2773,3.2773,3.251,3.2168,3.2168,3.2168,3.2168,3.2168,3.2168,3.2168,3.2168,3.2168,3.2168,3.2168,3.2168,3.2168,3.2168,3.2168,3.2285,3.2685,3.2773,3.29,3.3301,3.3379,3.3379,3.3379,3.3379,3.3379,3.3379,3.3379,3.3086,3.2275,3.2168,3.2168,3.2168,3.2168,3.2158,3.2148,3.2148,3.1832,3.1017,3.0978,3.0567,2.9577,2.9804,2.9804,2.945,2.944,2.9568,2.9922,2.9568,2.9568,2.9922,2.9568,2.944,3.0218,3.0603,3.0903,3.2166,3.2755,3.3164,3.3669,3.3789,3.403,3.4907,3.4535,3.4258,3.4968,3.4811,3.4859,3.5737,3.6326,3.6916,3.7613,3.7878,3.8118,3.8491,3.8707,0.0,0.0,0.0,0.0,4.009,4.0126,4.0367,4.0896,4.092,4.1004,4.1172,4.1521,4.1701,4.1701,4.223,4.1864,4.0468,3.8391,3.7212,3.6711,3.5331,3.4697,3.4697,3.4697,3.4619,3.4492,3.4492,3.4404,3.4267,3.4267,3.4101,3.3848,3.3848,3.3574,3.3213,3.3213,3.3115,3.2998,3.2998,3.2998,3.2998,3.2998,3.2998,3.2998,3.2998,3.2998,3.2998,3.2998,3.2998,3.2998,3.2998,3.2998,3.3037,3.3184,3.3213,3.3252,3.3389,3.3418,3.3418,3.3418,3.3418,3.3418,3.3418,3.3418,3.332,3.3037,3.2998,3.2998,3.2998,3.2998,3.2891,3.2607,3.2588,3.2402,3.1842,3.158,3.1271,3.1016,3.0876,3.0613,3.0228,3.0209,3.0077,2.9922,2.9677,2.9568,2.9686,2.9331,2.9213,3.118,3.1661,3.1973,3.3248,3.3561,3.3693,3.4198,3.4463,3.4691,3.4992,3.4667,3.4366,3.4523,3.427,3.4451,3.5701,3.6182,3.6771,3.7829,3.7986,3.819,3.8755,3.8984,3.9441,0.0,0.0,0.0,4.0643,4.0679,4.0824,4.1172,4.1365,4.1473,4.1473,4.1978,4.2254,4.2254,4.2772,4.2492,4.1283,3.9633,3.8488,3.7974,3.6577,3.594,3.594,3.5431,3.5088,3.4951,3.4951,3.4853,3.4697,3.4697,3.4531,3.4297,3.4297,3.4023,3.3633,3.3476,3.3418,3.3418,3.3418,3.3418,3.3418,3.3418,3.3418,3.3418,3.3418,3.3418,3.3418,3.3418,3.3418,3.3418,3.3418,3.3418,3.3418,3.3418,3.3418,3.3418,3.3418,3.3418,3.3418,3.3418,3.3418,3.3418,3.3418,3.3418,3.3418,3.3418,3.3418,3.3418,3.3418,3.3418,3.331,3.3037,3.3018,3.2842,3.2422,3.227,3.1957,3.169,3.1671,3.1415,3.1035,3.0895,3.0882,3.0734,3.0367,3.0247,3.0486,2.9897,2.9777,3.1252,3.1829,3.219,3.3705,3.4078,3.4222,3.4751,3.5208,3.5268,3.4318,3.4438,3.4559,0.0,0.0,3.4511,3.6074,3.6374,3.6771,3.7829,3.7998,3.8238,0.0,0.0,0.0,0.0,0.0,0.0,4.1184,0.0,4.1196,4.122,4.1701,4.199,4.2014,4.2519,4.2796,4.2796,4.3301,4.318,4.242,4.2293,4.1633,4.0203,3.8761,3.8109,3.7975,3.6674,3.5791,3.543,3.543,3.5166,3.4766,3.4766,3.4746,3.4736,3.4736,3.4463,3.4053,3.3633,3.3457,3.3418,3.3418,3.3418,3.3418,3.3418,3.3418,3.3418,3.3418,3.3418,3.3418,3.3418,3.3418,3.3418,3.3418,3.3418,3.3418,3.3418,3.3418,3.3418,3.3418,3.3418,3.3418,3.3418,3.3418,3.3418,3.3418,3.3418,3.3418,3.3418,3.3418,3.3418,3.3418,3.3418,3.3418,3.3418,3.3418,3.3252,3.2851,3.2832,3.2533,3.1767,3.2114,3.2105,3.1719,3.1719,3.1832,3.2168,3.1539,3.1539,3.2168,3.1172,3.1058,3.3561,3.4018,3.4114,3.4523,3.4631,3.4763,3.5292,3.4907,3.4595,3.51,3.409,3.3176,3.3428,3.3477,0.0,3.504,3.5893,0.0,3.7829,3.8334,0.0,3.9345,0.0,4.0403,4.0932,4.11,0.0,0.0,4.1184,4.1353,4.1749,4.1906,4.2146,4.2543,4.306,4.3325,4.3325,4.3866,4.3955,4.3838,4.2811,4.2154,4.1633,3.9156,3.8109,3.7975,3.6674,3.5957,3.5859,3.5859,3.5791,3.5684,3.5684,3.5498,3.5215,3.5215,3.4932,3.4521,3.4414,3.3955,3.3418,3.3418,3.3418,3.3418,3.3418,3.3418,3.3418,3.3418,3.3418,3.3418,3.3418,3.3418,3.3418,3.3418,3.3418,3.3418,3.3418,3.3418,3.3418,3.3418,3.3418,3.3418,3.3418,3.3418,3.3418,3.3418,3.3418,3.3418,3.3418,3.3418,3.3418,3.3418,3.3418,3.3418,3.3418,3.3418,3.3379,3.3271,3.3262,3.3213,3.298,3.2855,3.271,3.2523,3.2266,3.2111,3.2168,3.1803,3.168,3.1812,3.1304,3.1162,3.4402,3.4823,3.4823,3.4823,3.4823,3.4847,3.4907,3.4643,3.4354,3.427,3.3501,3.2935,3.3236,3.3284,3.3777,0.0,0.0,0.0,3.7829,3.8467,3.902,0.0,4.0066,0.0,4.1136,4.1184,4.128,0.0,4.1533,4.1653,4.1954,4.2399,4.2784,4.3084,4.3601,4.3878,4.3878,4.419,4.4347,4.4347,4.3576,4.3189,4.3063,4.098,3.955,3.8893,3.7595,3.6539,3.6016,3.6016,3.6016,3.6016,3.6016,3.5879,3.5664,3.5664,3.5381,3.501,3.501,3.4551,3.3955,3.3769,3.3711,3.3672,3.3476,3.3418,3.3418,3.3418,3.3418,3.3418,3.3418,3.3418,3.3418,3.3418,3.3418,3.3418,3.3418,3.3418,3.3418,3.3418,3.3418,3.3418,3.3418,3.3418,3.3418,3.3418,3.3418,3.3418,3.3418,3.3418,3.3418,3.3418,3.3418,3.3418,3.3418,3.3418,3.3418,3.3418,3.3418,3.3418,3.3418,3.3175,3.3058,3.3076,3.2816,3.271,3.2725,3.2353,3.2353,3.2477,3.197,3.1836,3.4438,3.4823,3.4823,3.4823,3.4823,3.4715,3.4246,3.439,3.4234,3.2887,3.2851,3.3116,3.326,3.3284,3.397,3.6062,0.0,3.6771,3.7829,3.8527,3.9092,3.9549,4.0138,4.0679,4.1136,4.1184,4.1401,4.193,4.2038,4.2098,4.217,4.3024,4.3541,4.3613,4.4094,4.4347,4.4347,4.4347,4.4347,4.4347,4.4347,4.4347,4.4223,4.2673,4.1377,4.0073,3.8496,3.7069,3.6016,3.6016,3.6016,3.6016,3.6016,3.6016,3.6016,3.6016,3.5791,3.5478,3.5478,3.5215,3.4795,3.4316,3.416,3.4082,3.3711,3.3555,3.3506,3.3506,3.3467,3.3418,3.3418,3.3418,3.3418,3.3418,3.3418,3.3418,3.3418,3.3418,3.3418,3.3418,3.3418,3.3418,3.3418,3.3418,3.3418,3.3418,3.3418,3.3418,3.3418,3.3418,3.3418,3.3418,3.3418,3.3418,3.3418,3.3418,3.3418,3.3418,3.3418,3.3418,3.3418,3.3418,3.3418,3.3418,3.3418,3.3418,3.3418,3.3048,3.3175,3.3428,3.2794,3.2794,3.4631,3.4823,3.4823,3.4823,3.4823,3.4811,3.4715,3.4102,0.0,3.3212,3.2503,3.2226,3.3128,3.3284,3.397,3.6062,3.6411,3.6771,3.7829,3.8839,3.9501,0.0,4.0451,4.1088,4.1172,4.1184,0.0,0.0,4.2375,4.2808,4.3216,4.3409,4.3721,4.419,4.4299,4.4347,4.4347,4.4347,4.4347,4.4347,4.4347,4.4347,4.4223,4.1761,4.0463,4.0073,3.7461,0.0,3.6016,3.6016,3.6016,3.6016,3.6016,3.6016,3.6016,3.6016,3.5976,3.5908,3.5908,3.5859,3.5654,3.4853,3.459,3.458,3.4502,3.4228,3.3965,3.3965,3.3701,3.3418,3.3418,3.3418,3.3418,3.3418,3.3418,3.3418,3.3418,3.3418,3.3418,3.3418,3.3418,3.3418,3.3418,3.3418,3.3418,3.3418,3.3418,3.3418,3.3418,3.3418,3.3418,3.3418,3.3418,3.3418,3.3418,3.3418,3.3418,3.3418,3.3418,3.3418,3.3418,3.3418,3.3418,3.3418,3.3418,3.3418,3.3418,3.3301,3.3292,3.3418,3.3292,3.3301,3.3958,3.4414,3.4823,3.4823,3.4823,3.4619,3.3801,0.0,0.0,3.1793,3.1204,3.1264,3.2623,3.2875,3.3464,3.5292,3.605,3.6579,3.7096,3.8575,3.9609,3.9609,4.0535,4.1184,4.1184,4.1184,4.1521,4.2315,4.2615,4.2976,4.3481,4.3782,4.407,4.4335,4.4347,4.4347,4.4347,4.4347,4.4347,4.4347,4.4347,4.4347,4.4223,4.2914,4.1493,4.0073,3.8761,3.7327,3.6016,3.6016,3.6016,3.6016,3.6016,3.6016,3.6016,3.6016,3.6016,3.6016,3.6016,3.6016,3.5947,3.5527,3.5234,3.5019,3.4775,3.456,3.4394,3.4394,3.4248,3.4082,3.4082,3.4082,3.4033,3.3809,3.3584,3.3418,3.3418,3.3418,3.3418,3.3418,3.3418,3.3418,3.3418,3.3418,3.3418,3.3418,3.3418,3.3418,3.3418,3.3418,3.3418,3.3418,3.3418,3.3418,3.3418,3.3418,3.3418,3.3418,3.3418,3.3418,3.3418,3.3418,3.3418,3.3418,3.3418,3.3418,3.3418,3.3418,3.3418,3.3418,3.3418,3.3418,3.3501,3.421,3.4823,3.4823,3.4823,3.4414,3.2851,3.2503,3.2046,3.0422,3.0086,3.0543,3.2046,3.2226,3.2707,0.0,3.5268,3.5893,3.6338,3.795,3.9212,3.9573,4.0439,0.0,4.1172,4.1184,0.0,4.2687,4.2976,4.3277,4.3673,4.4106,4.4347,4.4347,4.4347,4.4347,4.4347,4.4347,4.4347,4.4347,4.4347,4.4347,4.4347,4.3962,4.2661,4.0592,4.0073,3.8507,3.6413,3.6152,3.6016,3.6016,3.6016,3.6016,3.6016,3.6016,3.6016,3.6016,3.6016,3.6016,3.6016,3.6016,3.5801,3.5459,3.5088,3.4922,3.4853,3.4853,3.4775,3.4697,3.4697,3.4697,3.4609,3.4287,3.3945,3.3691,3.3691,3.3623,3.3564,3.3564,3.3486,3.3418,3.3418,3.3418,3.3418,3.3418,3.3418,3.3418,3.3418,3.3418,3.3418,3.3418,3.3418,3.3418,3.3418,3.3418,3.3418,3.3418,3.3418,3.3418,3.3418,3.3418,3.3418,3.3418,3.3418,3.3418,3.3418,3.3418,3.3418,3.3418,3.3418,3.3418,3.4162,3.4763,3.4823,3.4823,3.4823,3.4414,3.2851,3.2503,3.2046,3.0422,3.0086,3.0422,3.1541,3.1348,0.0,0.0,0.0,3.4234,3.6134,3.6988,3.7962,3.9441,0.0,0.0,4.1136,4.1184,4.1617,4.2687,4.3649,4.4214,4.4275,4.4323,4.4347,4.4347,4.4347,4.4347,4.4347,4.4347,4.4347,4.4347,4.4347,4.4347,4.4223,4.3063,4.2293,4.2027,3.9419,3.8109,0.0,3.6549,3.6016,3.6016,3.6016,3.6016,3.6016,3.6016,3.6016,3.6016,3.6016,3.6016,3.6016,3.6016,3.5986,3.5957,3.5908,3.5635,3.5332,3.5332,3.5019,3.4697,3.4697,3.4697,3.4687,3.4648,3.4609,3.458,3.458,3.4277,3.4014,3.4014,3.3691,3.3418,3.3418,3.3418,3.3418,3.3418,3.3418,3.3418,3.3418,3.3418,3.3418,3.3418,3.3418,3.3418,3.3418,3.3418,3.3418,3.3418,3.3418,3.3418,3.3418,3.3418,3.3418,3.3418,3.3418,3.3418,3.3418,3.3418,3.3418,3.3418,3.3418,3.3418,3.231,3.3609,3.4823,3.4823,3.4823,3.433,3.243,3.1997,3.1456,2.9532,2.9136,2.9364,3.011,3.0074,3.041,0.0,0.0,0.0,3.5208,3.6735,3.8154,3.9453,4.0355,4.0956,0.0,0.0,4.1617,4.2687,4.3746,4.4347,4.4347,4.4347,4.4347,4.4347,4.4347,4.4347,4.4347,4.4347,4.4347,4.4347,4.4347,4.4347,4.4223,4.3713,4.3063,4.2154,4.0203,3.8893,0.0,3.6539,3.6016,3.6016,3.6016,3.6016,3.6016,3.6016,3.6016,3.6016,3.6016,3.6016,3.6016,3.6016,3.6016,3.6016,3.6016,3.5898,3.5771,3.5771,3.5635,3.5488,3.5488,3.5312,3.5117,3.5117,3.4902,3.4629,3.4375,3.4189,3.3994,3.373,3.3545,3.3418,3.3418,3.3418,3.3418,3.3418,3.3418,3.3418,3.3418,3.3418,3.3418,3.3418,3.3418,3.3418,3.3418,3.3418,3.3418,3.3418,3.3418,3.3418,3.3418,3.3418,3.3418,3.3418,3.3418,3.3418,3.3418,3.3418,3.3418,3.3418,3.3418,3.3418,3.1204,3.2719,3.4258,3.4715,3.4595,3.3897,3.2082,3.142,3.0687,2.8883,2.851,2.8619,2.8991,2.9196,2.9593,0.0,0.0,3.2575,3.415,3.5918,3.7445,3.8527,0.0,4.0367,4.0691,4.1148,4.1798,4.2687,4.3589,4.4166,4.4335,4.4347,4.4347,4.4347,4.4347,4.4347,4.4347,4.4347,4.4347,4.4347,4.4347,4.4347,4.4347,4.4347,4.3826,4.2799,4.098,3.9681,0.0,3.6809,3.6016,3.6016,3.6016,3.6016,3.6016,3.6016,3.6016,3.6016,3.6016,3.6016,3.6016,3.6016,3.6016,3.6016,3.6016,3.6016,3.6016,3.6016,3.6016,3.6016,3.6016,3.5801,3.5547,3.542,3.5146,3.4785,3.4355,3.416,3.3984,3.3672,3.3506,3.3418,3.3418,3.3418,3.3418,3.3418,3.3418,3.3418,3.3418,3.3418,3.3418,3.3418,3.3418,3.3418,3.3418,3.3418,3.3418,3.3418,3.3418,3.3418,3.3418,3.3418,3.3418,3.3418,3.3418,3.3418,3.3418,3.3418,3.3418,3.3418,3.3418,3.3418,3.1625,3.2503,3.2899,3.4438,3.4054,3.302,3.1913,3.0855,2.9797,2.8727,2.851,2.851,2.8522,2.8943,2.9472,3.0013,3.0543,0.0,3.308,3.4198,3.5256,3.6314,3.7372,3.8443,3.9525,4.104,4.2182,4.2723,4.3228,0.0,4.4323,4.4347,4.4347,4.4347,4.4347,4.4347,4.4347,4.4347,4.4347,4.4347,4.4347,4.4347,4.4347,4.4347,4.4347,4.4099,4.1365,4.0203,0.0,3.7203,3.6016,3.6016,3.6016,3.6016,3.6016,3.6016,3.6016,3.6016,3.6016,3.6016,3.6016,3.6016,3.6016,3.6016,3.6016,3.6016,3.6016,3.6016,3.6016,3.6016,3.6016,3.6016,3.5908,3.5488,3.5391,3.5264,3.4795,3.4365,3.4072,3.4062,3.3721,3.3418,3.3418,3.3418,3.3418,3.3418,3.3418,3.3418,3.3418,3.3418,3.3418,3.3418,3.3418,3.3418,3.3418,3.3418,3.3418,3.3418,3.3418,3.3418,3.3418,3.3418,3.3418,3.3418,3.3418,3.3418,3.3418,3.3418,3.3418,3.3418,3.3418,3.3418,2.8955,3.0025,3.1048,3.1913,3.1889,3.1456,3.0747,3.0326,2.9785,2.8727,2.851,2.851,2.851,2.8643,2.9051,2.9941,3.023,3.1023,3.3008,3.4487,3.5893,3.7312,3.9068,4.0306,0.0,0.0,4.2194,4.2723,4.3228,4.3758,4.4323,4.4347,4.4347,4.4347,4.4347,4.4347,4.4347,4.4347,4.4347,4.4347,4.4347,4.4347,4.4347,4.4347,4.4347,4.4087,4.1365,4.0203,3.9942,3.7203,3.6016,3.6016,3.6016,3.6016,3.6016,3.6016,3.6016,3.6016,3.6016,3.6016,3.6016,3.6016,3.6016,3.5967,3.5674,3.5791,3.6016,3.6016,3.581,3.5596,3.5596,3.5351,3.5088,3.4951,3.4922,3.4805,3.4365,3.416,3.3984,3.3682,3.3516,3.3418,3.3418,3.3418,3.3418,3.3418,3.3418,3.3418,3.3418,3.3418,3.3418,3.3418,3.3418,3.3418,3.3418,3.3418,3.3418,3.3418,3.3418,3.3418,3.3418,3.3418,3.3418,3.3418,3.3418,3.3418,3.3418,3.3418,3.3418,3.3418,3.3418,3.3418,2.756,2.8438,2.9412,3.035,3.0278,2.9893,2.9569,2.934,2.9003,2.8342,2.8366,2.851,2.851,2.851,2.8859,2.9917,3.0086,3.0687,3.243,3.3861,3.54,3.718,3.9104,0.0,0.0,4.1244,4.1894,4.2423,4.294,4.3457,4.401,4.4239,4.4347,4.4347,4.4347,4.4347,4.4347,4.4347,4.4347,4.4347,4.4347,4.4347,4.4347,4.4347,4.4347,4.4087,4.1365,4.0203,0.0,3.7203,3.6016,3.6016,3.6016,3.6016,3.6016,3.6016,3.6016,3.5996,3.584,3.5781,3.5752,3.5576,3.5517,3.5469,3.5215,3.5312,3.5517,3.5517,3.5332,3.5137,3.5137,3.4922,3.4658,3.4502,3.4463,3.4346,3.3916,3.3828,3.375,3.3476,3.3418,3.3418,3.3418,3.3418,3.3418,3.3418,3.3418,3.3418,3.3418,3.3418,3.3418,3.3418,3.3418,3.3418,3.3418,3.3418,3.3418,3.3418,3.3418,3.3418,3.3418,3.3418,3.3418,3.3418,3.3418,3.3418,3.3418,3.3418,3.3418,3.3418,3.3418,3.3418,0.0,2.7548,2.7909,2.9424,2.9063,2.8342,2.839,2.8017,0.0,2.7717,2.8114,2.8462,2.8498,2.851,2.8859,2.9917,3.0086,3.0458,3.1517,3.2695,3.421,0.0,3.795,3.914,3.9669,4.0607,4.1401,4.193,4.2423,4.294,4.3481,4.401,4.4311,4.4347,4.4347,4.4347,4.4347,4.4347,4.4347,4.4347,4.4347,4.4347,4.4347,4.4347,4.4223,0.0,4.1365,4.0203,3.9812,3.7059,3.6016,3.6016,3.6016,3.6006,3.5976,3.5976,3.5957,3.5869,3.5478,3.5342,3.5273,3.4834,3.4678,3.4658,3.4658,3.4678,3.4697,3.4697,3.4678,3.4658,3.4658,3.4629,3.4512,3.4121,3.4023,3.3916,3.3506,3.3418,3.3418,3.3418,3.3418,3.3418,3.3418,3.3418,3.3418,3.3418,3.3418,3.3418,3.3418,3.3418,3.3418,3.3418,3.3418,3.3418,3.3418,3.3418,3.3418,3.3418,3.3418,3.3418,3.3418,3.3418,3.3418,3.3418,3.3418,3.3418,3.3418,3.3418,3.3418,3.3418,3.3418,3.3418,2.5769,0.0,2.6057,2.6839,2.6851,2.6779,0.0,0.0,0.0,0.0,0.0,2.8029,2.8438,2.851,2.8859,2.9917,3.0086,3.0458,3.1517,3.3633,3.5701,3.7409,3.9032,4.0234,4.0763,4.104,4.1401,4.193,4.2086,4.2555,4.3457,4.3637,4.3902,4.4335,4.4347,4.4347,4.4347,4.4347,4.4347,4.4347,4.4347,4.4347,4.4347,4.4347,4.3701,4.2673,4.098,3.955,3.8507,3.6674,3.6016,3.6016,3.6016,3.583,3.5537,3.5537,3.5312,3.5,3.4892,3.4863,3.4844,3.4736,3.4482,3.4219,3.4219,3.4443,3.4697,3.4697,3.4463,3.4219,3.4219,3.3975,3.3691,3.3603,3.3574,3.3545,3.3447,3.3418,3.3418,3.3418,3.3418,3.3418,3.3418,3.3418,3.3418,3.3418,3.3418,3.3418,3.3418,3.3418,3.3418,3.3418,3.3418,3.3418,3.3418,3.3418,3.3418,3.3418,3.3418,3.3418,3.3418,3.3418,3.3418,3.3418,3.3418,3.3418,3.3418,3.3418,3.3418,3.3418,3.3418,3.3418,2.5312,2.5312,2.5384,2.5661,2.5733,2.5817,2.6117,0.0,0.0,0.0,0.0,2.7885,2.8414,2.851,2.8859,2.9917,3.0494,3.1348,3.2899,3.486,3.6584,3.7817,3.9285,4.0431,0.0,4.1184,4.1305,4.1581,4.1834,4.2218,4.2772,4.3036,4.3301,4.3601,4.3842,4.4082,4.4347,4.4347,4.4347,4.4347,4.4347,4.4347,4.4347,4.4347,4.3962,4.3189,4.1761,4.0333,3.8872,3.7371,3.6633,3.6479,3.5756,3.5663,3.5972,3.5972,3.5811,3.569,3.6101,3.6013,3.5848,3.5848,3.581,3.5614,3.5614,3.5295,3.4862,3.424,3.3945,3.3779,3.3779,3.3603,3.3418,3.3418,3.3418,3.3418,3.3418,3.3418,3.3418,3.3418,3.3418,3.3418,3.3418,3.3418,3.3418,3.3418,3.3418,3.3418,3.3418,3.3418,3.3418,3.3418,3.3418,3.3418,3.3418,3.3418,3.3418,3.3418,3.3418,3.3418,3.3418,3.3418,3.3418,3.3418,3.3418,3.3418,3.3418,3.3418,3.3418,3.3418,3.3418,3.3418,2.5312,2.5312,2.5312,2.5312,2.5312,2.5312,2.5312,0.0,0.0,0.0,0.0,0.0,2.8619,2.8751,0.0,3.0374,3.1456,3.2779,3.4583,3.5948,3.7115,3.7971,3.9141,4.0217,4.1076,4.1184,4.1184,4.1184,4.1605,4.1882,4.1966,4.2399,4.2675,4.276,4.318,4.3625,4.4106,4.4263,4.4347,4.4347,4.4347,4.4299,4.4214,4.4214,4.4043,4.3724,4.2567,4.1268,3.9811,3.8259,3.7593,3.7411,3.5861,3.5919,3.6874,3.6874,3.6832,3.6834,3.7547,3.7636,3.7298,3.7298,3.7298,3.7298,3.7298,3.646,3.5129,3.4037,3.3544,3.3418,3.3418,3.3418,3.3418,3.3418,3.3418,3.3418,3.3418,3.3418,3.3418,3.3418,3.3418,3.3418,3.3418,3.3418,3.3418,3.3418,3.3418,3.3418,3.3418,3.3418,3.3418,3.3418,3.3418,3.3418,3.3418,3.3418,3.3418,3.3418,3.3418,3.3418,3.3418,3.3418,3.3418,3.3418,3.3418,3.3418,3.3418,3.3418,3.3418,3.3418,3.3418,3.3418,2.5312,2.5312,2.5312,2.5312,2.5312,2.5312,2.5312,0.0,0.0,0.0,0.0,0.0,0.0,2.9845,3.0494,0.0,0.0,3.4559,0.0,0.0,3.6898,3.8182,0.0,4.0018,4.1088,4.1184,4.1184,4.1184,4.1256,4.1497,4.1954,4.205,4.2291,4.2747,4.2832,4.2916,4.3,4.389,4.4347,4.4347,4.4347,4.4094,4.3637,4.3637,4.2765,4.123,0.0,4.0095,3.8821,3.8503,3.846,3.8323,3.8132,3.7853,3.7746,3.7746,3.7487,3.7262,3.7308,3.7352,3.7298,3.7298,3.7298,3.7298,3.7298,3.646,3.5376,3.5129,3.4278,3.3418,3.3418,3.3418,3.3418,3.3418,3.3418,3.3418,3.3418,3.3418,3.3418,3.3418,3.3418,3.3418,3.3418,3.3418,3.3418,3.3418,3.3418,3.3418,3.3418,3.3418,3.3418,3.3418,3.3418,3.3418,3.3418,3.3418,3.3418,3.3418,3.3418,3.3418,3.3418,3.3418,3.3418,3.3418,3.3418,3.3418,3.3418,3.3418,3.3418,3.3418,3.3418,3.3418,2.5312,2.5312,2.5444,2.6033,2.5745,2.5312,2.5312,0.0,0.0,0.0,0.0,0.0,0.0,0.0,3.0975,3.3681,0.0,3.5881,3.6674,3.717,3.7762,0.0,0.0,4.012,4.0679,4.1016,4.1184,4.1184,4.1184,4.1293,4.1533,4.1545,4.1653,4.1906,4.2182,4.2339,4.2339,4.3096,4.3493,4.3493,4.3493,4.3361,4.3108,4.3108,4.2603,4.1872,4.1872,4.0999,3.9713,3.9444,3.9332,3.9187,3.8308,3.8188,3.8582,3.8582,3.8936,3.9368,3.9368,3.9368,3.9239,3.8506,3.8873,3.9121,3.7779,3.6935,3.6215,3.5623,3.4403,3.3418,3.3418,3.3418,3.3418,3.3418,3.3418,3.3418,3.3418,3.3418,3.3418,3.3418,3.3418,3.3418,3.3418,3.3418,3.3418,3.3418,3.3418,3.3418,3.3418,3.3418,3.3418,3.3418,3.3418,3.3418,3.3418,3.3418,3.3418,3.3418,3.3418,3.3418,3.3418,3.3418,3.3418,3.3418,3.3418,3.3418,3.3418,3.3418,3.3418,3.3418,3.3418,3.3418,2.5312,2.5312,2.5516,2.6346,2.6117,2.5793,2.6154,0.0,0.0,0.0,0.0,0.0,0.0,3.1132,0.0,3.4451,3.5821,3.6916,3.7959,3.8198,3.8403,3.8851,3.9479,4.0011,4.0343,4.0872,4.1184,4.1184,4.1184,4.1184,4.1184,4.1184,4.1184,4.1184,4.1581,4.1786,4.1786,4.2194,4.2519,4.276,4.276,4.2699,4.2579,4.2579,4.2507,4.2387,4.2387,4.1769,4.0739,4.0453,4.029,4.0017,3.8772,3.8862,3.9709,3.9709,4.0327,4.1184,4.1184,4.1184,4.1057,3.9954,4.0327,4.0815,3.8873,3.8018,3.7418,3.6215,3.4881,3.3786,3.3418,3.3418,3.3418,3.3418,3.3418,3.3418,3.3418,3.3418,3.3418,3.3418,3.3418,3.3418,3.3418,3.3418,3.3418,3.3418,3.3418,3.3418,3.3418,3.3418,3.3418,3.3418,3.3418,3.3418,3.3418,3.3418,3.3418,3.3418,3.3418,3.3418,3.3418,3.3418,3.3418,3.3418,3.3418,3.3418,3.3418,3.3418,3.3418,3.3418,3.3418,3.3418,2.5312,2.5312,2.5324,2.5408,2.6129,0.0,2.8679,2.9424,0.0,3.0482,0.0,0.0,0.0,3.4246,3.5136,3.4871,3.6134,3.7441,3.823,0.0,3.8285,3.9043,3.9479,3.9813,4.0343,4.0872,4.1184,4.1184,4.1184,4.1184,4.1184,4.1184,4.1184,4.1184,4.122,4.1244,4.1244,4.128,4.1786,4.276,4.276,4.2507,4.2026,4.2026,4.1761,4.1293,4.1293,4.1293,4.1165,4.1129,4.1117,4.1105,4.0954,4.0942,4.1057,4.1057,4.1057,4.1184,4.1184,4.1184,4.1184,4.1057,4.1057,4.1172,4.0942,4.0083,3.8744,3.7539,3.6215,3.5015,3.366,3.3418,3.3418,3.3418,3.3418,3.3418,3.3418,3.3418,3.3418,3.3418,3.3418,3.3418,3.3418,3.3418,3.3418,3.3418,3.3418,3.3418,3.3418,3.3418,3.3418,3.3418,3.3418,3.3418,3.3418,3.3418,3.3418,3.3418,3.3418,3.3418,3.3418,3.3418,3.3418,3.3418,3.3418,3.3418,3.3418,3.3418,3.3418,3.3418,3.3418,3.3418,2.5312,2.5805,2.6478,2.7128,2.7861,0.0,0.0,2.9232,3.0242,3.0771,3.13,0.0,0.0,0.0,3.5653,3.5785,3.6591,3.7372,3.8007,3.8092,3.8058,3.8476,3.8888,3.932,3.985,4.0379,4.0824,4.116,4.1184,4.1184,4.1184,4.1184,4.1184,4.1184,4.1184,4.1184,4.1184,4.1184,4.1377,4.1786,4.1786,4.1677,4.1485,4.1485,4.1377,4.1184,4.1184,4.1184,4.1184,4.1184,4.1184,4.1184,4.1184,4.1184,4.1184,4.1184,4.1184,4.1184,4.1184,4.1184,4.1057,4.0199,4.0559,4.0942,3.9239,3.8387,3.7779,3.646,3.5129,3.4027,3.3544,3.3418,3.3418,3.3418,3.3418,3.3418,3.3418,3.3418,3.3418,3.3418,3.3418,3.3418,3.3418,3.3418,3.3418,3.3418,3.3418,3.3418,3.3418,3.3418,3.3418,3.3418,3.3418,3.3418,3.3418,3.3418,3.3418,3.3418,3.3418,3.3418,3.3418,3.3418,3.3418,3.3418,3.3418,3.3418,3.3418,3.3418,3.3418,3.3418,3.3418,3.3418,2.5312,2.6105,2.7103,0.0,0.0,0.0,2.9088,2.9677,3.0579,3.1456,3.2178,0.0,3.3212,0.0,0.0,0.0,3.6386,3.7132,3.7661,3.7878,3.7986,3.7986,3.8479,3.896,3.932,3.9982,4.0547,4.0908,4.1088,4.1184,4.1184,4.1184,4.1184,4.1184,4.1184,4.1184,4.1184,4.1184,4.1184,4.1184,4.1184,4.1184,4.1184,4.1184,4.1184,4.1184,4.1184,4.1184,4.1184,4.1184,4.1184,4.1184,4.1184,4.1184,4.1184,4.1184,4.1184,4.1184,4.1184,4.1184,4.1057,4.0083,4.0443,4.0815,3.9121,3.8268,3.7659,3.6338,3.5005,3.3912,3.3544,3.3418,3.3418,3.3418,3.3418,3.3418,3.3418,3.3418,3.3418,3.3418,3.3418,3.3418,3.3418,3.3418,3.3418,3.3418,3.3418,3.3418,3.3418,3.3418,3.3418,3.3418,3.3418,3.3418,3.3418,3.3418,3.3418,3.3418,3.3418,3.3418,3.3418,3.3418,3.3418,3.3418,3.3418,3.3418,3.3418,3.3418,3.3418,3.3418,3.3418,3.3418,2.5324,2.6129,2.6959,0.0,0.0,0.0,3.1541,3.1264,3.1348,3.2947,3.4102,3.4511,3.3477,3.4138,0.0,3.4138,3.5376,3.6579,3.712,3.7637,3.7974,3.7974,3.8467,3.8815,3.8815,3.9765,4.0379,4.0391,4.0872,4.1172,4.1172,4.1184,4.1184,4.1184,4.1184,4.1184,4.1184,4.1184,4.1184,4.1184,4.1184,4.1184,4.1184,4.1184,4.1184,4.1184,4.1184,4.1184,4.1184,4.1184,4.1184,4.1184,4.1184,4.1184,4.1184,4.1184,4.1184,4.1184,4.1184,4.1184,4.1184,4.1184,4.1184,4.1184,4.1184,4.0211,3.8862,3.7659,3.6338,3.5139,3.3786,3.3418,3.3418,3.3418,3.3418,3.3418,3.3418,3.3418,3.3418,3.3418,3.3418,3.3418,3.3418,3.3418,3.3418,3.3418,3.3418,3.3418,3.3418,3.3418,3.3418,3.3418,3.3418,3.3418,3.3418,3.3418,3.3418,3.3418,3.3418,3.3418,3.3418,3.3418,3.3418,3.3418,3.3418,3.3418,3.3418,3.3418,3.3418,3.3418,3.3418,3.3418,2.6454,2.7777,0.0,2.9148,0.0,0.0,0.0,3.1853,0.0,0.0,3.3573,3.4511,3.3477,3.4138,0.0,3.5112,3.5545,3.6038,3.6567,3.7096,3.7433,3.7433,3.7902,3.8383,3.8779,3.9104,3.9441,3.9813,4.0331,4.0631,4.0631,4.098,4.1184,4.1184,4.1184,4.1184,4.1184,4.1184,4.1184,4.1184,4.1184,4.1184,4.1184,4.1184,4.1184,4.1184,4.1184,4.1184,4.1184,4.1184,4.1184,4.1184,4.1184,4.1184,4.1184,4.1184,4.1184,4.1184,4.1184,4.1184,4.1184,4.1184,4.0571,3.9826,3.9826,3.8268,3.646,3.6104,3.5005,3.3912,3.3544,3.3418,3.3418,3.3418,3.3418,3.3418,3.3418,3.3418,3.3418,3.3418,3.3418,3.3418,3.3418,3.3418,3.3418,3.3418,3.3418,3.3418,3.3418,3.3418,3.3418,3.3418,3.3418,3.3418,3.3418,3.3418,3.3418,3.3418,3.3418,3.3418,3.3418,3.3418,3.3418,3.3418,3.3418,3.3418,3.3418,3.3418,3.3418,3.3418,3.3418,3.3418,2.6935,2.8474,0.0,3.0086,3.0807,3.1601,3.1925,0.0,0.0,0.0,3.3657,3.4631,3.4018,3.4414,0.0,3.5256,3.5485,3.5725,3.605,3.6543,3.6879,3.6879,3.7168,3.7493,3.7829,3.8046,3.8298,3.8623,3.914,3.9441,3.9441,3.9741,3.991,3.991,3.991,3.991,3.991,3.991,4.003,4.0246,4.0246,4.0355,4.0571,4.0992,4.1184,4.1184,4.1184,4.1184,4.1172,4.0956,4.0872,4.0848,4.0643,4.0559,4.0559,4.0559,4.0559,4.0559,4.0559,4.0559,4.0559,4.0559,4.0069,3.9232,3.8758,3.7215,3.5554,3.496,3.388,3.292,3.292,3.3047,3.3213,3.3379,3.3418,3.3418,3.3418,3.3418,3.3418,3.3418,3.3418,3.3418,3.3418,3.3418,3.3418,3.3418,3.3418,3.3418,3.3418,3.3418,3.3418,3.3418,3.3418,3.3418,3.3418,3.3418,3.3418,3.3418,3.3418,3.3418,3.3418,3.3418,3.3418,3.3418,3.3418,3.3418,3.3418,3.3418,3.3418,3.3418,3.3418,3.3418,2.7055,2.8546,3.011,3.0206,3.1408,0.0,3.2575,3.302,3.3368,3.3176,0.0,3.4799,3.4703,3.4763,3.4823,3.4823,3.5232,3.5545,3.5545,3.6002,3.6338,3.6338,3.6374,3.6411,3.6411,3.6843,3.712,3.712,3.7613,3.7914,3.7914,3.795,3.7986,3.7986,3.7986,3.7986,3.7986,3.7986,3.8238,3.8743,3.8743,3.8996,3.9489,4.0559,4.104,4.104,4.104,4.104,4.1004,4.0523,4.0331,4.0282,3.9789,3.9609,3.9609,3.9609,3.9609,3.9609,3.9609,3.9609,3.9609,3.9609,3.9486,3.9253,3.7973,3.6697,3.5423,3.4258,3.3095,3.2168,3.2168,3.2451,3.2832,3.3213,3.3369,3.3418,3.3418,3.3418,3.3418,3.3418,3.3418,3.3418,3.3418,3.3418,3.3418,3.3418,3.3418,3.3418,3.3418,3.3418,3.3418,3.3418,3.3418,3.3418,3.3418,3.3418,3.3418,3.3418,3.3418,3.3418,3.3418,3.3418,3.3418,3.3418,3.3418,3.3418,3.3418,3.3418,3.3418,3.3418,3.3418,3.3418,2.7945,2.9112,0.0,0.0,3.2226,3.3116,3.3116,3.3837,3.403,3.2358,3.3513,3.4583,3.3765,3.4282,3.4823,3.4823,3.4919,3.5004,3.5004,3.5449,3.5785,3.5785,3.6146,3.6411,3.6411,3.6507,3.6579,3.6579,3.7072,3.736,3.736,3.7757,3.7986,3.7986,3.7986,3.7986,3.7986,3.7986,3.8046,3.8166,3.8166,3.8214,3.8371,3.9453,3.9946,3.9946,3.9946,3.9946,3.9934,3.9826,3.9777,3.9765,3.9657,3.9609,3.9609,3.9609,3.9609,3.9609,3.9609,3.9609,3.9609,3.9609,3.8907,3.7872,3.6697,3.5412,3.4139,3.2975,3.2401,3.2168,3.2168,3.2236,3.2324,3.2422,3.2939,3.3418,3.3418,3.3418,3.3418,3.3418,3.3418,3.3418,3.3418,3.3418,3.3418,3.3418,3.3418,3.3418,3.3418,3.3418,3.3418,3.3418,3.3418,3.3418,3.3418,3.3418,3.3418,3.3418,3.3418,3.3418,3.3418,3.3418,3.3418,3.3418,3.3418,3.3418,3.3418,3.3418,3.3418,3.3418,3.3418,3.3418,2.8222,0.0,0.0,3.1396,0.0,3.3284,3.3284,3.409,3.4511,3.3404,3.4054,3.4667,3.4126,3.4463,3.4823,3.4823,3.4823,3.4823,3.4823,3.5064,3.5244,3.5244,3.5485,3.5653,3.5653,3.5653,3.5653,3.5653,3.5905,3.6062,3.6062,3.6326,3.6471,3.6471,3.6471,3.6471,3.6471,3.6471,3.6603,3.6843,3.6843,3.6988,3.7264,3.8334,3.8827,3.8827,3.8827,3.8827,3.8803,3.8563,3.8599,3.8803,3.8551,3.8611,3.8827,3.8827,3.8827,3.8827,3.8827,3.8827,3.8827,3.8827,3.804,3.6801,3.5541,3.4285,3.3028,3.19,3.1562,3.1562,3.1562,3.1709,3.1855,3.1855,3.2353,3.2822,3.2822,3.2822,3.2822,3.2822,3.2978,3.3115,3.3115,3.3291,3.3418,3.3418,3.3418,3.3418,3.3418,3.3418,3.3418,3.3418,3.3418,3.3418,3.3418,3.3418,3.3418,3.3418,3.3418,3.3418,3.3418,3.3418,3.3418,3.3418,3.3418,3.3418,3.3418,3.3418,3.3418,3.3418,3.3418,3.3418,2.7945,0.0,3.0338,3.1396,3.2491,0.0,3.3284,3.409,3.4823,3.4823,3.4823,3.4823,3.4823,3.4823,3.4823,3.4823,3.4823,3.4823,3.4823,3.4823,3.4823,3.4823,3.4823,3.4823,3.4823,3.4823,3.4823,3.4823,3.4823,3.4823,3.4823,3.4823,3.4823,3.4823,3.4823,3.4823,3.4823,3.4823,3.5052,3.5485,3.5485,3.5713,3.6158,3.7036,3.7541,3.7709,3.7709,3.7709,3.7673,3.724,3.7312,3.7661,3.7228,3.7324,3.7709,3.7709,3.7709,3.7709,3.7709,3.7709,3.7709,3.7709,3.7062,3.599,3.4957,3.377,3.2571,3.1546,3.1112,3.0889,3.0889,3.1152,3.1406,3.1406,3.1689,3.1992,3.2139,3.2168,3.2168,3.2168,3.2451,3.2685,3.2685,3.3037,3.331,3.331,3.3379,3.3418,3.3418,3.3418,3.3418,3.3418,3.3418,3.3418,3.3418,3.3418,3.3418,3.3418,3.3418,3.3418,3.3418,3.3418,3.3418,3.3418,3.3418,3.3418,3.3418,3.3418,3.3418,3.3418,3.3418,3.3418,2.6851,0.0,3.0338,0.0,3.2491,3.3284,0.0,0.0,3.4823,0.0,3.4823,3.4823,3.4823,3.4823,3.4823,3.4823,3.4823,3.4823,3.4823,3.4823,3.4823,3.4823,3.4823,3.4823,3.4823,3.4823,3.4823,3.4823,3.4823,3.4823,3.4823,3.4823,3.4823,3.4823,3.4823,3.4823,3.4823,3.4823,3.4859,3.4931,3.4931,3.4968,3.504,3.5184,3.5749,3.6615,3.6615,3.6615,3.6615,3.6543,3.6555,3.6615,3.6531,3.6555,3.6615,3.6615,3.6615,3.6615,3.6615,3.6615,3.6615,3.6615,3.6513,3.6276,3.5523,3.4445,3.334,3.2675,3.1672,3.0889,3.0889,3.0928,3.0976,3.0976,3.1016,3.126,3.2012,3.2168,3.2168,3.2168,3.2217,3.2256,3.2256,3.2598,3.2881,3.2881,3.3193,3.3418,3.3418,3.3418,3.3418,3.3418,3.3418,3.3418,3.3418,3.3418,3.3418,3.3418,3.3418,3.3418,3.3418,3.3418,3.3418,3.3418,3.3418,3.3418,3.3418,3.3418,3.3418,3.3418,3.3418,3.3418,2.6635,2.8474,3.0194,0.0,3.1829,3.2923,3.3224,3.3861,3.4475,3.4763,3.4823,3.4823,3.4823,3.4823,3.4823,3.4823,3.4823,3.4823,3.4823,3.4823,3.4823,3.4823,3.4823,3.4823,3.4823,3.4823,3.4823,3.4823,3.4823,3.4823,3.4823,3.4823,3.4823,3.4823,3.4823,3.4823,3.4823,3.4823,3.4823,3.4823,3.4823,3.4823,3.4823,3.4823,3.5088,3.5521,3.5521,3.5521,3.5521,3.5521,3.5701,3.5966,3.5966,3.6146,3.6411,3.6411,3.6411,3.6411,3.6411,3.6411,3.6411,3.6411,3.5545,3.4414,3.409,3.276,3.1287,3.1075,3.0591,3.0205,3.0439,3.0508,3.0566,3.083,3.0889,3.0996,3.1377,3.1455,3.1523,3.1758,3.1807,3.1875,3.2129,3.2324,3.2441,3.2441,3.2803,3.3066,3.3066,3.3271,3.3418,3.3418,3.3418,3.3418,3.3418,3.3418,3.3418,3.3418,3.3418,3.3418,3.3418,3.3418,3.3418,3.3418,3.3418,3.3418,3.3418,3.3418,3.3418,3.3418,3.3418,3.3418,0.0,0.0,2.9412,2.9953,3.1096,3.2262,0.0,0.0,3.3994,3.4523,3.4631,3.4667,3.4799,3.4823,3.4823,3.4823,3.4823,3.4823,3.4823,3.4823,3.4823,3.4823,3.4823,3.4823,3.4823,3.4823,3.4823,3.4823,3.4823,3.4823,3.4823,3.4823,3.4823,3.4823,3.4823,3.4823,3.4823,3.4823,3.4823,3.4823,3.4823,3.4823,3.4823,3.4823,3.4823,3.4823,3.4823,3.4823,3.4823,3.4823,3.5064,3.5425,3.5425,3.5653,3.6002,3.6002,3.6002,3.6002,3.6002,3.6002,3.6002,3.6002,3.4839,3.3496,3.3619,3.2062,3.0289,3.0399,2.9996,2.9648,2.9961,3.0039,3.0127,3.0469,3.0635,3.0742,3.0869,3.0889,3.0986,3.1299,3.1357,3.1465,3.1787,3.1934,3.2002,3.2002,3.2363,3.2637,3.2637,3.291,3.3144,3.3252,3.3262,3.331,3.3408,3.3418,3.3418,3.3418,3.3418,3.3418,3.3418,3.3418,3.3418,3.3418,3.3418,3.3418,3.3418,3.3418,3.3418,3.3418,3.3418,3.3418,0.0,2.7007,0.0,2.9581,3.053,3.124,0.0,0.0,3.3464,3.397,3.4078,3.4234,3.4739,3.4823,3.4823,3.4823,3.4823,3.4823,3.4823,3.4823,3.4823,3.4823,3.4823,3.4823,3.4823,3.4823,3.4823,3.4823,3.4823,3.4823,3.4823,3.4823,3.4823,3.4823,3.4823,3.4823,3.4823,3.4823,3.4823,3.4823,3.4823,3.4823,3.4823,3.4823,3.4823,3.4823,3.4823,3.4823,3.4823,3.4823,3.4847,3.4871,3.4871,3.4883,3.4907,3.4907,3.4907,3.4907,3.4907,3.4907,3.4907,3.4907,3.481,3.4796,3.5298,3.3879,3.2195,3.2651,3.1278,2.957,2.96,2.96,2.9609,2.9629,2.9941,3.0351,3.0801,3.0889,3.0898,3.0918,3.0928,3.0928,3.0957,3.1289,3.1553,3.1553,3.1924,3.2207,3.2207,3.2217,3.2383,3.2783,3.2832,3.2988,3.3389,3.3418,3.3418,3.3418,3.3418,3.3418,3.3418,3.3418,3.3418,3.3418,3.3418,3.3418,3.3418,3.3418,3.3418,3.3418,3.3418,3.3418,0.0,0.0,0.0,2.7873,2.8715,2.9544,3.0278,3.112,3.1889,3.2406,3.3068,3.3621,3.3801,3.4378,3.4823,3.4823,3.4823,3.4823,3.4823,3.4823,3.4823,3.4823,3.4823,3.4823,3.4823,3.4823,3.4823,3.4823,3.4823,3.4823,3.4823,3.4823,3.4823,3.4823,3.4823,3.4823,3.4823,3.4823,3.4823,3.4823,3.4823,3.4823,3.4823,3.4823,3.4823,3.4823,3.4823,3.4823,3.4823,3.4823,3.4823,3.4823,3.4823,3.4823,3.4823,3.4823,3.4823,3.4823,3.4823,3.4823,3.4823,3.4823,3.4323,3.3645,3.3206,3.1929,3.0611,3.0154,2.9379,2.8818,2.9082,2.915,2.9219,2.9502,2.9687,2.9912,3.0351,3.0684,3.0889,3.0889,3.0889,3.0889,3.0889,3.1016,3.1113,3.1113,3.1475,3.1748,3.1748,3.1992,3.2226,3.2383,3.2393,3.2451,3.2607,3.2617,3.2617,3.2617,3.2617,3.2617,3.2617,3.2617,3.2617,3.2617,3.2617,3.2881,3.3418,3.3418,3.3418,3.3418,3.3418,3.3418,2.5312,0.0,0.0,0.0,2.7464,2.8162,2.8871,2.9845,3.0759,3.1288,3.2262,3.308,3.326,3.3849,3.4366,3.4535,3.4559,3.4619,3.4799,3.4823,3.4823,3.4823,3.4823,3.4823,3.4823,3.4823,3.4823,3.4823,3.4823,3.4823,3.4823,3.4823,3.4823,3.4823,3.4823,3.4823,3.4823,3.4823,3.4823,3.4823,3.4823,3.4823,3.4823,3.4823,3.4823,3.4823,3.4823,3.4823,3.4823,3.4823,3.4823,3.4823,3.4823,3.4823,3.4823,3.4823,3.4823,3.4823,3.4823,3.4823,3.4726,3.4421,3.3808,3.3001,3.188,3.0753,2.9713,2.9006,2.8601,2.8359,2.8633,2.8711,2.8818,2.9248,2.9355,2.9463,2.9893,3.0342,3.0703,3.0859,3.0889,3.0889,3.0889,3.0889,3.0889,3.0889,3.1133,3.1309,3.1309,3.1562,3.1797,3.1934,3.1953,3.2012,3.2158,3.2168,3.2168,3.2168,3.2168,3.2168,3.2168,3.2168,3.2168,3.2168,3.2168,3.2441,3.2998,3.2998,3.2998,3.2998,3.2998,3.3076,0.0,0.0,0.0,0.0,0.0,2.7164,2.8222,2.9256,3.0158,3.0735,3.1697,3.2599,3.314,3.3236,3.3404,3.3909,3.4006,3.4198,3.4715,3.4787,3.4787,3.4787,3.4799,3.4811,3.4811,3.4823,3.4823,3.4823,3.4823,3.4823,3.4823,3.4823,3.4823,3.4823,3.4823,3.4823,3.4823,3.4823,3.4823,3.4823,3.4823,3.4823,3.4823,3.4823,3.4823,3.4823,3.4823,3.4823,3.4823,3.4823,3.4823,3.4823,3.4823,3.4823,3.4823,3.4823,3.4823,3.4726,3.4726,3.4726,3.4519,3.3511,3.3201,3.3001,3.188,3.0753,2.9922,2.9817,2.9112,2.8291,2.8291,2.8291,2.8398,2.8809,2.8896,2.9023,2.9453,2.9873,3.0303,3.0781,3.0869,3.0869,3.0889,3.0889,3.0889,3.0889,3.0889,3.0889,3.0889,3.0889,3.1045,3.1455,3.1504,3.167,3.209,3.2129,3.2129,3.2129,3.2129,3.2129,3.2129,3.2129,3.2129,3.2129,3.2129,3.2129,3.2129,3.2158,3.2168,3.2168,3.2168,3.2383,2.5312,0.0,0.0,0.0,0.0,0.0,2.7128,2.7596,2.8282,2.9965,3.0543,3.1036,3.1949,3.2118,3.2298,3.2839,3.3248,3.3549,3.3693,3.3717,3.3717,3.3717,3.403,3.4258,3.4258,3.4607,3.4823,3.4823,3.4823,3.4823,3.4823,3.4823,3.4823,3.4823,3.4823,3.4823,3.4823,3.4823,3.4823,3.4823,3.4628,3.4628,3.4823,3.4628,3.4628,3.4823,3.4823,3.4726,3.4531,3.4726,3.4823,3.4823,3.4823,3.4823,3.4823,3.4823,3.4323,3.361,3.361,3.3101,3.2488,3.2185,3.2083,3.188,3.0742,3.013,2.9723,2.9006,2.8495,2.8291,2.8291,2.8291,2.832,2.8437,2.8467,2.8584,2.9014,2.9189,2.9492,3.0244,3.0391,3.0498,3.083,3.0889,3.0889,3.0889,3.0889,3.0889,3.0889,3.0889,3.0937,3.1055,3.1064,3.1113,3.123,3.125,3.125,3.125,3.125,3.125,3.125,3.125,3.125,3.125,3.125,3.125,3.125,3.1865,3.2168,3.2168,3.2168,3.2226,0.0,0.0,0.0,0.0,0.0,0.0,2.6117,2.661,2.7404,2.9088,2.9436,2.9749,3.0807,3.0651,3.0603,3.1372,3.1745,3.2262,3.3164,3.3284,3.3284,3.3284,3.3549,3.3729,3.3729,3.4006,3.427,3.4487,3.4499,3.4595,3.4823,3.4823,3.4823,3.4823,3.4823,3.4823,3.4823,3.4823,3.4823,3.4823,3.4628,3.4628,3.4823,3.4531,3.4531,3.4628,3.4543,3.4445,3.4249,3.4445,3.4543,3.4628,3.4726,3.4823,3.4823,3.4823,3.4421,3.3918,3.3918,3.3511,3.2789,3.188,3.1575,3.1268,2.9723,2.9207,2.9112,2.8495,2.8291,2.8291,2.8291,2.8291,2.8291,2.8291,2.8291,2.8359,2.8603,2.8662,2.8916,2.9766,3.0078,3.0283,3.0557,3.0762,3.0889,3.0889,3.0889,3.0889,3.0889,3.0889,3.0889,3.0889,3.0889,3.0889,3.0889,3.0889,3.0889,3.0889,3.0889,3.0889,3.0889,3.0889,3.0889,3.0889,3.0889,3.0889,3.0889,3.1387,3.1631,3.1631,3.1631,3.1728,0.0,0.0,0.0,0.0,0.0,0.0,2.5217,2.5937,2.6932,2.8095,2.8378,2.8655,2.9713,2.9148,2.8823,2.9761,3.0013,3.0795,3.2827,3.3104,3.3104,3.3104,3.3164,3.32,3.32,3.3248,3.3383,3.3827,3.3851,3.4054,3.4534,3.4606,3.4739,3.4739,3.4799,3.4823,3.4823,3.4726,3.4726,3.4726,3.4726,3.4738,3.4726,3.4433,3.4335,3.4335,3.4162,3.4075,3.4075,3.4075,3.4261,3.4347,3.464,3.4738,3.4726,3.4726,3.4726,3.4628,3.4628,3.4531,3.4115,3.2083,3.137,3.1062,2.891,2.8291,2.8291,2.8291,2.8291,2.8291,2.8291,2.8291,2.8291,2.8291,2.8291,2.8291,2.8291,2.8291,2.8516,2.9277,2.9766,3.0068,3.0117,3.0508,3.081,3.081,3.0859,3.0889,3.0889,3.0889,3.0889,3.0889,3.0889,3.0889,3.0889,3.0889,3.0889,3.0889,3.0889,3.0889,3.0889,3.0889,3.0889,3.0889,3.0889,3.0889,3.0889,3.0889,3.0889,3.0889,3.0889,3.1094,0.0,0.0,0.0,0.0,0.0,0.0,2.4708,2.4874,2.5338,2.7103,2.7305,2.7483,2.8366,2.8563,2.8491,2.8533,2.945,3.053,3.1805,3.1985,3.1985,3.1985,3.2382,3.2556,3.2349,3.2718,3.2911,3.2818,3.283,3.296,3.3255,3.366,3.3995,3.4198,3.4607,3.4823,3.4823,3.4628,3.4433,3.4433,3.4064,3.4064,3.4261,3.3965,3.3965,3.4162,3.4075,3.3977,3.3779,3.3977,3.4075,3.4162,3.4272,3.4347,3.4433,3.4433,3.4017,3.3511,3.3511,3.3001,3.1982,3.065,3.0235,3.0026,2.8698,2.8291,2.8291,2.8291,2.8291,2.8291,2.8291,2.8291,2.8291,2.8291,2.8291,2.8291,2.8291,2.8291,2.834,2.8506,2.8877,2.9277,2.9629,3.0049,3.0332,3.0332,3.0654,3.0889,3.0889,3.0889,3.0889,3.0889,3.0889,3.0889,3.0889,3.0889,3.0889,3.0889,3.0889,3.0889,3.0889,3.0889,3.0889,3.0889,3.0889,3.0889,3.0889,3.0889,3.0889,3.0889,3.0889,3.0937,0.0,0.0,0.0,2.3238,0.0,0.0,0.0,2.394,2.42,2.5686,2.5538,2.5385,2.6344,2.6193,2.6027,2.6451,2.7263,2.8235,2.9296,3.0745,3.1661,3.1661,3.1913,3.2082,3.1878,3.2027,3.2094,3.2077,3.2336,3.2583,3.2676,3.2925,3.3161,3.3256,3.3517,3.3779,3.4041,3.3944,3.3989,3.4249,3.3965,3.3977,3.4075,3.3779,3.3779,3.3878,3.3779,3.358,3.3481,3.3679,3.3679,3.3679,3.3977,3.4162,3.4249,3.4249,3.3621,3.2789,3.3001,3.2275,3.1235,3.0224,2.9922,2.9723,2.8601,2.8291,2.8291,2.8291,2.8291,2.8291,2.8291,2.8291,2.8291,2.8291,2.8291,2.8291,2.8291,2.8291,2.8291,2.8291,2.8467,2.874,2.917,2.96,2.9883,2.9883,3.0264,3.0547,3.0547,3.0752,3.0889,3.0889,3.0889,3.0889,3.0889,3.0889,3.0889,3.0889,3.0889,3.0889,3.0889,3.0889,3.0889,3.0889,3.0889,3.0889,3.0889,3.0889,3.0889,3.0889,3.0889,3.0889,0.0,0.0,0.0,0.0,0.0,2.2878,0.0,0.0,0.0,2.4061,2.3743,2.3565,2.4308,2.379,2.3541,2.419,2.4979,2.571,2.6476,2.8962,3.0733,3.0937,3.0961,3.1045,3.1161,3.1098,3.1203,3.1354,3.1763,3.209,3.209,3.2195,3.2347,3.2336,3.243,3.2688,3.31,3.3112,3.3382,3.3824,3.3824,3.3871,3.3977,3.3679,3.358,3.358,3.3381,3.3281,3.3281,3.3281,3.3281,3.3381,3.3779,3.3977,3.3977,3.3977,3.3434,3.2789,3.3012,3.2488,3.1542,3.0639,3.013,2.9608,2.8804,2.8398,2.8184,2.8291,2.8291,2.8291,2.8291,2.8291,2.8291,2.8291,2.8291,2.8291,2.8291,2.8291,2.8291,2.8291,2.8291,2.8398,2.874,2.916,2.9443,2.9443,2.9805,3.0078,3.0078,3.0478,3.0762,3.0762,3.084,3.0889,3.0889,3.0889,3.0889,3.0889,3.0889,3.0889,3.0889,3.0889,3.0889,3.0889,3.0889,3.0889,3.0889,3.0889,3.0889,3.0889,3.0889,3.0889,0.0,0.0,0.0,0.0,2.1458,0.0,0.0,0.0,2.2317,2.2223,0.0,2.3273,2.3243,0.0,0.0,2.2581,2.3839,2.4719,2.426,2.5777,2.7321,2.8243,2.8361,2.8645,2.9344,2.9966,3.0329,3.0387,3.0445,3.057,3.0831,3.1297,3.1646,3.1807,3.2242,3.2512,3.2571,3.2382,3.2555,3.3056,3.2764,3.292,3.3381,3.3381,3.3392,3.3381,3.3281,3.3281,3.3281,3.3281,3.3281,3.3292,3.3381,3.358,3.3779,3.3779,3.3767,3.3866,3.3965,3.3866,3.3545,3.251,3.0753,2.9197,2.9313,2.8698,2.796,2.8184,2.8291,2.8291,2.8291,2.8291,2.8291,2.8291,2.8291,2.8291,2.8291,2.8291,2.8291,2.8291,2.8291,2.831,2.8359,2.8711,2.8994,2.8994,2.9365,2.9639,2.9639,3.0019,3.0273,3.0273,3.0644,3.0889,3.0889,3.0889,3.0889,3.0889,3.0889,3.0889,3.0889,3.0889,3.0889,3.0889,3.0889,3.0889,3.0889,3.0889,3.0889,3.0889,3.0889,3.0889,0.0,0.0,0.0,0.0,0.0,0.0,2.136,0.0,2.162,0.0,0.0,0.0,0.0,0.0,0.0,0.0,2.246,2.3004,2.2728,2.3572,2.4961,2.6818,2.7301,2.794,2.8963,2.8842,2.8896,2.9286,2.9332,2.942,2.9508,3.0281,3.0732,3.0812,3.102,3.1275,3.1588,3.1506,3.1748,3.2233,3.216,3.2328,3.2822,3.2822,3.2994,3.3281,3.3281,3.3281,3.3281,3.3281,3.3281,3.3281,3.3281,3.3381,3.3481,3.3481,3.3158,3.2611,3.2083,3.1472,3.0753,2.9817,2.888,2.8155,2.8271,2.795,2.7638,2.796,2.8077,2.8067,2.8291,2.8291,2.8291,2.8291,2.8291,2.8291,2.8291,2.8291,2.8291,2.8291,2.8291,2.8291,2.8291,2.8437,2.8555,2.8555,2.8916,2.9189,2.9189,2.957,2.9932,3.0166,3.0371,3.0596,3.0869,3.0889,3.0889,3.0889,3.0889,3.0889,3.0889,3.0889,3.0889,3.0889,3.0762,3.0635,3.0635,3.0401,3.0284,3.0294,3.0772,3.0889,2.3029,0.0,0.0,0.0,0.0,0.0,0.0,0.0,0.0,0.0,0.0,0.0,0.0,0.0,0.0,0.0,0.0,2.1617,2.1353,2.1743,2.289,2.514,2.5972,2.6808,2.7823,2.7522,2.7533,2.823,2.8299,2.8413,2.8689,2.9401,2.9929,3.0204,3.0216,3.0399,3.079,3.0801,3.1042,3.1536,3.1559,3.1823,3.2294,3.2282,3.2489,3.2879,3.3005,3.3063,3.3074,3.3224,3.3281,3.3281,3.2958,3.2846,3.2846,3.2846,3.2319,3.1472,3.0535,2.9713,2.889,2.8262,2.7843,2.7628,2.7843,2.7638,2.7431,2.7745,2.7853,2.7853,2.797,2.8077,2.8184,2.8184,2.8291,2.8291,2.8291,2.8291,2.8184,2.8291,2.8291,2.8184,2.8291,2.8291,2.8291,2.8291,2.8555,2.875,2.875,2.9121,2.9512,2.9814,3.0059,3.0332,3.0674,3.082,3.0889,3.0889,3.0889,3.0889,3.0762,3.0762,3.0762,3.0655,3.0401,3.0265,3.0265,3.0039,2.9922,2.9922,3.0411,3.0655,0.0,0.0,0.0,2.3902,0.0,0.0,0.0,0.0,2.1221,0.0,0.0,0.0,0.0,0.0,0.0,0.0,0.0,0.0,0.0,2.0182,2.1055,2.2661,2.3661,2.4476,2.4992,2.5911,2.6703,2.7242,2.7277,2.769,2.8643,2.8723,2.9194,3.0181,3.0216,3.0227,3.025,3.025,3.0503,3.1031,3.1031,3.1306,3.1789,3.1766,3.1777,3.1834,3.2305,3.2512,3.2546,3.3074,3.3281,3.317,3.2106,3.1677,3.1677,3.1677,3.1677,3.1472,3.0338,2.9922,2.9817,2.9817,2.9071,2.8223,2.887,2.8145,2.7098,2.7745,2.7638,2.7431,2.7431,2.7638,2.796,2.796,2.8067,2.8291,2.8291,2.8067,2.796,2.8291,2.8067,2.796,2.8291,2.8291,2.8291,2.8291,2.8301,2.831,2.831,2.8682,2.8945,2.8955,2.9707,3.0205,3.0215,3.0635,3.0889,3.0889,3.0889,3.0762,3.0392,3.0382,3.0274,2.9922,2.9922,2.9922,2.9922,2.9931,2.9922,2.9922,2.9922,2.9922,2.5061,2.4946,2.4774,2.5119,0.0,0.0,0.0,0.0,0.0,0.0,0.0,0.0,0.0,0.0,0.0,0.0,0.0,0.0,0.0,2.0515,2.0595,2.1112,2.1778,2.2777,2.4292,2.4154,2.4441,2.5612,2.5693,2.629,2.7656,2.8344,2.9171,3.0181,3.0216,3.0216,3.0216,3.0216,3.0308,3.048,3.048,3.0767,3.1272,3.0566,3.0448,3.0674,3.0221,2.999,3.0022,3.0497,3.0691,3.0622,3.0522,3.0442,3.0442,3.0442,3.0442,3.0338,2.9177,2.8349,2.7736,2.7736,2.7422,2.7206,2.7422,2.7107,2.6791,2.7206,2.7206,2.7206,2.7314,2.7431,2.7638,2.7853,2.796,2.8067,2.8291,2.8184,2.8184,2.8291,2.8067,2.796,2.8067,2.7853,2.7862,2.8291,2.8291,2.8291,2.8291,2.8418,2.8613,2.8887,2.918,2.9468,2.9938,3.0151,3.0284,3.0284,3.0284,3.0167,3.0039,3.0039,3.0039,2.9922,2.9686,2.9686,2.9677,2.945,2.9331,2.9331,2.9331,2.9568,2.6071,2.5991,2.5796,2.6163,2.521,2.412,2.3821,0.0,2.2237,0.0,0.0,0.0,0.0,0.0,0.0,0.0,0.0,0.0,0.0,2.0262,1.9828,2.0008,2.0206,2.1069,2.296,2.2105,2.2194,2.4016,2.3891,2.4634,2.6864,2.7209,2.8079,2.9612,2.9658,2.9658,2.9658,3.0034,3.0216,3.0216,3.0216,3.0399,3.0732,3.0038,2.9736,2.9663,2.9138,2.881,2.8458,2.8894,2.9081,2.9123,2.9084,2.9049,2.908,2.9232,2.9081,2.8572,2.7931,2.7206,2.6591,2.6591,2.6591,2.6591,2.6691,2.6691,2.6691,2.689,2.6881,2.6899,2.7116,2.7215,2.7314,2.753,2.7638,2.7853,2.8077,2.8077,2.797,2.8184,2.796,2.7745,2.7745,2.753,2.7539,2.797,2.797,2.797,2.797,2.797,2.8076,2.8337,2.851,2.8945,2.9565,2.9659,2.9761,2.9912,2.9922,2.9804,2.9804,2.9804,2.9686,2.9577,2.945,2.9331,2.9331,2.9103,2.8984,2.8984,2.8984,2.9213]}]]